<?xml version="1.0" encoding="UTF-8" standalone="no" ?>
<gpx xmlns="http://www.topografix.com/GPX/1/1" creator="www.cicloide.com" version="1.1" xmlns:xsi="http://www.w3.org/2001/XMLSchema-instance" xsi:schemaLocation="http://www.topografix.com/GPX/1/1 http://www.topografix.com/GPX/1/1/gpx.xsd">
  <trk>
    <name>www.cicloide.com 14545</name>
    <desc>www.cicloide.com 14545</desc>
    <trkseg>
      <trkpt lat="41.610346796" lon="2.539135149">
        <ele>109.73</ele>
        <time>2013-07-14T07:45:39Z</time>
      </trkpt>
      <trkpt lat="41.610575287" lon="2.539000368">
        <ele>111.17</ele>
        <time>2013-07-14T07:45:49Z</time>
      </trkpt>
      <trkpt lat="41.610730184" lon="2.538926104">
        <ele>111.65</ele>
        <time>2013-07-14T07:45:56Z</time>
      </trkpt>
      <trkpt lat="41.610859098" lon="2.538857037">
        <ele>112.13</ele>
        <time>2013-07-14T07:46:01Z</time>
      </trkpt>
      <trkpt lat="41.611036459" lon="2.538772799">
        <ele>113.57</ele>
        <time>2013-07-14T07:46:09Z</time>
      </trkpt>
      <trkpt lat="41.611175096" lon="2.538747653">
        <ele>114.05</ele>
        <time>2013-07-14T07:46:15Z</time>
      </trkpt>
      <trkpt lat="41.611404089" lon="2.538741199">
        <ele>115.50</ele>
        <time>2013-07-14T07:46:25Z</time>
      </trkpt>
      <trkpt lat="41.611545408" lon="2.538727453">
        <ele>115.50</ele>
        <time>2013-07-14T07:46:31Z</time>
      </trkpt>
      <trkpt lat="41.611700054" lon="2.538718317">
        <ele>116.46</ele>
        <time>2013-07-14T07:46:38Z</time>
      </trkpt>
      <trkpt lat="41.611778928" lon="2.538864749">
        <ele>115.01</ele>
        <time>2013-07-14T07:46:43Z</time>
      </trkpt>
      <trkpt lat="41.611886216" lon="2.539069351">
        <ele>114.05</ele>
        <time>2013-07-14T07:46:51Z</time>
      </trkpt>
      <trkpt lat="41.612030637" lon="2.538937252">
        <ele>114.05</ele>
        <time>2013-07-14T07:46:58Z</time>
      </trkpt>
      <trkpt lat="41.612127112" lon="2.538760897">
        <ele>115.50</ele>
        <time>2013-07-14T07:47:05Z</time>
      </trkpt>
      <trkpt lat="41.612198526" lon="2.538609520">
        <ele>115.98</ele>
        <time>2013-07-14T07:47:12Z</time>
      </trkpt>
      <trkpt lat="41.612296511" lon="2.538447246">
        <ele>116.46</ele>
        <time>2013-07-14T07:47:18Z</time>
      </trkpt>
      <trkpt lat="41.612485606" lon="2.538192604">
        <ele>117.42</ele>
        <time>2013-07-14T07:47:27Z</time>
      </trkpt>
      <trkpt lat="41.612623321" lon="2.538016165">
        <ele>117.90</ele>
        <time>2013-07-14T07:47:34Z</time>
      </trkpt>
      <trkpt lat="41.612768663" lon="2.537851041">
        <ele>118.86</ele>
        <time>2013-07-14T07:47:41Z</time>
      </trkpt>
      <trkpt lat="41.612979636" lon="2.537616264">
        <ele>119.82</ele>
        <time>2013-07-14T07:47:51Z</time>
      </trkpt>
      <trkpt lat="41.613125229" lon="2.537462372">
        <ele>119.82</ele>
        <time>2013-07-14T07:47:58Z</time>
      </trkpt>
      <trkpt lat="41.613288677" lon="2.537281072">
        <ele>120.78</ele>
        <time>2013-07-14T07:48:06Z</time>
      </trkpt>
      <trkpt lat="41.613459919" lon="2.537062053">
        <ele>121.74</ele>
        <time>2013-07-14T07:48:15Z</time>
      </trkpt>
      <trkpt lat="41.613575589" lon="2.536889805">
        <ele>122.22</ele>
        <time>2013-07-14T07:48:22Z</time>
      </trkpt>
      <trkpt lat="41.613644907" lon="2.536687549">
        <ele>122.71</ele>
        <time>2013-07-14T07:48:28Z</time>
      </trkpt>
      <trkpt lat="41.613635855" lon="2.536472889">
        <ele>123.67</ele>
        <time>2013-07-14T07:48:35Z</time>
      </trkpt>
      <trkpt lat="41.613724619" lon="2.536262838">
        <ele>124.15</ele>
        <time>2013-07-14T07:48:41Z</time>
      </trkpt>
      <trkpt lat="41.613811540" lon="2.536050441">
        <ele>124.63</ele>
        <time>2013-07-14T07:48:48Z</time>
      </trkpt>
      <trkpt lat="41.613915056" lon="2.535787920">
        <ele>125.59</ele>
        <time>2013-07-14T07:48:56Z</time>
      </trkpt>
      <trkpt lat="41.613996277" lon="2.535538893">
        <ele>126.55</ele>
        <time>2013-07-14T07:49:04Z</time>
      </trkpt>
      <trkpt lat="41.614051849" lon="2.535356084">
        <ele>127.03</ele>
        <time>2013-07-14T07:49:09Z</time>
      </trkpt>
      <trkpt lat="41.614151593" lon="2.535060957">
        <ele>127.99</ele>
        <time>2013-07-14T07:49:18Z</time>
      </trkpt>
      <trkpt lat="41.614231305" lon="2.534779828">
        <ele>129.43</ele>
        <time>2013-07-14T07:49:27Z</time>
      </trkpt>
      <trkpt lat="41.614300708" lon="2.534571370">
        <ele>130.40</ele>
        <time>2013-07-14T07:49:34Z</time>
      </trkpt>
      <trkpt lat="41.614364745" lon="2.534358302">
        <ele>130.88</ele>
        <time>2013-07-14T07:49:41Z</time>
      </trkpt>
      <trkpt lat="41.614432555" lon="2.534130985">
        <ele>131.84</ele>
        <time>2013-07-14T07:49:48Z</time>
      </trkpt>
      <trkpt lat="41.614498269" lon="2.533908613">
        <ele>132.32</ele>
        <time>2013-07-14T07:49:55Z</time>
      </trkpt>
      <trkpt lat="41.614577981" lon="2.533656905">
        <ele>133.28</ele>
        <time>2013-07-14T07:50:02Z</time>
      </trkpt>
      <trkpt lat="41.614701614" lon="2.533318443">
        <ele>134.24</ele>
        <time>2013-07-14T07:50:11Z</time>
      </trkpt>
      <trkpt lat="41.614783002" lon="2.533028262">
        <ele>134.72</ele>
        <time>2013-07-14T07:50:19Z</time>
      </trkpt>
      <trkpt lat="41.614859026" lon="2.532757107">
        <ele>135.68</ele>
        <time>2013-07-14T07:50:27Z</time>
      </trkpt>
      <trkpt lat="41.614935804" lon="2.532515457">
        <ele>136.64</ele>
        <time>2013-07-14T07:50:34Z</time>
      </trkpt>
      <trkpt lat="41.615023228" lon="2.532201219">
        <ele>137.61</ele>
        <time>2013-07-14T07:50:43Z</time>
      </trkpt>
      <trkpt lat="41.615056001" lon="2.531948505">
        <ele>138.09</ele>
        <time>2013-07-14T07:50:50Z</time>
      </trkpt>
      <trkpt lat="41.615082571" lon="2.531622281">
        <ele>139.53</ele>
        <time>2013-07-14T07:50:59Z</time>
      </trkpt>
      <trkpt lat="41.615098497" lon="2.531268733">
        <ele>140.49</ele>
        <time>2013-07-14T07:51:09Z</time>
      </trkpt>
      <trkpt lat="41.615132192" lon="2.530967655">
        <ele>140.97</ele>
        <time>2013-07-14T07:51:17Z</time>
      </trkpt>
      <trkpt lat="41.615169492" lon="2.530608323">
        <ele>141.93</ele>
        <time>2013-07-14T07:51:27Z</time>
      </trkpt>
      <trkpt lat="41.615179299" lon="2.530285284">
        <ele>143.37</ele>
        <time>2013-07-14T07:51:36Z</time>
      </trkpt>
      <trkpt lat="41.615163708" lon="2.530008430">
        <ele>144.34</ele>
        <time>2013-07-14T07:51:44Z</time>
      </trkpt>
      <trkpt lat="41.615163624" lon="2.529646415">
        <ele>145.78</ele>
        <time>2013-07-14T07:51:54Z</time>
      </trkpt>
      <trkpt lat="41.615163457" lon="2.529336369">
        <ele>146.26</ele>
        <time>2013-07-14T07:52:03Z</time>
      </trkpt>
      <trkpt lat="41.615171001" lon="2.529068567">
        <ele>147.70</ele>
        <time>2013-07-14T07:52:11Z</time>
      </trkpt>
      <trkpt lat="41.615212407" lon="2.528743601">
        <ele>148.18</ele>
        <time>2013-07-14T07:52:20Z</time>
      </trkpt>
      <trkpt lat="41.615270410" lon="2.528466327">
        <ele>148.66</ele>
        <time>2013-07-14T07:52:28Z</time>
      </trkpt>
      <trkpt lat="41.615345009" lon="2.528098529">
        <ele>150.10</ele>
        <time>2013-07-14T07:52:39Z</time>
      </trkpt>
      <trkpt lat="41.615388092" lon="2.527776078">
        <ele>150.58</ele>
        <time>2013-07-14T07:52:48Z</time>
      </trkpt>
      <trkpt lat="41.615431678" lon="2.527499726">
        <ele>152.51</ele>
        <time>2013-07-14T07:52:56Z</time>
      </trkpt>
      <trkpt lat="41.615506277" lon="2.527234858">
        <ele>152.99</ele>
        <time>2013-07-14T07:53:04Z</time>
      </trkpt>
      <trkpt lat="41.615554724" lon="2.526957249">
        <ele>154.43</ele>
        <time>2013-07-14T07:53:12Z</time>
      </trkpt>
      <trkpt lat="41.615566207" lon="2.526719622">
        <ele>155.39</ele>
        <time>2013-07-14T07:53:19Z</time>
      </trkpt>
      <trkpt lat="41.615537960" lon="2.526406642">
        <ele>156.35</ele>
        <time>2013-07-14T07:53:28Z</time>
      </trkpt>
      <trkpt lat="41.615509210" lon="2.526152000">
        <ele>157.31</ele>
        <time>2013-07-14T07:53:36Z</time>
      </trkpt>
      <trkpt lat="41.615500158" lon="2.525875397">
        <ele>158.27</ele>
        <time>2013-07-14T07:53:43Z</time>
      </trkpt>
      <trkpt lat="41.615495799" lon="2.525549425">
        <ele>159.24</ele>
        <time>2013-07-14T07:53:52Z</time>
      </trkpt>
      <trkpt lat="41.615495464" lon="2.525292017">
        <ele>159.72</ele>
        <time>2013-07-14T07:53:59Z</time>
      </trkpt>
      <trkpt lat="41.615508204" lon="2.525004853">
        <ele>160.68</ele>
        <time>2013-07-14T07:54:08Z</time>
      </trkpt>
      <trkpt lat="41.615534272" lon="2.524721461">
        <ele>162.12</ele>
        <time>2013-07-14T07:54:17Z</time>
      </trkpt>
      <trkpt lat="41.615557742" lon="2.524471093">
        <ele>162.60</ele>
        <time>2013-07-14T07:54:25Z</time>
      </trkpt>
      <trkpt lat="41.615581630" lon="2.524194406">
        <ele>164.52</ele>
        <time>2013-07-14T07:54:34Z</time>
      </trkpt>
      <trkpt lat="41.615599819" lon="2.523980500">
        <ele>165.48</ele>
        <time>2013-07-14T07:54:41Z</time>
      </trkpt>
      <trkpt lat="41.615606608" lon="2.523754692">
        <ele>166.93</ele>
        <time>2013-07-14T07:54:49Z</time>
      </trkpt>
      <trkpt lat="41.615623120" lon="2.523475407">
        <ele>167.41</ele>
        <time>2013-07-14T07:54:58Z</time>
      </trkpt>
      <trkpt lat="41.615643488" lon="2.523238702">
        <ele>168.37</ele>
        <time>2013-07-14T07:55:05Z</time>
      </trkpt>
      <trkpt lat="41.615677100" lon="2.522971738">
        <ele>169.33</ele>
        <time>2013-07-14T07:55:13Z</time>
      </trkpt>
      <trkpt lat="41.615713310" lon="2.522714833">
        <ele>169.81</ele>
        <time>2013-07-14T07:55:21Z</time>
      </trkpt>
      <trkpt lat="41.615768714" lon="2.522356674">
        <ele>171.73</ele>
        <time>2013-07-14T07:55:32Z</time>
      </trkpt>
      <trkpt lat="41.615802158" lon="2.522073450">
        <ele>172.69</ele>
        <time>2013-07-14T07:55:41Z</time>
      </trkpt>
      <trkpt lat="41.615827052" lon="2.521823501">
        <ele>173.66</ele>
        <time>2013-07-14T07:55:49Z</time>
      </trkpt>
      <trkpt lat="41.615881199" lon="2.521540696">
        <ele>174.14</ele>
        <time>2013-07-14T07:55:57Z</time>
      </trkpt>
      <trkpt lat="41.615919672" lon="2.521295609">
        <ele>174.62</ele>
        <time>2013-07-14T07:56:04Z</time>
      </trkpt>
      <trkpt lat="41.615950769" lon="2.521061503">
        <ele>175.10</ele>
        <time>2013-07-14T07:56:11Z</time>
      </trkpt>
      <trkpt lat="41.616020003" lon="2.520752378">
        <ele>176.06</ele>
        <time>2013-07-14T07:56:20Z</time>
      </trkpt>
      <trkpt lat="41.616091836" lon="2.520505699">
        <ele>176.54</ele>
        <time>2013-07-14T07:56:28Z</time>
      </trkpt>
      <trkpt lat="41.616197448" lon="2.520199591">
        <ele>177.50</ele>
        <time>2013-07-14T07:56:38Z</time>
      </trkpt>
      <trkpt lat="41.616252434" lon="2.520024913">
        <ele>177.50</ele>
        <time>2013-07-14T07:56:44Z</time>
      </trkpt>
      <trkpt lat="41.616264504" lon="2.520009657">
        <ele>177.50</ele>
        <time>2013-07-14T07:56:45Z</time>
      </trkpt>
      <trkpt lat="41.616346898" lon="2.519957857">
        <ele>177.50</ele>
        <time>2013-07-14T07:56:50Z</time>
      </trkpt>
      <trkpt lat="41.616482182" lon="2.519853838">
        <ele>176.54</ele>
        <time>2013-07-14T07:56:55Z</time>
      </trkpt>
      <trkpt lat="41.616684353" lon="2.519759458">
        <ele>177.98</ele>
        <time>2013-07-14T07:57:03Z</time>
      </trkpt>
      <trkpt lat="41.616888369" lon="2.519693241">
        <ele>179.42</ele>
        <time>2013-07-14T07:57:12Z</time>
      </trkpt>
      <trkpt lat="41.617134378" lon="2.519657701">
        <ele>180.38</ele>
        <time>2013-07-14T07:57:21Z</time>
      </trkpt>
      <trkpt lat="41.617349457" lon="2.519624928">
        <ele>181.35</ele>
        <time>2013-07-14T07:57:30Z</time>
      </trkpt>
      <trkpt lat="41.617540648" lon="2.519603219">
        <ele>182.31</ele>
        <time>2013-07-14T07:57:38Z</time>
      </trkpt>
      <trkpt lat="41.617734438" lon="2.519590227">
        <ele>183.27</ele>
        <time>2013-07-14T07:57:47Z</time>
      </trkpt>
      <trkpt lat="41.617769307" lon="2.519586790">
        <ele>183.27</ele>
        <time>2013-07-14T07:57:52Z</time>
      </trkpt>
      <trkpt lat="41.617768971" lon="2.519609422">
        <ele>184.71</ele>
        <time>2013-07-14T07:58:01Z</time>
      </trkpt>
      <trkpt lat="41.617780706" lon="2.519640938">
        <ele>184.71</ele>
        <time>2013-07-14T07:58:08Z</time>
      </trkpt>
      <trkpt lat="41.617778527" lon="2.519657701">
        <ele>184.71</ele>
        <time>2013-07-14T07:58:13Z</time>
      </trkpt>
      <trkpt lat="41.617846755" lon="2.519742191">
        <ele>185.19</ele>
        <time>2013-07-14T07:58:19Z</time>
      </trkpt>
      <trkpt lat="41.617868716" lon="2.519838415">
        <ele>186.15</ele>
        <time>2013-07-14T07:58:24Z</time>
      </trkpt>
      <trkpt lat="41.617870057" lon="2.519879487">
        <ele>186.63</ele>
        <time>2013-07-14T07:58:26Z</time>
      </trkpt>
      <trkpt lat="41.617792944" lon="2.520026170">
        <ele>188.08</ele>
        <time>2013-07-14T07:58:34Z</time>
      </trkpt>
      <trkpt lat="41.617671071" lon="2.520152234">
        <ele>190.00</ele>
        <time>2013-07-14T07:58:43Z</time>
      </trkpt>
      <trkpt lat="41.617659671" lon="2.520295648">
        <ele>191.44</ele>
        <time>2013-07-14T07:58:50Z</time>
      </trkpt>
      <trkpt lat="41.617650451" lon="2.520482229">
        <ele>193.36</ele>
        <time>2013-07-14T07:58:59Z</time>
      </trkpt>
      <trkpt lat="41.617631676" lon="2.520677611">
        <ele>193.84</ele>
        <time>2013-07-14T07:59:07Z</time>
      </trkpt>
      <trkpt lat="41.617683141" lon="2.520897217">
        <ele>194.80</ele>
        <time>2013-07-14T07:59:16Z</time>
      </trkpt>
      <trkpt lat="41.617767882" lon="2.521143142">
        <ele>195.77</ele>
        <time>2013-07-14T07:59:27Z</time>
      </trkpt>
      <trkpt lat="41.617819598" lon="2.521352019">
        <ele>196.73</ele>
        <time>2013-07-14T07:59:36Z</time>
      </trkpt>
      <trkpt lat="41.617863603" lon="2.521527033">
        <ele>198.17</ele>
        <time>2013-07-14T07:59:44Z</time>
      </trkpt>
      <trkpt lat="41.617950607" lon="2.521564752">
        <ele>199.61</ele>
        <time>2013-07-14T07:59:51Z</time>
      </trkpt>
      <trkpt lat="41.617978100" lon="2.521482023">
        <ele>201.53</ele>
        <time>2013-07-14T07:59:56Z</time>
      </trkpt>
      <trkpt lat="41.618012214" lon="2.521380518">
        <ele>202.98</ele>
        <time>2013-07-14T08:00:01Z</time>
      </trkpt>
      <trkpt lat="41.618083125" lon="2.521275660">
        <ele>204.42</ele>
        <time>2013-07-14T08:00:09Z</time>
      </trkpt>
      <trkpt lat="41.618166777" lon="2.521121936">
        <ele>205.86</ele>
        <time>2013-07-14T08:00:18Z</time>
      </trkpt>
      <trkpt lat="41.618225115" lon="2.520986987">
        <ele>207.30</ele>
        <time>2013-07-14T08:00:26Z</time>
      </trkpt>
      <trkpt lat="41.618239112" lon="2.520939462">
        <ele>208.26</ele>
        <time>2013-07-14T08:00:29Z</time>
      </trkpt>
      <trkpt lat="41.618263001" lon="2.520856146">
        <ele>209.22</ele>
        <time>2013-07-14T08:00:34Z</time>
      </trkpt>
      <trkpt lat="41.618304743" lon="2.520691358">
        <ele>210.67</ele>
        <time>2013-07-14T08:00:44Z</time>
      </trkpt>
      <trkpt lat="41.618309939" lon="2.520675684">
        <ele>211.63</ele>
        <time>2013-07-14T08:00:45Z</time>
      </trkpt>
      <trkpt lat="41.618363165" lon="2.520626649">
        <ele>211.63</ele>
        <time>2013-07-14T08:00:50Z</time>
      </trkpt>
      <trkpt lat="41.618499622" lon="2.520574095">
        <ele>213.07</ele>
        <time>2013-07-14T08:01:01Z</time>
      </trkpt>
      <trkpt lat="41.618614370" lon="2.520558253">
        <ele>214.51</ele>
        <time>2013-07-14T08:01:09Z</time>
      </trkpt>
      <trkpt lat="41.618723922" lon="2.520534197">
        <ele>215.95</ele>
        <time>2013-07-14T08:01:17Z</time>
      </trkpt>
      <trkpt lat="41.618807824" lon="2.520511985">
        <ele>216.91</ele>
        <time>2013-07-14T08:01:23Z</time>
      </trkpt>
      <trkpt lat="41.618857445" lon="2.520484576">
        <ele>217.88</ele>
        <time>2013-07-14T08:01:27Z</time>
      </trkpt>
      <trkpt lat="41.618963979" lon="2.520425987">
        <ele>219.80</ele>
        <time>2013-07-14T08:01:36Z</time>
      </trkpt>
      <trkpt lat="41.619061461" lon="2.520378964">
        <ele>220.76</ele>
        <time>2013-07-14T08:01:44Z</time>
      </trkpt>
      <trkpt lat="41.619079650" lon="2.520371672">
        <ele>221.24</ele>
        <time>2013-07-14T08:01:45Z</time>
      </trkpt>
      <trkpt lat="41.619168498" lon="2.520304533">
        <ele>222.68</ele>
        <time>2013-07-14T08:01:52Z</time>
      </trkpt>
      <trkpt lat="41.619208647" lon="2.520302270">
        <ele>223.16</ele>
        <time>2013-07-14T08:01:55Z</time>
      </trkpt>
      <trkpt lat="41.619377459" lon="2.520302605">
        <ele>225.09</ele>
        <time>2013-07-14T08:02:06Z</time>
      </trkpt>
      <trkpt lat="41.619482149" lon="2.520338480">
        <ele>227.49</ele>
        <time>2013-07-14T08:02:14Z</time>
      </trkpt>
      <trkpt lat="41.619615924" lon="2.520310735">
        <ele>229.41</ele>
        <time>2013-07-14T08:02:24Z</time>
      </trkpt>
      <trkpt lat="41.619731929" lon="2.520272430">
        <ele>231.33</ele>
        <time>2013-07-14T08:02:33Z</time>
      </trkpt>
      <trkpt lat="41.619846007" lon="2.520214595">
        <ele>233.26</ele>
        <time>2013-07-14T08:02:42Z</time>
      </trkpt>
      <trkpt lat="41.619985733" lon="2.520142175">
        <ele>235.66</ele>
        <time>2013-07-14T08:02:52Z</time>
      </trkpt>
      <trkpt lat="41.620119089" lon="2.520103200">
        <ele>237.58</ele>
        <time>2013-07-14T08:03:01Z</time>
      </trkpt>
      <trkpt lat="41.620264013" lon="2.520098254">
        <ele>239.51</ele>
        <time>2013-07-14T08:03:11Z</time>
      </trkpt>
      <trkpt lat="41.620401895" lon="2.520124573">
        <ele>240.47</ele>
        <time>2013-07-14T08:03:20Z</time>
      </trkpt>
      <trkpt lat="41.620546650" lon="2.520152569">
        <ele>242.39</ele>
        <time>2013-07-14T08:03:29Z</time>
      </trkpt>
      <trkpt lat="41.620657208" lon="2.520162962">
        <ele>243.83</ele>
        <time>2013-07-14T08:03:37Z</time>
      </trkpt>
      <trkpt lat="41.620771788" lon="2.520180648">
        <ele>245.27</ele>
        <time>2013-07-14T08:03:45Z</time>
      </trkpt>
      <trkpt lat="41.620905144" lon="2.520202944">
        <ele>246.72</ele>
        <time>2013-07-14T08:03:54Z</time>
      </trkpt>
      <trkpt lat="41.621043865" lon="2.520237478">
        <ele>248.16</ele>
        <time>2013-07-14T08:04:03Z</time>
      </trkpt>
      <trkpt lat="41.621216281" lon="2.520269077">
        <ele>250.08</ele>
        <time>2013-07-14T08:04:14Z</time>
      </trkpt>
      <trkpt lat="41.621353576" lon="2.520278800">
        <ele>252.00</ele>
        <time>2013-07-14T08:04:24Z</time>
      </trkpt>
      <trkpt lat="41.621460948" lon="2.520297743">
        <ele>253.44</ele>
        <time>2013-07-14T08:04:32Z</time>
      </trkpt>
      <trkpt lat="41.621617606" lon="2.520357506">
        <ele>256.33</ele>
        <time>2013-07-14T08:04:43Z</time>
      </trkpt>
      <trkpt lat="41.621730007" lon="2.520387933">
        <ele>258.25</ele>
        <time>2013-07-14T08:04:51Z</time>
      </trkpt>
      <trkpt lat="41.621851210" lon="2.520401428">
        <ele>260.65</ele>
        <time>2013-07-14T08:05:01Z</time>
      </trkpt>
      <trkpt lat="41.622002503" lon="2.520423472">
        <ele>263.54</ele>
        <time>2013-07-14T08:05:13Z</time>
      </trkpt>
      <trkpt lat="41.622104092" lon="2.520405032">
        <ele>265.46</ele>
        <time>2013-07-14T08:05:22Z</time>
      </trkpt>
      <trkpt lat="41.622230910" lon="2.520358848">
        <ele>267.86</ele>
        <time>2013-07-14T08:05:32Z</time>
      </trkpt>
      <trkpt lat="41.622350604" lon="2.520331858">
        <ele>268.83</ele>
        <time>2013-07-14T08:05:41Z</time>
      </trkpt>
      <trkpt lat="41.622446073" lon="2.520342670">
        <ele>270.27</ele>
        <time>2013-07-14T08:05:48Z</time>
      </trkpt>
      <trkpt lat="41.622442804" lon="2.520446690">
        <ele>271.23</ele>
        <time>2013-07-14T08:05:55Z</time>
      </trkpt>
      <trkpt lat="41.622419000" lon="2.520466974">
        <ele>271.71</ele>
        <time>2013-07-14T08:05:57Z</time>
      </trkpt>
      <trkpt lat="41.622298300" lon="2.520522127">
        <ele>273.15</ele>
        <time>2013-07-14T08:06:07Z</time>
      </trkpt>
      <trkpt lat="41.622130411" lon="2.520646347">
        <ele>275.56</ele>
        <time>2013-07-14T08:06:20Z</time>
      </trkpt>
      <trkpt lat="41.621975597" lon="2.520761263">
        <ele>278.44</ele>
        <time>2013-07-14T08:06:31Z</time>
      </trkpt>
      <trkpt lat="41.621836038" lon="2.520875005">
        <ele>280.36</ele>
        <time>2013-07-14T08:06:41Z</time>
      </trkpt>
      <trkpt lat="41.621713160" lon="2.520988580">
        <ele>280.84</ele>
        <time>2013-07-14T08:06:50Z</time>
      </trkpt>
      <trkpt lat="41.621602602" lon="2.521000482">
        <ele>281.80</ele>
        <time>2013-07-14T08:06:58Z</time>
      </trkpt>
      <trkpt lat="41.621468241" lon="2.520945581">
        <ele>282.28</ele>
        <time>2013-07-14T08:07:07Z</time>
      </trkpt>
      <trkpt lat="41.621390373" lon="2.520923117">
        <ele>282.77</ele>
        <time>2013-07-14T08:07:12Z</time>
      </trkpt>
      <trkpt lat="41.621190716" lon="2.520996794">
        <ele>284.21</ele>
        <time>2013-07-14T08:07:23Z</time>
      </trkpt>
      <trkpt lat="41.621100610" lon="2.521025963">
        <ele>284.69</ele>
        <time>2013-07-14T08:07:29Z</time>
      </trkpt>
      <trkpt lat="41.621082422" lon="2.521036105">
        <ele>285.17</ele>
        <time>2013-07-14T08:07:31Z</time>
      </trkpt>
      <trkpt lat="41.621099269" lon="2.521099053">
        <ele>286.13</ele>
        <time>2013-07-14T08:07:37Z</time>
      </trkpt>
      <trkpt lat="41.621146878" lon="2.521094946">
        <ele>287.09</ele>
        <time>2013-07-14T08:07:40Z</time>
      </trkpt>
      <trkpt lat="41.621302363" lon="2.521159655">
        <ele>289.97</ele>
        <time>2013-07-14T08:07:52Z</time>
      </trkpt>
      <trkpt lat="41.621404119" lon="2.521302063">
        <ele>291.90</ele>
        <time>2013-07-14T08:08:02Z</time>
      </trkpt>
      <trkpt lat="41.621512162" lon="2.521441957">
        <ele>293.82</ele>
        <time>2013-07-14T08:08:12Z</time>
      </trkpt>
      <trkpt lat="41.621599753" lon="2.521602806">
        <ele>295.26</ele>
        <time>2013-07-14T08:08:21Z</time>
      </trkpt>
      <trkpt lat="41.621617355" lon="2.521635831">
        <ele>295.74</ele>
        <time>2013-07-14T08:08:23Z</time>
      </trkpt>
      <trkpt lat="41.621647949" lon="2.521692325">
        <ele>296.22</ele>
        <time>2013-07-14T08:08:27Z</time>
      </trkpt>
      <trkpt lat="41.621702096" lon="2.521822496">
        <ele>298.15</ele>
        <time>2013-07-14T08:08:36Z</time>
      </trkpt>
      <trkpt lat="41.621765798" lon="2.521983763">
        <ele>300.07</ele>
        <time>2013-07-14T08:08:45Z</time>
      </trkpt>
      <trkpt lat="41.621822125" lon="2.522117287">
        <ele>301.51</ele>
        <time>2013-07-14T08:08:53Z</time>
      </trkpt>
      <trkpt lat="41.621868728" lon="2.522234885">
        <ele>302.47</ele>
        <time>2013-07-14T08:09:00Z</time>
      </trkpt>
      <trkpt lat="41.621941567" lon="2.522211500">
        <ele>304.39</ele>
        <time>2013-07-14T08:09:07Z</time>
      </trkpt>
      <trkpt lat="41.621921199" lon="2.522079904">
        <ele>305.84</ele>
        <time>2013-07-14T08:09:15Z</time>
      </trkpt>
      <trkpt lat="41.621927317" lon="2.521879492">
        <ele>307.76</ele>
        <time>2013-07-14T08:09:25Z</time>
      </trkpt>
      <trkpt lat="41.621943746" lon="2.521759967">
        <ele>308.72</ele>
        <time>2013-07-14T08:09:30Z</time>
      </trkpt>
      <trkpt lat="41.621997809" lon="2.521588473">
        <ele>309.68</ele>
        <time>2013-07-14T08:09:39Z</time>
      </trkpt>
      <trkpt lat="41.622052208" lon="2.521534912">
        <ele>310.16</ele>
        <time>2013-07-14T08:09:43Z</time>
      </trkpt>
      <trkpt lat="41.622209704" lon="2.521539439">
        <ele>312.57</ele>
        <time>2013-07-14T08:09:53Z</time>
      </trkpt>
      <trkpt lat="41.622336187" lon="2.521642704">
        <ele>313.53</ele>
        <time>2013-07-14T08:10:02Z</time>
      </trkpt>
      <trkpt lat="41.622453952" lon="2.521729456">
        <ele>314.97</ele>
        <time>2013-07-14T08:10:11Z</time>
      </trkpt>
      <trkpt lat="41.622581693" lon="2.521818807">
        <ele>316.89</ele>
        <time>2013-07-14T08:10:21Z</time>
      </trkpt>
      <trkpt lat="41.622707756" lon="2.521836829">
        <ele>317.85</ele>
        <time>2013-07-14T08:10:29Z</time>
      </trkpt>
      <trkpt lat="41.622838430" lon="2.521840852">
        <ele>319.30</ele>
        <time>2013-07-14T08:10:38Z</time>
      </trkpt>
      <trkpt lat="41.622972541" lon="2.521830626">
        <ele>320.74</ele>
        <time>2013-07-14T08:10:47Z</time>
      </trkpt>
      <trkpt lat="41.623109920" lon="2.521801122">
        <ele>322.66</ele>
        <time>2013-07-14T08:10:57Z</time>
      </trkpt>
      <trkpt lat="41.623232128" lon="2.521867842">
        <ele>323.14</ele>
        <time>2013-07-14T08:11:05Z</time>
      </trkpt>
      <trkpt lat="41.623351738" lon="2.522033803">
        <ele>324.58</ele>
        <time>2013-07-14T08:11:15Z</time>
      </trkpt>
      <trkpt lat="41.623421895" lon="2.522122400">
        <ele>325.06</ele>
        <time>2013-07-14T08:11:21Z</time>
      </trkpt>
      <trkpt lat="41.623539409" lon="2.522240585">
        <ele>326.02</ele>
        <time>2013-07-14T08:11:29Z</time>
      </trkpt>
      <trkpt lat="41.623658683" lon="2.522340581">
        <ele>326.50</ele>
        <time>2013-07-14T08:11:37Z</time>
      </trkpt>
      <trkpt lat="41.623822717" lon="2.522473350">
        <ele>327.47</ele>
        <time>2013-07-14T08:11:47Z</time>
      </trkpt>
      <trkpt lat="41.623921288" lon="2.522583740">
        <ele>328.43</ele>
        <time>2013-07-14T08:11:54Z</time>
      </trkpt>
      <trkpt lat="41.624025727" lon="2.522780715">
        <ele>328.91</ele>
        <time>2013-07-14T08:12:04Z</time>
      </trkpt>
      <trkpt lat="41.624106361" lon="2.522956567">
        <ele>329.39</ele>
        <time>2013-07-14T08:12:12Z</time>
      </trkpt>
      <trkpt lat="41.624172829" lon="2.523160583">
        <ele>329.87</ele>
        <time>2013-07-14T08:12:20Z</time>
      </trkpt>
      <trkpt lat="41.624250362" lon="2.523455039">
        <ele>330.35</ele>
        <time>2013-07-14T08:12:30Z</time>
      </trkpt>
      <trkpt lat="41.624316998" lon="2.523655618">
        <ele>331.79</ele>
        <time>2013-07-14T08:12:38Z</time>
      </trkpt>
      <trkpt lat="41.624402410" lon="2.523836415">
        <ele>333.23</ele>
        <time>2013-07-14T08:12:46Z</time>
      </trkpt>
      <trkpt lat="41.624494527" lon="2.524017381">
        <ele>334.68</ele>
        <time>2013-07-14T08:12:54Z</time>
      </trkpt>
      <trkpt lat="41.624585135" lon="2.524266072">
        <ele>336.12</ele>
        <time>2013-07-14T08:13:05Z</time>
      </trkpt>
      <trkpt lat="41.624666104" lon="2.524480146">
        <ele>337.56</ele>
        <time>2013-07-14T08:13:14Z</time>
      </trkpt>
      <trkpt lat="41.624751264" lon="2.524694890">
        <ele>339.00</ele>
        <time>2013-07-14T08:13:23Z</time>
      </trkpt>
      <trkpt lat="41.624812788" lon="2.524918603">
        <ele>339.48</ele>
        <time>2013-07-14T08:13:32Z</time>
      </trkpt>
      <trkpt lat="41.624901636" lon="2.525113231">
        <ele>340.44</ele>
        <time>2013-07-14T08:13:40Z</time>
      </trkpt>
      <trkpt lat="41.625035914" lon="2.525297213">
        <ele>340.92</ele>
        <time>2013-07-14T08:13:49Z</time>
      </trkpt>
      <trkpt lat="41.625152338" lon="2.525425037">
        <ele>341.41</ele>
        <time>2013-07-14T08:13:55Z</time>
      </trkpt>
      <trkpt lat="41.625271194" lon="2.525557974">
        <ele>341.41</ele>
        <time>2013-07-14T08:14:02Z</time>
      </trkpt>
      <trkpt lat="41.625383092" lon="2.525743717">
        <ele>342.37</ele>
        <time>2013-07-14T08:14:10Z</time>
      </trkpt>
      <trkpt lat="41.625546875" lon="2.526004311">
        <ele>342.85</ele>
        <time>2013-07-14T08:14:20Z</time>
      </trkpt>
      <trkpt lat="41.625766983" lon="2.526187120">
        <ele>342.85</ele>
        <time>2013-07-14T08:14:29Z</time>
      </trkpt>
      <trkpt lat="41.625989355" lon="2.526359452">
        <ele>342.85</ele>
        <time>2013-07-14T08:14:38Z</time>
      </trkpt>
      <trkpt lat="41.626129752" lon="2.526535221">
        <ele>342.85</ele>
        <time>2013-07-14T08:14:46Z</time>
      </trkpt>
      <trkpt lat="41.626241064" lon="2.526712079">
        <ele>343.81</ele>
        <time>2013-07-14T08:14:54Z</time>
      </trkpt>
      <trkpt lat="41.626286075" lon="2.526799334">
        <ele>343.81</ele>
        <time>2013-07-14T08:15:01Z</time>
      </trkpt>
      <trkpt lat="41.626286326" lon="2.526803693">
        <ele>343.81</ele>
        <time>2013-07-14T08:15:07Z</time>
      </trkpt>
      <trkpt lat="41.626289511" lon="2.526799418">
        <ele>343.81</ele>
        <time>2013-07-14T08:15:11Z</time>
      </trkpt>
      <trkpt lat="41.626299402" lon="2.526655501">
        <ele>344.77</ele>
        <time>2013-07-14T08:15:18Z</time>
      </trkpt>
      <trkpt lat="41.626240393" lon="2.526541842">
        <ele>346.69</ele>
        <time>2013-07-14T08:15:25Z</time>
      </trkpt>
      <trkpt lat="41.626223043" lon="2.526510578">
        <ele>346.69</ele>
        <time>2013-07-14T08:15:27Z</time>
      </trkpt>
      <trkpt lat="41.626189934" lon="2.526394656">
        <ele>347.65</ele>
        <time>2013-07-14T08:15:33Z</time>
      </trkpt>
      <trkpt lat="41.626149953" lon="2.526195251">
        <ele>349.10</ele>
        <time>2013-07-14T08:15:43Z</time>
      </trkpt>
      <trkpt lat="41.626062446" lon="2.526057201">
        <ele>351.50</ele>
        <time>2013-07-14T08:15:52Z</time>
      </trkpt>
      <trkpt lat="41.625980387" lon="2.525934154">
        <ele>352.94</ele>
        <time>2013-07-14T08:16:01Z</time>
      </trkpt>
      <trkpt lat="41.625907213" lon="2.525834745">
        <ele>355.34</ele>
        <time>2013-07-14T08:16:09Z</time>
      </trkpt>
      <trkpt lat="41.625850048" lon="2.525781352">
        <ele>357.27</ele>
        <time>2013-07-14T08:16:14Z</time>
      </trkpt>
      <trkpt lat="41.625803612" lon="2.525724104">
        <ele>358.23</ele>
        <time>2013-07-14T08:16:19Z</time>
      </trkpt>
      <trkpt lat="41.625761870" lon="2.525594100">
        <ele>359.67</ele>
        <time>2013-07-14T08:16:27Z</time>
      </trkpt>
      <trkpt lat="41.625750806" lon="2.525541546">
        <ele>361.11</ele>
        <time>2013-07-14T08:16:35Z</time>
      </trkpt>
      <trkpt lat="41.625760026" lon="2.525478514">
        <ele>362.07</ele>
        <time>2013-07-14T08:16:43Z</time>
      </trkpt>
      <trkpt lat="41.625749381" lon="2.525434341">
        <ele>362.55</ele>
        <time>2013-07-14T08:16:49Z</time>
      </trkpt>
      <trkpt lat="41.625667993" lon="2.525322778">
        <ele>363.04</ele>
        <time>2013-07-14T08:16:58Z</time>
      </trkpt>
      <trkpt lat="41.625566321" lon="2.525130246">
        <ele>364.48</ele>
        <time>2013-07-14T08:17:10Z</time>
      </trkpt>
      <trkpt lat="41.625526926" lon="2.524997309">
        <ele>365.92</ele>
        <time>2013-07-14T08:17:18Z</time>
      </trkpt>
      <trkpt lat="41.625484513" lon="2.524863701">
        <ele>367.36</ele>
        <time>2013-07-14T08:17:26Z</time>
      </trkpt>
      <trkpt lat="41.625428690" lon="2.524677875">
        <ele>369.28</ele>
        <time>2013-07-14T08:17:37Z</time>
      </trkpt>
      <trkpt lat="41.625364987" lon="2.524537981">
        <ele>370.73</ele>
        <time>2013-07-14T08:17:46Z</time>
      </trkpt>
      <trkpt lat="41.625296591" lon="2.524381407">
        <ele>371.21</ele>
        <time>2013-07-14T08:17:54Z</time>
      </trkpt>
      <trkpt lat="41.625223501" lon="2.524182756">
        <ele>371.69</ele>
        <time>2013-07-14T08:18:03Z</time>
      </trkpt>
      <trkpt lat="41.625135575" lon="2.523875894">
        <ele>371.69</ele>
        <time>2013-07-14T08:18:14Z</time>
      </trkpt>
      <trkpt lat="41.625073213" lon="2.523582192">
        <ele>371.69</ele>
        <time>2013-07-14T08:18:23Z</time>
      </trkpt>
      <trkpt lat="41.624929380" lon="2.523312630">
        <ele>371.69</ele>
        <time>2013-07-14T08:18:33Z</time>
      </trkpt>
      <trkpt lat="41.624822594" lon="2.523074836">
        <ele>371.69</ele>
        <time>2013-07-14T08:18:39Z</time>
      </trkpt>
      <trkpt lat="41.624754282" lon="2.522961512">
        <ele>370.73</ele>
        <time>2013-07-14T08:18:42Z</time>
      </trkpt>
      <trkpt lat="41.624642635" lon="2.522781469">
        <ele>369.28</ele>
        <time>2013-07-14T08:18:47Z</time>
      </trkpt>
      <trkpt lat="41.624510871" lon="2.522588601">
        <ele>366.88</ele>
        <time>2013-07-14T08:18:51Z</time>
      </trkpt>
      <trkpt lat="41.624388328" lon="2.522222983">
        <ele>365.44</ele>
        <time>2013-07-14T08:18:58Z</time>
      </trkpt>
      <trkpt lat="41.624386735" lon="2.522047131">
        <ele>363.52</ele>
        <time>2013-07-14T08:19:02Z</time>
      </trkpt>
      <trkpt lat="41.624429902" lon="2.521804391">
        <ele>362.55</ele>
        <time>2013-07-14T08:19:06Z</time>
      </trkpt>
      <trkpt lat="41.624596199" lon="2.521569027">
        <ele>360.63</ele>
        <time>2013-07-14T08:19:11Z</time>
      </trkpt>
      <trkpt lat="41.624712037" lon="2.521510102">
        <ele>360.15</ele>
        <time>2013-07-14T08:19:14Z</time>
      </trkpt>
      <trkpt lat="41.624963829" lon="2.521450758">
        <ele>359.19</ele>
        <time>2013-07-14T08:19:21Z</time>
      </trkpt>
      <trkpt lat="41.624996938" lon="2.521446819">
        <ele>359.19</ele>
        <time>2013-07-14T08:19:22Z</time>
      </trkpt>
      <trkpt lat="41.625165917" lon="2.521282282">
        <ele>358.71</ele>
        <time>2013-07-14T08:19:28Z</time>
      </trkpt>
      <trkpt lat="41.625294076" lon="2.521208270">
        <ele>360.15</ele>
        <time>2013-07-14T08:19:34Z</time>
      </trkpt>
      <trkpt lat="41.625454506" lon="2.521100395">
        <ele>362.55</ele>
        <time>2013-07-14T08:19:43Z</time>
      </trkpt>
      <trkpt lat="41.625535978" lon="2.520942815">
        <ele>363.04</ele>
        <time>2013-07-14T08:19:51Z</time>
      </trkpt>
      <trkpt lat="41.625519717" lon="2.520815745">
        <ele>364.00</ele>
        <time>2013-07-14T08:19:57Z</time>
      </trkpt>
      <trkpt lat="41.625466911" lon="2.520658165">
        <ele>365.44</ele>
        <time>2013-07-14T08:20:05Z</time>
      </trkpt>
      <trkpt lat="41.625418380" lon="2.520433027">
        <ele>366.88</ele>
        <time>2013-07-14T08:20:15Z</time>
      </trkpt>
      <trkpt lat="41.625386613" lon="2.520239825">
        <ele>368.32</ele>
        <time>2013-07-14T08:20:24Z</time>
      </trkpt>
      <trkpt lat="41.625336237" lon="2.520003455">
        <ele>368.80</ele>
        <time>2013-07-14T08:20:33Z</time>
      </trkpt>
      <trkpt lat="41.625384685" lon="2.519826681">
        <ele>369.28</ele>
        <time>2013-07-14T08:20:40Z</time>
      </trkpt>
      <trkpt lat="41.625522316" lon="2.519717716">
        <ele>369.28</ele>
        <time>2013-07-14T08:20:48Z</time>
      </trkpt>
      <trkpt lat="41.625644021" lon="2.519657031">
        <ele>369.28</ele>
        <time>2013-07-14T08:20:55Z</time>
      </trkpt>
      <trkpt lat="41.625750890" lon="2.519543707">
        <ele>369.28</ele>
        <time>2013-07-14T08:21:02Z</time>
      </trkpt>
      <trkpt lat="41.625823813" lon="2.519371543">
        <ele>369.76</ele>
        <time>2013-07-14T08:21:09Z</time>
      </trkpt>
      <trkpt lat="41.625815598" lon="2.519198373">
        <ele>368.32</ele>
        <time>2013-07-14T08:21:15Z</time>
      </trkpt>
      <trkpt lat="41.625707975" lon="2.518952197">
        <ele>367.84</ele>
        <time>2013-07-14T08:21:23Z</time>
      </trkpt>
      <trkpt lat="41.625642093" lon="2.518758826">
        <ele>366.40</ele>
        <time>2013-07-14T08:21:29Z</time>
      </trkpt>
      <trkpt lat="41.625629604" lon="2.518713312">
        <ele>365.92</ele>
        <time>2013-07-14T08:21:30Z</time>
      </trkpt>
      <trkpt lat="41.625587946" lon="2.518405277">
        <ele>364.00</ele>
        <time>2013-07-14T08:21:36Z</time>
      </trkpt>
      <trkpt lat="41.625572859" lon="2.518311903">
        <ele>363.04</ele>
        <time>2013-07-14T08:21:40Z</time>
      </trkpt>
      <trkpt lat="41.625453416" lon="2.518087100">
        <ele>361.59</ele>
        <time>2013-07-14T08:21:47Z</time>
      </trkpt>
      <trkpt lat="41.625430366" lon="2.517968413">
        <ele>360.15</ele>
        <time>2013-07-14T08:21:51Z</time>
      </trkpt>
      <trkpt lat="41.625402957" lon="2.517785939">
        <ele>358.71</ele>
        <time>2013-07-14T08:21:56Z</time>
      </trkpt>
      <trkpt lat="41.625333807" lon="2.517606817">
        <ele>356.79</ele>
        <time>2013-07-14T08:22:02Z</time>
      </trkpt>
      <trkpt lat="41.625164995" lon="2.517516125">
        <ele>354.86</ele>
        <time>2013-07-14T08:22:08Z</time>
      </trkpt>
      <trkpt lat="41.624954023" lon="2.517383859">
        <ele>354.38</ele>
        <time>2013-07-14T08:22:15Z</time>
      </trkpt>
      <trkpt lat="41.624793677" lon="2.517281013">
        <ele>353.90</ele>
        <time>2013-07-14T08:22:22Z</time>
      </trkpt>
      <trkpt lat="41.624611957" lon="2.517252766">
        <ele>354.38</ele>
        <time>2013-07-14T08:22:30Z</time>
      </trkpt>
      <trkpt lat="41.624467202" lon="2.517237008">
        <ele>355.34</ele>
        <time>2013-07-14T08:22:37Z</time>
      </trkpt>
      <trkpt lat="41.624289170" lon="2.517248407">
        <ele>356.79</ele>
        <time>2013-07-14T08:22:46Z</time>
      </trkpt>
      <trkpt lat="41.624157490" lon="2.517254945">
        <ele>357.75</ele>
        <time>2013-07-14T08:22:53Z</time>
      </trkpt>
      <trkpt lat="41.624135278" lon="2.517190656">
        <ele>358.71</ele>
        <time>2013-07-14T08:22:58Z</time>
      </trkpt>
      <trkpt lat="41.624262348" lon="2.517123517">
        <ele>360.63</ele>
        <time>2013-07-14T08:23:07Z</time>
      </trkpt>
      <trkpt lat="41.624275759" lon="2.517116392">
        <ele>360.63</ele>
        <time>2013-07-14T08:23:08Z</time>
      </trkpt>
      <trkpt lat="41.624362009" lon="2.517075656">
        <ele>362.55</ele>
        <time>2013-07-14T08:23:15Z</time>
      </trkpt>
      <trkpt lat="41.624485726" lon="2.517046403">
        <ele>364.48</ele>
        <time>2013-07-14T08:23:24Z</time>
      </trkpt>
      <trkpt lat="41.624607431" lon="2.517011115">
        <ele>365.92</ele>
        <time>2013-07-14T08:23:33Z</time>
      </trkpt>
      <trkpt lat="41.624674486" lon="2.516974067">
        <ele>366.88</ele>
        <time>2013-07-14T08:23:38Z</time>
      </trkpt>
      <trkpt lat="41.624747409" lon="2.516970798">
        <ele>367.36</ele>
        <time>2013-07-14T08:23:43Z</time>
      </trkpt>
      <trkpt lat="41.624883782" lon="2.516982868">
        <ele>368.80</ele>
        <time>2013-07-14T08:23:53Z</time>
      </trkpt>
      <trkpt lat="41.624994675" lon="2.517012205">
        <ele>369.76</ele>
        <time>2013-07-14T08:24:01Z</time>
      </trkpt>
      <trkpt lat="41.625061479" lon="2.517044559">
        <ele>371.21</ele>
        <time>2013-07-14T08:24:06Z</time>
      </trkpt>
      <trkpt lat="41.625205312" lon="2.517115303">
        <ele>372.17</ele>
        <time>2013-07-14T08:24:17Z</time>
      </trkpt>
      <trkpt lat="41.625303883" lon="2.517168276">
        <ele>374.09</ele>
        <time>2013-07-14T08:24:25Z</time>
      </trkpt>
      <trkpt lat="41.625400946" lon="2.517220579">
        <ele>375.05</ele>
        <time>2013-07-14T08:24:34Z</time>
      </trkpt>
      <trkpt lat="41.625425924" lon="2.517230973">
        <ele>375.05</ele>
        <time>2013-07-14T08:24:36Z</time>
      </trkpt>
      <trkpt lat="41.625494655" lon="2.517270116">
        <ele>376.01</ele>
        <time>2013-07-14T08:24:42Z</time>
      </trkpt>
      <trkpt lat="41.625608314" lon="2.517381847">
        <ele>378.90</ele>
        <time>2013-07-14T08:24:54Z</time>
      </trkpt>
      <trkpt lat="41.625639159" lon="2.517417470">
        <ele>379.38</ele>
        <time>2013-07-14T08:24:58Z</time>
      </trkpt>
      <trkpt lat="41.625648463" lon="2.517441275">
        <ele>379.86</ele>
        <time>2013-07-14T08:25:00Z</time>
      </trkpt>
      <trkpt lat="41.625672100" lon="2.517473545">
        <ele>380.34</ele>
        <time>2013-07-14T08:25:03Z</time>
      </trkpt>
      <trkpt lat="41.625726247" lon="2.517578486">
        <ele>382.26</ele>
        <time>2013-07-14T08:25:12Z</time>
      </trkpt>
      <trkpt lat="41.625778550" lon="2.517638920">
        <ele>382.74</ele>
        <time>2013-07-14T08:25:21Z</time>
      </trkpt>
      <trkpt lat="41.625796152" lon="2.517674124">
        <ele>383.22</ele>
        <time>2013-07-14T08:25:26Z</time>
      </trkpt>
      <trkpt lat="41.625821382" lon="2.517745873">
        <ele>384.18</ele>
        <time>2013-07-14T08:25:31Z</time>
      </trkpt>
      <trkpt lat="41.625844600" lon="2.517846288">
        <ele>385.63</ele>
        <time>2013-07-14T08:25:39Z</time>
      </trkpt>
      <trkpt lat="41.625872763" lon="2.517987607">
        <ele>387.55</ele>
        <time>2013-07-14T08:25:48Z</time>
      </trkpt>
      <trkpt lat="41.625914673" lon="2.518125406">
        <ele>388.51</ele>
        <time>2013-07-14T08:25:56Z</time>
      </trkpt>
      <trkpt lat="41.625937555" lon="2.518223725">
        <ele>389.95</ele>
        <time>2013-07-14T08:26:02Z</time>
      </trkpt>
      <trkpt lat="41.625994049" lon="2.518395471">
        <ele>391.87</ele>
        <time>2013-07-14T08:26:12Z</time>
      </trkpt>
      <trkpt lat="41.626059428" lon="2.518541567">
        <ele>394.28</ele>
        <time>2013-07-14T08:26:21Z</time>
      </trkpt>
      <trkpt lat="41.626083819" lon="2.518586075">
        <ele>395.24</ele>
        <time>2013-07-14T08:26:24Z</time>
      </trkpt>
      <trkpt lat="41.626131261" lon="2.518697135">
        <ele>396.68</ele>
        <time>2013-07-14T08:26:31Z</time>
      </trkpt>
      <trkpt lat="41.626199406" lon="2.518835185">
        <ele>398.60</ele>
        <time>2013-07-14T08:26:40Z</time>
      </trkpt>
      <trkpt lat="41.626241231" lon="2.518906264">
        <ele>399.57</ele>
        <time>2013-07-14T08:26:45Z</time>
      </trkpt>
      <trkpt lat="41.626311975" lon="2.519021431">
        <ele>401.01</ele>
        <time>2013-07-14T08:26:54Z</time>
      </trkpt>
      <trkpt lat="41.626368972" lon="2.519123523">
        <ele>402.93</ele>
        <time>2013-07-14T08:27:03Z</time>
      </trkpt>
      <trkpt lat="41.626423873" lon="2.519250676">
        <ele>404.37</ele>
        <time>2013-07-14T08:27:12Z</time>
      </trkpt>
      <trkpt lat="41.626454216" lon="2.519320162">
        <ele>405.81</ele>
        <time>2013-07-14T08:27:17Z</time>
      </trkpt>
      <trkpt lat="41.626480870" lon="2.519352600">
        <ele>406.29</ele>
        <time>2013-07-14T08:27:20Z</time>
      </trkpt>
      <trkpt lat="41.626523618" lon="2.519481514">
        <ele>408.70</ele>
        <time>2013-07-14T08:27:29Z</time>
      </trkpt>
      <trkpt lat="41.626565444" lon="2.519578828">
        <ele>410.14</ele>
        <time>2013-07-14T08:27:36Z</time>
      </trkpt>
      <trkpt lat="41.626610035" lon="2.519719811">
        <ele>411.58</ele>
        <time>2013-07-14T08:27:45Z</time>
      </trkpt>
      <trkpt lat="41.626623614" lon="2.519811258">
        <ele>413.02</ele>
        <time>2013-07-14T08:27:51Z</time>
      </trkpt>
      <trkpt lat="41.626608946" lon="2.519971604">
        <ele>415.43</ele>
        <time>2013-07-14T08:28:02Z</time>
      </trkpt>
      <trkpt lat="41.626563599" lon="2.520068247">
        <ele>416.87</ele>
        <time>2013-07-14T08:28:11Z</time>
      </trkpt>
      <trkpt lat="41.626581034" lon="2.520149719">
        <ele>417.83</ele>
        <time>2013-07-14T08:28:17Z</time>
      </trkpt>
      <trkpt lat="41.626619423" lon="2.520102194">
        <ele>417.83</ele>
        <time>2013-07-14T08:28:25Z</time>
      </trkpt>
      <trkpt lat="41.626665104" lon="2.520038994">
        <ele>417.83</ele>
        <time>2013-07-14T08:28:33Z</time>
      </trkpt>
      <trkpt lat="41.626663763" lon="2.520033965">
        <ele>418.31</ele>
        <time>2013-07-14T08:28:49Z</time>
      </trkpt>
      <trkpt lat="41.626656220" lon="2.520018626">
        <ele>418.31</ele>
        <time>2013-07-14T08:29:01Z</time>
      </trkpt>
      <trkpt lat="41.626698380" lon="2.519929107">
        <ele>418.31</ele>
        <time>2013-07-14T08:29:06Z</time>
      </trkpt>
      <trkpt lat="41.626711037" lon="2.519892311">
        <ele>418.31</ele>
        <time>2013-07-14T08:29:08Z</time>
      </trkpt>
      <trkpt lat="41.626746241" lon="2.519709837">
        <ele>418.31</ele>
        <time>2013-07-14T08:29:16Z</time>
      </trkpt>
      <trkpt lat="41.626729813" lon="2.519557370">
        <ele>418.31</ele>
        <time>2013-07-14T08:29:23Z</time>
      </trkpt>
      <trkpt lat="41.626721766" lon="2.519464247">
        <ele>418.79</ele>
        <time>2013-07-14T08:29:27Z</time>
      </trkpt>
      <trkpt lat="41.626702152" lon="2.519302895">
        <ele>419.75</ele>
        <time>2013-07-14T08:29:35Z</time>
      </trkpt>
      <trkpt lat="41.626702236" lon="2.519255705">
        <ele>420.23</ele>
        <time>2013-07-14T08:29:37Z</time>
      </trkpt>
      <trkpt lat="41.626698883" lon="2.519165516">
        <ele>420.71</ele>
        <time>2013-07-14T08:29:41Z</time>
      </trkpt>
      <trkpt lat="41.626657728" lon="2.518992178">
        <ele>421.68</ele>
        <time>2013-07-14T08:29:50Z</time>
      </trkpt>
      <trkpt lat="41.626589751" lon="2.518792689">
        <ele>422.16</ele>
        <time>2013-07-14T08:29:58Z</time>
      </trkpt>
      <trkpt lat="41.626539627" lon="2.518630918">
        <ele>422.16</ele>
        <time>2013-07-14T08:30:02Z</time>
      </trkpt>
      <trkpt lat="41.626538538" lon="2.518205034">
        <ele>420.71</ele>
        <time>2013-07-14T08:30:09Z</time>
      </trkpt>
      <trkpt lat="41.626535688" lon="2.517786861">
        <ele>420.23</ele>
        <time>2013-07-14T08:30:18Z</time>
      </trkpt>
      <trkpt lat="41.626529988" lon="2.517633807">
        <ele>421.68</ele>
        <time>2013-07-14T08:30:22Z</time>
      </trkpt>
      <trkpt lat="41.626550859" lon="2.517371537">
        <ele>423.12</ele>
        <time>2013-07-14T08:30:30Z</time>
      </trkpt>
      <trkpt lat="41.626602827" lon="2.517088229">
        <ele>424.56</ele>
        <time>2013-07-14T08:30:39Z</time>
      </trkpt>
      <trkpt lat="41.626632918" lon="2.516885806">
        <ele>425.52</ele>
        <time>2013-07-14T08:30:46Z</time>
      </trkpt>
      <trkpt lat="41.626653286" lon="2.516672822">
        <ele>426.48</ele>
        <time>2013-07-14T08:30:54Z</time>
      </trkpt>
      <trkpt lat="41.626680946" lon="2.516456066">
        <ele>427.92</ele>
        <time>2013-07-14T08:31:02Z</time>
      </trkpt>
      <trkpt lat="41.626725706" lon="2.516227156">
        <ele>428.89</ele>
        <time>2013-07-14T08:31:10Z</time>
      </trkpt>
      <trkpt lat="41.626757641" lon="2.515996821">
        <ele>430.33</ele>
        <time>2013-07-14T08:31:18Z</time>
      </trkpt>
      <trkpt lat="41.626806507" lon="2.515797081">
        <ele>431.77</ele>
        <time>2013-07-14T08:31:25Z</time>
      </trkpt>
      <trkpt lat="41.626914717" lon="2.515650481">
        <ele>433.21</ele>
        <time>2013-07-14T08:31:33Z</time>
      </trkpt>
      <trkpt lat="41.627052516" lon="2.515517125">
        <ele>434.17</ele>
        <time>2013-07-14T08:31:41Z</time>
      </trkpt>
      <trkpt lat="41.627153099" lon="2.515397012">
        <ele>435.13</ele>
        <time>2013-07-14T08:31:49Z</time>
      </trkpt>
      <trkpt lat="41.627188973" lon="2.515378907">
        <ele>436.10</ele>
        <time>2013-07-14T08:31:52Z</time>
      </trkpt>
      <trkpt lat="41.627292406" lon="2.515298357">
        <ele>437.54</ele>
        <time>2013-07-14T08:32:00Z</time>
      </trkpt>
      <trkpt lat="41.627392821" lon="2.515217388">
        <ele>439.94</ele>
        <time>2013-07-14T08:32:08Z</time>
      </trkpt>
      <trkpt lat="41.627404472" lon="2.515204229">
        <ele>439.94</ele>
        <time>2013-07-14T08:32:09Z</time>
      </trkpt>
      <trkpt lat="41.627526848" lon="2.515097359">
        <ele>443.31</ele>
        <time>2013-07-14T08:32:20Z</time>
      </trkpt>
      <trkpt lat="41.627631119" lon="2.515017144">
        <ele>445.23</ele>
        <time>2013-07-14T08:32:29Z</time>
      </trkpt>
      <trkpt lat="41.627739916" lon="2.514947491">
        <ele>446.67</ele>
        <time>2013-07-14T08:32:38Z</time>
      </trkpt>
      <trkpt lat="41.627765397" lon="2.514932487">
        <ele>447.63</ele>
        <time>2013-07-14T08:32:40Z</time>
      </trkpt>
      <trkpt lat="41.627914595" lon="2.514934499">
        <ele>447.63</ele>
        <time>2013-07-14T08:32:49Z</time>
      </trkpt>
      <trkpt lat="41.627932113" lon="2.514931481">
        <ele>447.63</ele>
        <time>2013-07-14T08:32:50Z</time>
      </trkpt>
      <trkpt lat="41.628107462" lon="2.514928296">
        <ele>447.63</ele>
        <time>2013-07-14T08:32:58Z</time>
      </trkpt>
      <trkpt lat="41.628145013" lon="2.514923435">
        <ele>447.63</ele>
        <time>2013-07-14T08:32:59Z</time>
      </trkpt>
      <trkpt lat="41.628364200" lon="2.514968949">
        <ele>445.71</ele>
        <time>2013-07-14T08:33:04Z</time>
      </trkpt>
      <trkpt lat="41.628585650" lon="2.515193500">
        <ele>442.82</ele>
        <time>2013-07-14T08:33:11Z</time>
      </trkpt>
      <trkpt lat="41.628773907" lon="2.515348397">
        <ele>439.94</ele>
        <time>2013-07-14T08:33:16Z</time>
      </trkpt>
      <trkpt lat="41.628938863" lon="2.515470773">
        <ele>435.61</ele>
        <time>2013-07-14T08:33:21Z</time>
      </trkpt>
      <trkpt lat="41.628963590" lon="2.515477479">
        <ele>435.61</ele>
        <time>2013-07-14T08:33:22Z</time>
      </trkpt>
      <trkpt lat="41.628992507" lon="2.515492482">
        <ele>434.17</ele>
        <time>2013-07-14T08:33:24Z</time>
      </trkpt>
      <trkpt lat="41.629075740" lon="2.515547803">
        <ele>432.25</ele>
        <time>2013-07-14T08:33:29Z</time>
      </trkpt>
      <trkpt lat="41.629187973" lon="2.515556688">
        <ele>430.33</ele>
        <time>2013-07-14T08:33:35Z</time>
      </trkpt>
      <trkpt lat="41.629333651" lon="2.515626509">
        <ele>428.40</ele>
        <time>2013-07-14T08:33:41Z</time>
      </trkpt>
      <trkpt lat="41.629428618" lon="2.515604800">
        <ele>426.96</ele>
        <time>2013-07-14T08:33:44Z</time>
      </trkpt>
      <trkpt lat="41.629469186" lon="2.515599016">
        <ele>426.48</ele>
        <time>2013-07-14T08:33:45Z</time>
      </trkpt>
      <trkpt lat="41.629574966" lon="2.515616534">
        <ele>426.00</ele>
        <time>2013-07-14T08:33:47Z</time>
      </trkpt>
      <trkpt lat="41.629712932" lon="2.515619384">
        <ele>424.08</ele>
        <time>2013-07-14T08:33:50Z</time>
      </trkpt>
      <trkpt lat="41.629937902" lon="2.515545623">
        <ele>422.64</ele>
        <time>2013-07-14T08:33:55Z</time>
      </trkpt>
      <trkpt lat="41.630073773" lon="2.515562303">
        <ele>421.68</ele>
        <time>2013-07-14T08:33:59Z</time>
      </trkpt>
      <trkpt lat="41.630096907" lon="2.515571524">
        <ele>421.68</ele>
        <time>2013-07-14T08:34:01Z</time>
      </trkpt>
      <trkpt lat="41.630144935" lon="2.515644278">
        <ele>420.71</ele>
        <time>2013-07-14T08:34:05Z</time>
      </trkpt>
      <trkpt lat="41.630169159" lon="2.515700437">
        <ele>419.75</ele>
        <time>2013-07-14T08:34:07Z</time>
      </trkpt>
      <trkpt lat="41.630292205" lon="2.515897915">
        <ele>417.35</ele>
        <time>2013-07-14T08:34:12Z</time>
      </trkpt>
      <trkpt lat="41.630434362" lon="2.515955666">
        <ele>413.98</ele>
        <time>2013-07-14T08:34:17Z</time>
      </trkpt>
      <trkpt lat="41.630478451" lon="2.515937142">
        <ele>413.02</ele>
        <time>2013-07-14T08:34:18Z</time>
      </trkpt>
      <trkpt lat="41.630643659" lon="2.515894478">
        <ele>411.58</ele>
        <time>2013-07-14T08:34:21Z</time>
      </trkpt>
      <trkpt lat="41.630814733" lon="2.515777048">
        <ele>409.18</ele>
        <time>2013-07-14T08:34:25Z</time>
      </trkpt>
      <trkpt lat="41.630942473" lon="2.515565237">
        <ele>405.33</ele>
        <time>2013-07-14T08:34:29Z</time>
      </trkpt>
      <trkpt lat="41.630987652" lon="2.515431378">
        <ele>404.37</ele>
        <time>2013-07-14T08:34:31Z</time>
      </trkpt>
      <trkpt lat="41.631099466" lon="2.515152596">
        <ele>401.97</ele>
        <time>2013-07-14T08:34:35Z</time>
      </trkpt>
      <trkpt lat="41.631269619" lon="2.514954783">
        <ele>398.12</ele>
        <time>2013-07-14T08:34:40Z</time>
      </trkpt>
      <trkpt lat="41.631305158" lon="2.514930895">
        <ele>397.16</ele>
        <time>2013-07-14T08:34:41Z</time>
      </trkpt>
      <trkpt lat="41.631491739" lon="2.514810447">
        <ele>394.28</ele>
        <time>2013-07-14T08:34:45Z</time>
      </trkpt>
      <trkpt lat="41.631667340" lon="2.514704500">
        <ele>392.36</ele>
        <time>2013-07-14T08:34:48Z</time>
      </trkpt>
      <trkpt lat="41.631774796" lon="2.514660746">
        <ele>390.91</ele>
        <time>2013-07-14T08:34:50Z</time>
      </trkpt>
      <trkpt lat="41.631835314" lon="2.514641216">
        <ele>390.43</ele>
        <time>2013-07-14T08:34:51Z</time>
      </trkpt>
      <trkpt lat="41.632099679" lon="2.514605090">
        <ele>388.51</ele>
        <time>2013-07-14T08:34:55Z</time>
      </trkpt>
      <trkpt lat="41.632430596" lon="2.514697962">
        <ele>384.66</ele>
        <time>2013-07-14T08:35:00Z</time>
      </trkpt>
      <trkpt lat="41.632632181" lon="2.514851770">
        <ele>382.74</ele>
        <time>2013-07-14T08:35:03Z</time>
      </trkpt>
      <trkpt lat="41.632855224" lon="2.514986131">
        <ele>380.82</ele>
        <time>2013-07-14T08:35:06Z</time>
      </trkpt>
      <trkpt lat="41.633085475" lon="2.515037932">
        <ele>379.86</ele>
        <time>2013-07-14T08:35:09Z</time>
      </trkpt>
      <trkpt lat="41.633352271" lon="2.515048828">
        <ele>378.42</ele>
        <time>2013-07-14T08:35:13Z</time>
      </trkpt>
      <trkpt lat="41.633488476" lon="2.515003566">
        <ele>377.45</ele>
        <time>2013-07-14T08:35:15Z</time>
      </trkpt>
      <trkpt lat="41.633598615" lon="2.514887644">
        <ele>376.49</ele>
        <time>2013-07-14T08:35:17Z</time>
      </trkpt>
      <trkpt lat="41.633858705" lon="2.514775997">
        <ele>373.61</ele>
        <time>2013-07-14T08:35:21Z</time>
      </trkpt>
      <trkpt lat="41.633936489" lon="2.514789073">
        <ele>373.61</ele>
        <time>2013-07-14T08:35:22Z</time>
      </trkpt>
      <trkpt lat="41.634266066" lon="2.514814051">
        <ele>370.24</ele>
        <time>2013-07-14T08:35:26Z</time>
      </trkpt>
      <trkpt lat="41.634456754" lon="2.514695531">
        <ele>368.80</ele>
        <time>2013-07-14T08:35:29Z</time>
      </trkpt>
      <trkpt lat="41.634662278" lon="2.514658902">
        <ele>366.40</ele>
        <time>2013-07-14T08:35:32Z</time>
      </trkpt>
      <trkpt lat="41.634811895" lon="2.514689999">
        <ele>364.00</ele>
        <time>2013-07-14T08:35:34Z</time>
      </trkpt>
      <trkpt lat="41.634948101" lon="2.514699303">
        <ele>362.07</ele>
        <time>2013-07-14T08:35:36Z</time>
      </trkpt>
      <trkpt lat="41.635144908" lon="2.514829474">
        <ele>357.75</ele>
        <time>2013-07-14T08:35:40Z</time>
      </trkpt>
      <trkpt lat="41.635231493" lon="2.514924524">
        <ele>356.31</ele>
        <time>2013-07-14T08:35:43Z</time>
      </trkpt>
      <trkpt lat="41.635357808" lon="2.514858559">
        <ele>352.94</ele>
        <time>2013-07-14T08:35:50Z</time>
      </trkpt>
      <trkpt lat="41.635482447" lon="2.514792258">
        <ele>349.10</ele>
        <time>2013-07-14T08:35:56Z</time>
      </trkpt>
      <trkpt lat="41.635500888" lon="2.514779685">
        <ele>349.10</ele>
        <time>2013-07-14T08:35:57Z</time>
      </trkpt>
      <trkpt lat="41.635640949" lon="2.514822098">
        <ele>344.77</ele>
        <time>2013-07-14T08:36:03Z</time>
      </trkpt>
      <trkpt lat="41.635670202" lon="2.514839783">
        <ele>344.29</ele>
        <time>2013-07-14T08:36:04Z</time>
      </trkpt>
      <trkpt lat="41.635844546" lon="2.514949251">
        <ele>340.92</ele>
        <time>2013-07-14T08:36:11Z</time>
      </trkpt>
      <trkpt lat="41.636002125" lon="2.514995603">
        <ele>339.00</ele>
        <time>2013-07-14T08:36:15Z</time>
      </trkpt>
      <trkpt lat="41.636164567" lon="2.515111106">
        <ele>337.08</ele>
        <time>2013-07-14T08:36:19Z</time>
      </trkpt>
      <trkpt lat="41.636249727" lon="2.515213700">
        <ele>335.64</ele>
        <time>2013-07-14T08:36:21Z</time>
      </trkpt>
      <trkpt lat="41.636564467" lon="2.515356695">
        <ele>332.75</ele>
        <time>2013-07-14T08:36:26Z</time>
      </trkpt>
      <trkpt lat="41.636608891" lon="2.515364658">
        <ele>331.79</ele>
        <time>2013-07-14T08:36:27Z</time>
      </trkpt>
      <trkpt lat="41.636824893" lon="2.515401203">
        <ele>330.35</ele>
        <time>2013-07-14T08:36:34Z</time>
      </trkpt>
      <trkpt lat="41.637098059" lon="2.515356444">
        <ele>329.87</ele>
        <time>2013-07-14T08:36:42Z</time>
      </trkpt>
      <trkpt lat="41.637267960" lon="2.515288634">
        <ele>329.87</ele>
        <time>2013-07-14T08:36:47Z</time>
      </trkpt>
      <trkpt lat="41.637495445" lon="2.515110184">
        <ele>331.31</ele>
        <time>2013-07-14T08:36:56Z</time>
      </trkpt>
      <trkpt lat="41.637517573" lon="2.515090486">
        <ele>331.31</ele>
        <time>2013-07-14T08:36:57Z</time>
      </trkpt>
      <trkpt lat="41.637552107" lon="2.515073387">
        <ele>331.79</ele>
        <time>2013-07-14T08:36:59Z</time>
      </trkpt>
      <trkpt lat="41.637611367" lon="2.515078500">
        <ele>332.27</ele>
        <time>2013-07-14T08:37:06Z</time>
      </trkpt>
      <trkpt lat="41.637607763" lon="2.515091073">
        <ele>332.27</ele>
        <time>2013-07-14T08:37:18Z</time>
      </trkpt>
      <trkpt lat="41.637613211" lon="2.515093587">
        <ele>332.27</ele>
        <time>2013-07-14T08:37:29Z</time>
      </trkpt>
      <trkpt lat="41.637621006" lon="2.515096270">
        <ele>332.27</ele>
        <time>2013-07-14T08:37:41Z</time>
      </trkpt>
      <trkpt lat="41.637616228" lon="2.515100796">
        <ele>332.27</ele>
        <time>2013-07-14T08:37:53Z</time>
      </trkpt>
      <trkpt lat="41.637605919" lon="2.515103059">
        <ele>332.27</ele>
        <time>2013-07-14T08:38:07Z</time>
      </trkpt>
      <trkpt lat="41.637622934" lon="2.515086714">
        <ele>332.27</ele>
        <time>2013-07-14T08:38:20Z</time>
      </trkpt>
      <trkpt lat="41.637759475" lon="2.515085876">
        <ele>332.75</ele>
        <time>2013-07-14T08:38:26Z</time>
      </trkpt>
      <trkpt lat="41.637893167" lon="2.515079673">
        <ele>331.31</ele>
        <time>2013-07-14T08:38:31Z</time>
      </trkpt>
      <trkpt lat="41.638125010" lon="2.515162487">
        <ele>330.83</ele>
        <time>2013-07-14T08:38:38Z</time>
      </trkpt>
      <trkpt lat="41.638360541" lon="2.515062910">
        <ele>332.27</ele>
        <time>2013-07-14T08:38:46Z</time>
      </trkpt>
      <trkpt lat="41.638525330" lon="2.514918657">
        <ele>333.71</ele>
        <time>2013-07-14T08:38:54Z</time>
      </trkpt>
      <trkpt lat="41.638681652" lon="2.514819499">
        <ele>335.16</ele>
        <time>2013-07-14T08:39:02Z</time>
      </trkpt>
      <trkpt lat="41.638820121" lon="2.514731908">
        <ele>335.64</ele>
        <time>2013-07-14T08:39:09Z</time>
      </trkpt>
      <trkpt lat="41.638985580" lon="2.514580280">
        <ele>336.12</ele>
        <time>2013-07-14T08:39:17Z</time>
      </trkpt>
      <trkpt lat="41.639166378" lon="2.514447091">
        <ele>337.56</ele>
        <time>2013-07-14T08:39:25Z</time>
      </trkpt>
      <trkpt lat="41.639227817" lon="2.514347179">
        <ele>339.48</ele>
        <time>2013-07-14T08:39:31Z</time>
      </trkpt>
      <trkpt lat="41.639339632" lon="2.514184822">
        <ele>341.41</ele>
        <time>2013-07-14T08:39:39Z</time>
      </trkpt>
      <trkpt lat="41.639511796" lon="2.514059428">
        <ele>341.41</ele>
        <time>2013-07-14T08:39:46Z</time>
      </trkpt>
      <trkpt lat="41.639614055" lon="2.513907045">
        <ele>341.89</ele>
        <time>2013-07-14T08:39:52Z</time>
      </trkpt>
      <trkpt lat="41.639693432" lon="2.513783831">
        <ele>341.89</ele>
        <time>2013-07-14T08:39:57Z</time>
      </trkpt>
      <trkpt lat="41.639745819" lon="2.513710573">
        <ele>341.89</ele>
        <time>2013-07-14T08:39:59Z</time>
      </trkpt>
      <trkpt lat="41.639878085" lon="2.513560789">
        <ele>339.96</ele>
        <time>2013-07-14T08:40:03Z</time>
      </trkpt>
      <trkpt lat="41.639937513" lon="2.513447382">
        <ele>338.04</ele>
        <time>2013-07-14T08:40:05Z</time>
      </trkpt>
      <trkpt lat="41.640099619" lon="2.513194919">
        <ele>335.64</ele>
        <time>2013-07-14T08:40:09Z</time>
      </trkpt>
      <trkpt lat="41.640291229" lon="2.512833072">
        <ele>332.75</ele>
        <time>2013-07-14T08:40:14Z</time>
      </trkpt>
      <trkpt lat="41.640471272" lon="2.512365027">
        <ele>330.35</ele>
        <time>2013-07-14T08:40:19Z</time>
      </trkpt>
      <trkpt lat="41.640553080" lon="2.512195964">
        <ele>329.87</ele>
        <time>2013-07-14T08:40:21Z</time>
      </trkpt>
      <trkpt lat="41.640678138" lon="2.512003180">
        <ele>328.43</ele>
        <time>2013-07-14T08:40:24Z</time>
      </trkpt>
      <trkpt lat="41.640745025" lon="2.511769744">
        <ele>326.99</ele>
        <time>2013-07-14T08:40:30Z</time>
      </trkpt>
      <trkpt lat="41.640668750" lon="2.511682656">
        <ele>324.10</ele>
        <time>2013-07-14T08:40:36Z</time>
      </trkpt>
      <trkpt lat="41.640634552" lon="2.511657007">
        <ele>324.10</ele>
        <time>2013-07-14T08:40:38Z</time>
      </trkpt>
      <trkpt lat="41.640583422" lon="2.511613337">
        <ele>323.14</ele>
        <time>2013-07-14T08:40:40Z</time>
      </trkpt>
      <trkpt lat="41.640360715" lon="2.511573859">
        <ele>320.74</ele>
        <time>2013-07-14T08:40:45Z</time>
      </trkpt>
      <trkpt lat="41.640277902" lon="2.511688942">
        <ele>320.26</ele>
        <time>2013-07-14T08:40:48Z</time>
      </trkpt>
      <trkpt lat="41.640159046" lon="2.512008544">
        <ele>320.26</ele>
        <time>2013-07-14T08:40:56Z</time>
      </trkpt>
      <trkpt lat="41.640080340" lon="2.512196802">
        <ele>317.37</ele>
        <time>2013-07-14T08:41:00Z</time>
      </trkpt>
      <trkpt lat="41.640036587" lon="2.512303587">
        <ele>315.45</ele>
        <time>2013-07-14T08:41:02Z</time>
      </trkpt>
      <trkpt lat="41.639977327" lon="2.512424873">
        <ele>312.57</ele>
        <time>2013-07-14T08:41:04Z</time>
      </trkpt>
      <trkpt lat="41.639867356" lon="2.512492431">
        <ele>309.68</ele>
        <time>2013-07-14T08:41:08Z</time>
      </trkpt>
      <trkpt lat="41.639695108" lon="2.512386568">
        <ele>306.32</ele>
        <time>2013-07-14T08:41:13Z</time>
      </trkpt>
      <trkpt lat="41.639481286" lon="2.512435267">
        <ele>305.36</ele>
        <time>2013-07-14T08:41:18Z</time>
      </trkpt>
      <trkpt lat="41.639419679" lon="2.512536520">
        <ele>305.36</ele>
        <time>2013-07-14T08:41:20Z</time>
      </trkpt>
      <trkpt lat="41.639354719" lon="2.512649257">
        <ele>303.91</ele>
        <time>2013-07-14T08:41:22Z</time>
      </trkpt>
      <trkpt lat="41.639214322" lon="2.512732992">
        <ele>302.47</ele>
        <time>2013-07-14T08:41:26Z</time>
      </trkpt>
      <trkpt lat="41.639140394" lon="2.512661662">
        <ele>301.99</ele>
        <time>2013-07-14T08:41:28Z</time>
      </trkpt>
      <trkpt lat="41.639027154" lon="2.512507351">
        <ele>300.55</ele>
        <time>2013-07-14T08:41:31Z</time>
      </trkpt>
      <trkpt lat="41.638924476" lon="2.512340551">
        <ele>298.15</ele>
        <time>2013-07-14T08:41:34Z</time>
      </trkpt>
      <trkpt lat="41.638855577" lon="2.512251368">
        <ele>297.18</ele>
        <time>2013-07-14T08:41:36Z</time>
      </trkpt>
      <trkpt lat="41.638689699" lon="2.512233934">
        <ele>293.82</ele>
        <time>2013-07-14T08:41:40Z</time>
      </trkpt>
      <trkpt lat="41.638625913" lon="2.512266455">
        <ele>292.86</ele>
        <time>2013-07-14T08:41:42Z</time>
      </trkpt>
      <trkpt lat="41.638536142" lon="2.512308113">
        <ele>290.94</ele>
        <time>2013-07-14T08:41:44Z</time>
      </trkpt>
      <trkpt lat="41.638350483" lon="2.512565019">
        <ele>287.09</ele>
        <time>2013-07-14T08:41:50Z</time>
      </trkpt>
      <trkpt lat="41.638323158" lon="2.512597792">
        <ele>286.13</ele>
        <time>2013-07-14T08:41:51Z</time>
      </trkpt>
      <trkpt lat="41.638194915" lon="2.512563510">
        <ele>283.25</ele>
        <time>2013-07-14T08:41:55Z</time>
      </trkpt>
      <trkpt lat="41.638168177" lon="2.512466448">
        <ele>281.80</ele>
        <time>2013-07-14T08:41:57Z</time>
      </trkpt>
      <trkpt lat="41.638163231" lon="2.512385562">
        <ele>281.32</ele>
        <time>2013-07-14T08:41:59Z</time>
      </trkpt>
      <trkpt lat="41.638227856" lon="2.512260672">
        <ele>279.88</ele>
        <time>2013-07-14T08:42:02Z</time>
      </trkpt>
      <trkpt lat="41.638353920" lon="2.512011562">
        <ele>276.04</ele>
        <time>2013-07-14T08:42:07Z</time>
      </trkpt>
      <trkpt lat="41.638376635" lon="2.511949871">
        <ele>275.07</ele>
        <time>2013-07-14T08:42:08Z</time>
      </trkpt>
      <trkpt lat="41.638462549" lon="2.511669580">
        <ele>270.75</ele>
        <time>2013-07-14T08:42:12Z</time>
      </trkpt>
      <trkpt lat="41.638577717" lon="2.511437820">
        <ele>266.90</ele>
        <time>2013-07-14T08:42:16Z</time>
      </trkpt>
      <trkpt lat="41.638570508" lon="2.511175970">
        <ele>264.02</ele>
        <time>2013-07-14T08:42:21Z</time>
      </trkpt>
      <trkpt lat="41.638478894" lon="2.510888135">
        <ele>261.62</ele>
        <time>2013-07-14T08:42:25Z</time>
      </trkpt>
      <trkpt lat="41.638473446" lon="2.510813536">
        <ele>261.14</ele>
        <time>2013-07-14T08:42:26Z</time>
      </trkpt>
      <trkpt lat="41.638473949" lon="2.510567276">
        <ele>259.69</ele>
        <time>2013-07-14T08:42:29Z</time>
      </trkpt>
      <trkpt lat="41.638378060" lon="2.510195287">
        <ele>256.81</ele>
        <time>2013-07-14T08:42:35Z</time>
      </trkpt>
      <trkpt lat="41.638307065" lon="2.509597406">
        <ele>254.41</ele>
        <time>2013-07-14T08:42:41Z</time>
      </trkpt>
      <trkpt lat="41.638312765" lon="2.509400934">
        <ele>254.41</ele>
        <time>2013-07-14T08:42:45Z</time>
      </trkpt>
      <trkpt lat="41.638314357" lon="2.509340920">
        <ele>253.93</ele>
        <time>2013-07-14T08:42:52Z</time>
      </trkpt>
      <trkpt lat="41.638319303" lon="2.509289539">
        <ele>253.93</ele>
        <time>2013-07-14T08:43:04Z</time>
      </trkpt>
      <trkpt lat="41.638384430" lon="2.509027269">
        <ele>251.52</ele>
        <time>2013-07-14T08:43:11Z</time>
      </trkpt>
      <trkpt lat="41.638462801" lon="2.508753097">
        <ele>248.64</ele>
        <time>2013-07-14T08:43:15Z</time>
      </trkpt>
      <trkpt lat="41.638612418" lon="2.508453695">
        <ele>245.75</ele>
        <time>2013-07-14T08:43:19Z</time>
      </trkpt>
      <trkpt lat="41.638929589" lon="2.507968551">
        <ele>241.43</ele>
        <time>2013-07-14T08:43:25Z</time>
      </trkpt>
      <trkpt lat="41.638972588" lon="2.507888252">
        <ele>241.43</ele>
        <time>2013-07-14T08:43:26Z</time>
      </trkpt>
      <trkpt lat="41.639155984" lon="2.507643249">
        <ele>240.95</ele>
        <time>2013-07-14T08:43:31Z</time>
      </trkpt>
      <trkpt lat="41.639190769" lon="2.507606201">
        <ele>241.43</ele>
        <time>2013-07-14T08:43:33Z</time>
      </trkpt>
      <trkpt lat="41.639300153" lon="2.507574266">
        <ele>241.43</ele>
        <time>2013-07-14T08:43:39Z</time>
      </trkpt>
      <trkpt lat="41.639357485" lon="2.507568650">
        <ele>241.43</ele>
        <time>2013-07-14T08:43:41Z</time>
      </trkpt>
      <trkpt lat="41.639593352" lon="2.507541744">
        <ele>240.95</ele>
        <time>2013-07-14T08:43:49Z</time>
      </trkpt>
      <trkpt lat="41.639828632" lon="2.507499248">
        <ele>240.47</ele>
        <time>2013-07-14T08:43:56Z</time>
      </trkpt>
      <trkpt lat="41.640057039" lon="2.507431941">
        <ele>239.51</ele>
        <time>2013-07-14T08:44:03Z</time>
      </trkpt>
      <trkpt lat="41.640251164" lon="2.507364886">
        <ele>239.02</ele>
        <time>2013-07-14T08:44:09Z</time>
      </trkpt>
      <trkpt lat="41.640538076" lon="2.507293305">
        <ele>238.06</ele>
        <time>2013-07-14T08:44:16Z</time>
      </trkpt>
      <trkpt lat="41.640836975" lon="2.507287772">
        <ele>237.58</ele>
        <time>2013-07-14T08:44:24Z</time>
      </trkpt>
      <trkpt lat="41.641081726" lon="2.507202193">
        <ele>237.58</ele>
        <time>2013-07-14T08:44:31Z</time>
      </trkpt>
      <trkpt lat="41.641400574" lon="2.507054923">
        <ele>236.62</ele>
        <time>2013-07-14T08:44:39Z</time>
      </trkpt>
      <trkpt lat="41.641651360" lon="2.507064059">
        <ele>236.62</ele>
        <time>2013-07-14T08:44:46Z</time>
      </trkpt>
      <trkpt lat="41.641888820" lon="2.507141341">
        <ele>236.62</ele>
        <time>2013-07-14T08:44:55Z</time>
      </trkpt>
      <trkpt lat="41.642096942" lon="2.507198338">
        <ele>236.62</ele>
        <time>2013-07-14T08:45:02Z</time>
      </trkpt>
      <trkpt lat="41.642330378" lon="2.507197164">
        <ele>236.14</ele>
        <time>2013-07-14T08:45:09Z</time>
      </trkpt>
      <trkpt lat="41.642562138" lon="2.507221220">
        <ele>235.18</ele>
        <time>2013-07-14T08:45:15Z</time>
      </trkpt>
      <trkpt lat="41.642783420" lon="2.507243348">
        <ele>234.22</ele>
        <time>2013-07-14T08:45:20Z</time>
      </trkpt>
      <trkpt lat="41.643223973" lon="2.507192554">
        <ele>232.78</ele>
        <time>2013-07-14T08:45:29Z</time>
      </trkpt>
      <trkpt lat="41.643307373" lon="2.507173779">
        <ele>232.78</ele>
        <time>2013-07-14T08:45:31Z</time>
      </trkpt>
      <trkpt lat="41.643619934" lon="2.507122398">
        <ele>230.85</ele>
        <time>2013-07-14T08:45:38Z</time>
      </trkpt>
      <trkpt lat="41.643892095" lon="2.507148214">
        <ele>227.49</ele>
        <time>2013-07-14T08:45:44Z</time>
      </trkpt>
      <trkpt lat="41.643998126" lon="2.507233206">
        <ele>227.01</ele>
        <time>2013-07-14T08:45:46Z</time>
      </trkpt>
      <trkpt lat="41.644165848" lon="2.507385841">
        <ele>225.57</ele>
        <time>2013-07-14T08:45:49Z</time>
      </trkpt>
      <trkpt lat="41.644549823" lon="2.507641656">
        <ele>224.12</ele>
        <time>2013-07-14T08:45:56Z</time>
      </trkpt>
      <trkpt lat="41.644826006" lon="2.507785071">
        <ele>223.64</ele>
        <time>2013-07-14T08:46:02Z</time>
      </trkpt>
      <trkpt lat="41.645130688" lon="2.507966371">
        <ele>223.64</ele>
        <time>2013-07-14T08:46:11Z</time>
      </trkpt>
      <trkpt lat="41.645181483" lon="2.507999396">
        <ele>223.16</ele>
        <time>2013-07-14T08:46:14Z</time>
      </trkpt>
      <trkpt lat="41.645214005" lon="2.507982297">
        <ele>223.16</ele>
        <time>2013-07-14T08:46:20Z</time>
      </trkpt>
      <trkpt lat="41.645222722" lon="2.507956145">
        <ele>223.16</ele>
        <time>2013-07-14T08:46:37Z</time>
      </trkpt>
      <trkpt lat="41.645226158" lon="2.507945584">
        <ele>223.16</ele>
        <time>2013-07-14T08:46:38Z</time>
      </trkpt>
      <trkpt lat="41.645249963" lon="2.507794794">
        <ele>223.16</ele>
        <time>2013-07-14T08:46:46Z</time>
      </trkpt>
      <trkpt lat="41.645311905" lon="2.507602345">
        <ele>223.16</ele>
        <time>2013-07-14T08:46:54Z</time>
      </trkpt>
      <trkpt lat="41.645414416" lon="2.507577870">
        <ele>223.16</ele>
        <time>2013-07-14T08:47:00Z</time>
      </trkpt>
      <trkpt lat="41.645603344" lon="2.507584324">
        <ele>223.16</ele>
        <time>2013-07-14T08:47:07Z</time>
      </trkpt>
      <trkpt lat="41.645824878" lon="2.507604106">
        <ele>222.68</ele>
        <time>2013-07-14T08:47:14Z</time>
      </trkpt>
      <trkpt lat="41.646084884" lon="2.507705275">
        <ele>221.72</ele>
        <time>2013-07-14T08:47:20Z</time>
      </trkpt>
      <trkpt lat="41.646135008" lon="2.507728158">
        <ele>221.72</ele>
        <time>2013-07-14T08:47:21Z</time>
      </trkpt>
      <trkpt lat="41.646283368" lon="2.507775432">
        <ele>221.24</ele>
        <time>2013-07-14T08:47:24Z</time>
      </trkpt>
      <trkpt lat="41.646612525" lon="2.507846091">
        <ele>221.24</ele>
        <time>2013-07-14T08:47:32Z</time>
      </trkpt>
      <trkpt lat="41.646883009" lon="2.507924546">
        <ele>220.76</ele>
        <time>2013-07-14T08:47:40Z</time>
      </trkpt>
      <trkpt lat="41.647188362" lon="2.507983219">
        <ele>220.28</ele>
        <time>2013-07-14T08:47:48Z</time>
      </trkpt>
      <trkpt lat="41.647385253" lon="2.507883726">
        <ele>219.32</ele>
        <time>2013-07-14T08:47:53Z</time>
      </trkpt>
      <trkpt lat="41.647458762" lon="2.507814324">
        <ele>218.84</ele>
        <time>2013-07-14T08:47:55Z</time>
      </trkpt>
      <trkpt lat="41.647627825" lon="2.507536715">
        <ele>218.36</ele>
        <time>2013-07-14T08:48:01Z</time>
      </trkpt>
      <trkpt lat="41.647755733" lon="2.507258520">
        <ele>218.36</ele>
        <time>2013-07-14T08:48:08Z</time>
      </trkpt>
      <trkpt lat="41.647947511" lon="2.506950652">
        <ele>218.84</ele>
        <time>2013-07-14T08:48:16Z</time>
      </trkpt>
      <trkpt lat="41.648147503" lon="2.506785194">
        <ele>218.84</ele>
        <time>2013-07-14T08:48:22Z</time>
      </trkpt>
      <trkpt lat="41.648264682" lon="2.506706236">
        <ele>217.88</ele>
        <time>2013-07-14T08:48:25Z</time>
      </trkpt>
      <trkpt lat="41.648428884" lon="2.506647730">
        <ele>216.91</ele>
        <time>2013-07-14T08:48:29Z</time>
      </trkpt>
      <trkpt lat="41.648633318" lon="2.506586794">
        <ele>215.95</ele>
        <time>2013-07-14T08:48:36Z</time>
      </trkpt>
      <trkpt lat="41.648795759" lon="2.506442793">
        <ele>215.47</ele>
        <time>2013-07-14T08:48:42Z</time>
      </trkpt>
      <trkpt lat="41.648902293" lon="2.506158730">
        <ele>215.47</ele>
        <time>2013-07-14T08:48:48Z</time>
      </trkpt>
      <trkpt lat="41.649076888" lon="2.505808869">
        <ele>214.99</ele>
        <time>2013-07-14T08:48:55Z</time>
      </trkpt>
      <trkpt lat="41.649227847" lon="2.505488429">
        <ele>214.51</ele>
        <time>2013-07-14T08:49:02Z</time>
      </trkpt>
      <trkpt lat="41.649262380" lon="2.505225573">
        <ele>214.51</ele>
        <time>2013-07-14T08:49:07Z</time>
      </trkpt>
      <trkpt lat="41.649315186" lon="2.504918460">
        <ele>214.03</ele>
        <time>2013-07-14T08:49:13Z</time>
      </trkpt>
      <trkpt lat="41.649321808" lon="2.504485367">
        <ele>213.55</ele>
        <time>2013-07-14T08:49:20Z</time>
      </trkpt>
      <trkpt lat="41.649314599" lon="2.504423089">
        <ele>213.55</ele>
        <time>2013-07-14T08:49:21Z</time>
      </trkpt>
      <trkpt lat="41.649172275" lon="2.504073648">
        <ele>213.07</ele>
        <time>2013-07-14T08:49:28Z</time>
      </trkpt>
      <trkpt lat="41.648941353" lon="2.503732924">
        <ele>212.59</ele>
        <time>2013-07-14T08:49:36Z</time>
      </trkpt>
      <trkpt lat="41.648778325" lon="2.503474426">
        <ele>212.11</ele>
        <time>2013-07-14T08:49:42Z</time>
      </trkpt>
      <trkpt lat="41.648545727" lon="2.503133115">
        <ele>211.63</ele>
        <time>2013-07-14T08:49:50Z</time>
      </trkpt>
      <trkpt lat="41.648403151" lon="2.502945192">
        <ele>211.15</ele>
        <time>2013-07-14T08:49:55Z</time>
      </trkpt>
      <trkpt lat="41.648198214" lon="2.502739836">
        <ele>210.67</ele>
        <time>2013-07-14T08:50:01Z</time>
      </trkpt>
      <trkpt lat="41.647930999" lon="2.502477314">
        <ele>210.67</ele>
        <time>2013-07-14T08:50:09Z</time>
      </trkpt>
      <trkpt lat="41.647742909" lon="2.502219655">
        <ele>210.67</ele>
        <time>2013-07-14T08:50:15Z</time>
      </trkpt>
      <trkpt lat="41.647577031" lon="2.501744317">
        <ele>210.19</ele>
        <time>2013-07-14T08:50:24Z</time>
      </trkpt>
      <trkpt lat="41.647503438" lon="2.501378363">
        <ele>209.70</ele>
        <time>2013-07-14T08:50:31Z</time>
      </trkpt>
      <trkpt lat="41.647493882" lon="2.501331508">
        <ele>209.70</ele>
        <time>2013-07-14T08:50:32Z</time>
      </trkpt>
      <trkpt lat="41.647397574" lon="2.500869749">
        <ele>208.74</ele>
        <time>2013-07-14T08:50:40Z</time>
      </trkpt>
      <trkpt lat="41.647322808" lon="2.500603959">
        <ele>208.26</ele>
        <time>2013-07-14T08:50:46Z</time>
      </trkpt>
      <trkpt lat="41.647254663" lon="2.500327943">
        <ele>208.26</ele>
        <time>2013-07-14T08:50:52Z</time>
      </trkpt>
      <trkpt lat="41.647230858" lon="2.500039522">
        <ele>207.78</ele>
        <time>2013-07-14T08:50:58Z</time>
      </trkpt>
      <trkpt lat="41.647214346" lon="2.499717573">
        <ele>207.78</ele>
        <time>2013-07-14T08:51:04Z</time>
      </trkpt>
      <trkpt lat="41.647264637" lon="2.499472570">
        <ele>207.78</ele>
        <time>2013-07-14T08:51:10Z</time>
      </trkpt>
      <trkpt lat="41.647360945" lon="2.499281295">
        <ele>207.78</ele>
        <time>2013-07-14T08:51:16Z</time>
      </trkpt>
      <trkpt lat="41.647588011" lon="2.499081638">
        <ele>207.78</ele>
        <time>2013-07-14T08:51:24Z</time>
      </trkpt>
      <trkpt lat="41.647763528" lon="2.498835210">
        <ele>207.30</ele>
        <time>2013-07-14T08:51:32Z</time>
      </trkpt>
      <trkpt lat="41.647901662" lon="2.498662459">
        <ele>206.82</ele>
        <time>2013-07-14T08:51:38Z</time>
      </trkpt>
      <trkpt lat="41.648084136" lon="2.498469591">
        <ele>206.82</ele>
        <time>2013-07-14T08:51:44Z</time>
      </trkpt>
      <trkpt lat="41.648112634" lon="2.498433298">
        <ele>206.82</ele>
        <time>2013-07-14T08:51:45Z</time>
      </trkpt>
      <trkpt lat="41.648319835" lon="2.498354927">
        <ele>206.34</ele>
        <time>2013-07-14T08:51:50Z</time>
      </trkpt>
      <trkpt lat="41.648384962" lon="2.498316789">
        <ele>205.86</ele>
        <time>2013-07-14T08:51:52Z</time>
      </trkpt>
      <trkpt lat="41.648525527" lon="2.498075307">
        <ele>205.86</ele>
        <time>2013-07-14T08:51:59Z</time>
      </trkpt>
      <trkpt lat="41.648632983" lon="2.497876739">
        <ele>205.86</ele>
        <time>2013-07-14T08:52:06Z</time>
      </trkpt>
      <trkpt lat="41.648663912" lon="2.497807421">
        <ele>207.30</ele>
        <time>2013-07-14T08:52:08Z</time>
      </trkpt>
      <trkpt lat="41.648760891" lon="2.497622516">
        <ele>208.74</ele>
        <time>2013-07-14T08:52:14Z</time>
      </trkpt>
      <trkpt lat="41.648884524" lon="2.497384386">
        <ele>209.22</ele>
        <time>2013-07-14T08:52:22Z</time>
      </trkpt>
      <trkpt lat="41.648956357" lon="2.497190345">
        <ele>210.19</ele>
        <time>2013-07-14T08:52:29Z</time>
      </trkpt>
      <trkpt lat="41.649000697" lon="2.496923465">
        <ele>211.15</ele>
        <time>2013-07-14T08:52:37Z</time>
      </trkpt>
      <trkpt lat="41.649032884" lon="2.496692544">
        <ele>212.59</ele>
        <time>2013-07-14T08:52:44Z</time>
      </trkpt>
      <trkpt lat="41.649056940" lon="2.496397836">
        <ele>213.55</ele>
        <time>2013-07-14T08:52:52Z</time>
      </trkpt>
      <trkpt lat="41.649041852" lon="2.496312928">
        <ele>214.51</ele>
        <time>2013-07-14T08:52:55Z</time>
      </trkpt>
      <trkpt lat="41.649104549" lon="2.496172950">
        <ele>214.51</ele>
        <time>2013-07-14T08:53:00Z</time>
      </trkpt>
      <trkpt lat="41.649242012" lon="2.495962648">
        <ele>211.63</ele>
        <time>2013-07-14T08:53:06Z</time>
      </trkpt>
      <trkpt lat="41.649266822" lon="2.495913865">
        <ele>211.63</ele>
        <time>2013-07-14T08:53:07Z</time>
      </trkpt>
      <trkpt lat="41.649425659" lon="2.495590659">
        <ele>209.70</ele>
        <time>2013-07-14T08:53:14Z</time>
      </trkpt>
      <trkpt lat="41.649524231" lon="2.495312296">
        <ele>209.22</ele>
        <time>2013-07-14T08:53:19Z</time>
      </trkpt>
      <trkpt lat="41.649562201" lon="2.495199559">
        <ele>209.22</ele>
        <time>2013-07-14T08:53:21Z</time>
      </trkpt>
      <trkpt lat="41.649606541" lon="2.494955395">
        <ele>209.22</ele>
        <time>2013-07-14T08:53:25Z</time>
      </trkpt>
      <trkpt lat="41.649624478" lon="2.494828660">
        <ele>208.74</ele>
        <time>2013-07-14T08:53:27Z</time>
      </trkpt>
      <trkpt lat="41.649707962" lon="2.494637637">
        <ele>207.30</ele>
        <time>2013-07-14T08:53:30Z</time>
      </trkpt>
      <trkpt lat="41.649794379" lon="2.494605953">
        <ele>206.82</ele>
        <time>2013-07-14T08:53:32Z</time>
      </trkpt>
      <trkpt lat="41.650056398" lon="2.494482404">
        <ele>206.82</ele>
        <time>2013-07-14T08:53:39Z</time>
      </trkpt>
      <trkpt lat="41.650191179" lon="2.494369835">
        <ele>208.26</ele>
        <time>2013-07-14T08:53:45Z</time>
      </trkpt>
      <trkpt lat="41.650214732" lon="2.494350892">
        <ele>208.26</ele>
        <time>2013-07-14T08:53:46Z</time>
      </trkpt>
      <trkpt lat="41.650411623" lon="2.494200437">
        <ele>210.19</ele>
        <time>2013-07-14T08:53:55Z</time>
      </trkpt>
      <trkpt lat="41.650489910" lon="2.494085018">
        <ele>211.15</ele>
        <time>2013-07-14T08:54:01Z</time>
      </trkpt>
      <trkpt lat="41.650672216" lon="2.493977310">
        <ele>209.22</ele>
        <time>2013-07-14T08:54:07Z</time>
      </trkpt>
      <trkpt lat="41.650750084" lon="2.493944369">
        <ele>208.74</ele>
        <time>2013-07-14T08:54:09Z</time>
      </trkpt>
      <trkpt lat="41.650996177" lon="2.493976221">
        <ele>205.86</ele>
        <time>2013-07-14T08:54:15Z</time>
      </trkpt>
      <trkpt lat="41.651035153" lon="2.493979238">
        <ele>205.38</ele>
        <time>2013-07-14T08:54:16Z</time>
      </trkpt>
      <trkpt lat="41.651206395" lon="2.493880248">
        <ele>203.46</ele>
        <time>2013-07-14T08:54:20Z</time>
      </trkpt>
      <trkpt lat="41.651279736" lon="2.493794752">
        <ele>202.98</ele>
        <time>2013-07-14T08:54:22Z</time>
      </trkpt>
      <trkpt lat="41.651347462" lon="2.493702384">
        <ele>202.98</ele>
        <time>2013-07-14T08:54:24Z</time>
      </trkpt>
      <trkpt lat="41.651556842" lon="2.493441623">
        <ele>202.49</ele>
        <time>2013-07-14T08:54:31Z</time>
      </trkpt>
      <trkpt lat="41.651658515" lon="2.493310530">
        <ele>202.01</ele>
        <time>2013-07-14T08:54:36Z</time>
      </trkpt>
      <trkpt lat="41.651788853" lon="2.493231908">
        <ele>201.53</ele>
        <time>2013-07-14T08:54:42Z</time>
      </trkpt>
      <trkpt lat="41.652016170" lon="2.493132163">
        <ele>202.49</ele>
        <time>2013-07-14T08:54:51Z</time>
      </trkpt>
      <trkpt lat="41.652130500" lon="2.493129229">
        <ele>203.94</ele>
        <time>2013-07-14T08:54:57Z</time>
      </trkpt>
      <trkpt lat="41.652187832" lon="2.493140042">
        <ele>204.90</ele>
        <time>2013-07-14T08:55:00Z</time>
      </trkpt>
      <trkpt lat="41.652212558" lon="2.493016577">
        <ele>206.82</ele>
        <time>2013-07-14T08:55:06Z</time>
      </trkpt>
      <trkpt lat="41.652179618" lon="2.492878443">
        <ele>208.74</ele>
        <time>2013-07-14T08:55:12Z</time>
      </trkpt>
      <trkpt lat="41.652178612" lon="2.492814656">
        <ele>209.70</ele>
        <time>2013-07-14T08:55:15Z</time>
      </trkpt>
      <trkpt lat="41.652188083" lon="2.492740225">
        <ele>210.19</ele>
        <time>2013-07-14T08:55:19Z</time>
      </trkpt>
      <trkpt lat="41.652184228" lon="2.492548028">
        <ele>212.11</ele>
        <time>2013-07-14T08:55:29Z</time>
      </trkpt>
      <trkpt lat="41.652168386" lon="2.492457420">
        <ele>213.55</ele>
        <time>2013-07-14T08:55:34Z</time>
      </trkpt>
      <trkpt lat="41.652104013" lon="2.492326327">
        <ele>215.95</ele>
        <time>2013-07-14T08:55:44Z</time>
      </trkpt>
      <trkpt lat="41.652073587" lon="2.492220715">
        <ele>217.40</ele>
        <time>2013-07-14T08:55:50Z</time>
      </trkpt>
      <trkpt lat="41.652126560" lon="2.492128682">
        <ele>218.36</ele>
        <time>2013-07-14T08:55:57Z</time>
      </trkpt>
      <trkpt lat="41.652151706" lon="2.492127508">
        <ele>218.36</ele>
        <time>2013-07-14T08:55:59Z</time>
      </trkpt>
      <trkpt lat="41.652227897" lon="2.492198670">
        <ele>220.28</ele>
        <time>2013-07-14T08:56:06Z</time>
      </trkpt>
      <trkpt lat="41.652238207" lon="2.492212417">
        <ele>220.28</ele>
        <time>2013-07-14T08:56:07Z</time>
      </trkpt>
      <trkpt lat="41.652346082" lon="2.492337223">
        <ele>221.72</ele>
        <time>2013-07-14T08:56:16Z</time>
      </trkpt>
      <trkpt lat="41.652462926" lon="2.492493378">
        <ele>223.16</ele>
        <time>2013-07-14T08:56:26Z</time>
      </trkpt>
      <trkpt lat="41.652579099" lon="2.492635368">
        <ele>224.61</ele>
        <time>2013-07-14T08:56:35Z</time>
      </trkpt>
      <trkpt lat="41.652695021" lon="2.492710553">
        <ele>226.05</ele>
        <time>2013-07-14T08:56:43Z</time>
      </trkpt>
      <trkpt lat="41.652839273" lon="2.492688676">
        <ele>227.01</ele>
        <time>2013-07-14T08:56:51Z</time>
      </trkpt>
      <trkpt lat="41.653018898" lon="2.492617933">
        <ele>227.49</ele>
        <time>2013-07-14T08:57:01Z</time>
      </trkpt>
      <trkpt lat="41.653135238" lon="2.492530342">
        <ele>228.45</ele>
        <time>2013-07-14T08:57:09Z</time>
      </trkpt>
      <trkpt lat="41.653201288" lon="2.492453396">
        <ele>229.41</ele>
        <time>2013-07-14T08:57:15Z</time>
      </trkpt>
      <trkpt lat="41.653322155" lon="2.492287183">
        <ele>231.33</ele>
        <time>2013-07-14T08:57:26Z</time>
      </trkpt>
      <trkpt lat="41.653441262" lon="2.492183164">
        <ele>231.81</ele>
        <time>2013-07-14T08:57:34Z</time>
      </trkpt>
      <trkpt lat="41.653552909" lon="2.492089119">
        <ele>232.78</ele>
        <time>2013-07-14T08:57:42Z</time>
      </trkpt>
      <trkpt lat="41.653656844" lon="2.491952578">
        <ele>233.74</ele>
        <time>2013-07-14T08:57:50Z</time>
      </trkpt>
      <trkpt lat="41.653713171" lon="2.491766416">
        <ele>234.70</ele>
        <time>2013-07-14T08:57:59Z</time>
      </trkpt>
      <trkpt lat="41.653722223" lon="2.491564160">
        <ele>236.14</ele>
        <time>2013-07-14T08:58:07Z</time>
      </trkpt>
      <trkpt lat="41.653717948" lon="2.491332233">
        <ele>236.62</ele>
        <time>2013-07-14T08:58:15Z</time>
      </trkpt>
      <trkpt lat="41.653795397" lon="2.491186807">
        <ele>236.14</ele>
        <time>2013-07-14T08:58:21Z</time>
      </trkpt>
      <trkpt lat="41.653955911" lon="2.491088990">
        <ele>237.10</ele>
        <time>2013-07-14T08:58:30Z</time>
      </trkpt>
      <trkpt lat="41.654099325" lon="2.490984719">
        <ele>237.58</ele>
        <time>2013-07-14T08:58:38Z</time>
      </trkpt>
      <trkpt lat="41.654239219" lon="2.490854045">
        <ele>238.06</ele>
        <time>2013-07-14T08:58:46Z</time>
      </trkpt>
      <trkpt lat="41.654377688" lon="2.490669057">
        <ele>239.51</ele>
        <time>2013-07-14T08:58:55Z</time>
      </trkpt>
      <trkpt lat="41.654446084" lon="2.490445595">
        <ele>239.51</ele>
        <time>2013-07-14T08:59:04Z</time>
      </trkpt>
      <trkpt lat="41.654480199" lon="2.490206208">
        <ele>240.47</ele>
        <time>2013-07-14T08:59:12Z</time>
      </trkpt>
      <trkpt lat="41.654520935" lon="2.489884427">
        <ele>240.47</ele>
        <time>2013-07-14T08:59:22Z</time>
      </trkpt>
      <trkpt lat="41.654555133" lon="2.489734307">
        <ele>240.47</ele>
        <time>2013-07-14T08:59:29Z</time>
      </trkpt>
      <trkpt lat="41.654576507" lon="2.489714861">
        <ele>240.47</ele>
        <time>2013-07-14T08:59:39Z</time>
      </trkpt>
      <trkpt lat="41.654597126" lon="2.489664318">
        <ele>240.47</ele>
        <time>2013-07-14T08:59:47Z</time>
      </trkpt>
      <trkpt lat="41.654607855" lon="2.489642358">
        <ele>239.02</ele>
        <time>2013-07-14T08:59:52Z</time>
      </trkpt>
      <trkpt lat="41.654623613" lon="2.489611931">
        <ele>239.02</ele>
        <time>2013-07-14T09:00:00Z</time>
      </trkpt>
      <trkpt lat="41.654640125" lon="2.489592066">
        <ele>239.02</ele>
        <time>2013-07-14T09:00:09Z</time>
      </trkpt>
      <trkpt lat="41.654642053" lon="2.489542361">
        <ele>238.54</ele>
        <time>2013-07-14T09:00:18Z</time>
      </trkpt>
      <trkpt lat="41.654656721" lon="2.489504391">
        <ele>238.54</ele>
        <time>2013-07-14T09:00:20Z</time>
      </trkpt>
      <trkpt lat="41.654721765" lon="2.489328623">
        <ele>237.10</ele>
        <time>2013-07-14T09:00:27Z</time>
      </trkpt>
      <trkpt lat="41.654732578" lon="2.489224604">
        <ele>235.66</ele>
        <time>2013-07-14T09:00:30Z</time>
      </trkpt>
      <trkpt lat="41.654737104" lon="2.489165008">
        <ele>235.66</ele>
        <time>2013-07-14T09:00:36Z</time>
      </trkpt>
      <trkpt lat="41.654760322" lon="2.489139192">
        <ele>235.18</ele>
        <time>2013-07-14T09:00:51Z</time>
      </trkpt>
      <trkpt lat="41.654757891" lon="2.489104826">
        <ele>235.18</ele>
        <time>2013-07-14T09:01:05Z</time>
      </trkpt>
      <trkpt lat="41.654766357" lon="2.488989826">
        <ele>235.18</ele>
        <time>2013-07-14T09:01:12Z</time>
      </trkpt>
      <trkpt lat="41.654785467" lon="2.488827385">
        <ele>233.26</ele>
        <time>2013-07-14T09:01:17Z</time>
      </trkpt>
      <trkpt lat="41.654857552" lon="2.488664860">
        <ele>233.26</ele>
        <time>2013-07-14T09:01:22Z</time>
      </trkpt>
      <trkpt lat="41.654962409" lon="2.488555392">
        <ele>232.30</ele>
        <time>2013-07-14T09:01:26Z</time>
      </trkpt>
      <trkpt lat="41.655046731" lon="2.488431843">
        <ele>230.85</ele>
        <time>2013-07-14T09:01:29Z</time>
      </trkpt>
      <trkpt lat="41.655158211" lon="2.488334781">
        <ele>229.89</ele>
        <time>2013-07-14T09:01:36Z</time>
      </trkpt>
      <trkpt lat="41.655224344" lon="2.488199078">
        <ele>229.41</ele>
        <time>2013-07-14T09:01:42Z</time>
      </trkpt>
      <trkpt lat="41.655251753" lon="2.487973940">
        <ele>227.97</ele>
        <time>2013-07-14T09:01:48Z</time>
      </trkpt>
      <trkpt lat="41.655151589" lon="2.487811163">
        <ele>227.49</ele>
        <time>2013-07-14T09:01:53Z</time>
      </trkpt>
      <trkpt lat="41.655035248" lon="2.487736397">
        <ele>227.49</ele>
        <time>2013-07-14T09:01:59Z</time>
      </trkpt>
      <trkpt lat="41.654968947" lon="2.487636568">
        <ele>227.49</ele>
        <time>2013-07-14T09:02:06Z</time>
      </trkpt>
      <trkpt lat="41.654918572" lon="2.487559538">
        <ele>227.49</ele>
        <time>2013-07-14T09:02:14Z</time>
      </trkpt>
      <trkpt lat="41.654880770" lon="2.487508996">
        <ele>227.49</ele>
        <time>2013-07-14T09:02:27Z</time>
      </trkpt>
      <trkpt lat="41.654867107" lon="2.487498434">
        <ele>227.49</ele>
        <time>2013-07-14T09:02:36Z</time>
      </trkpt>
      <trkpt lat="41.654856295" lon="2.487470523">
        <ele>227.49</ele>
        <time>2013-07-14T09:02:44Z</time>
      </trkpt>
      <trkpt lat="41.654850008" lon="2.487432385">
        <ele>228.45</ele>
        <time>2013-07-14T09:02:51Z</time>
      </trkpt>
      <trkpt lat="41.654809943" lon="2.487345716">
        <ele>229.41</ele>
        <time>2013-07-14T09:02:58Z</time>
      </trkpt>
      <trkpt lat="41.654788317" lon="2.487318810">
        <ele>229.89</ele>
        <time>2013-07-14T09:03:00Z</time>
      </trkpt>
      <trkpt lat="41.654687986" lon="2.487170283">
        <ele>230.85</ele>
        <time>2013-07-14T09:03:08Z</time>
      </trkpt>
      <trkpt lat="41.654619925" lon="2.487037011">
        <ele>231.81</ele>
        <time>2013-07-14T09:03:15Z</time>
      </trkpt>
      <trkpt lat="41.654533424" lon="2.486889824">
        <ele>231.81</ele>
        <time>2013-07-14T09:03:23Z</time>
      </trkpt>
      <trkpt lat="41.654511128" lon="2.486856297">
        <ele>232.30</ele>
        <time>2013-07-14T09:03:25Z</time>
      </trkpt>
      <trkpt lat="41.654519426" lon="2.486714810">
        <ele>232.78</ele>
        <time>2013-07-14T09:03:30Z</time>
      </trkpt>
      <trkpt lat="41.654602574" lon="2.486525798">
        <ele>233.74</ele>
        <time>2013-07-14T09:03:38Z</time>
      </trkpt>
      <trkpt lat="41.654661080" lon="2.486403925">
        <ele>235.66</ele>
        <time>2013-07-14T09:03:45Z</time>
      </trkpt>
      <trkpt lat="41.654671809" lon="2.486264367">
        <ele>236.62</ele>
        <time>2013-07-14T09:03:52Z</time>
      </trkpt>
      <trkpt lat="41.654671390" lon="2.486242322">
        <ele>236.62</ele>
        <time>2013-07-14T09:03:53Z</time>
      </trkpt>
      <trkpt lat="41.654592097" lon="2.486091867">
        <ele>238.06</ele>
        <time>2013-07-14T09:04:03Z</time>
      </trkpt>
      <trkpt lat="41.654519510" lon="2.486007713">
        <ele>239.99</ele>
        <time>2013-07-14T09:04:11Z</time>
      </trkpt>
      <trkpt lat="41.654503752" lon="2.485988351">
        <ele>239.51</ele>
        <time>2013-07-14T09:04:13Z</time>
      </trkpt>
      <trkpt lat="41.654459244" lon="2.485947950">
        <ele>240.47</ele>
        <time>2013-07-14T09:04:17Z</time>
      </trkpt>
      <trkpt lat="41.654421190" lon="2.485883996">
        <ele>241.43</ele>
        <time>2013-07-14T09:04:22Z</time>
      </trkpt>
      <trkpt lat="41.654398056" lon="2.485709317">
        <ele>242.87</ele>
        <time>2013-07-14T09:04:32Z</time>
      </trkpt>
      <trkpt lat="41.654425297" lon="2.485569926">
        <ele>243.35</ele>
        <time>2013-07-14T09:04:39Z</time>
      </trkpt>
      <trkpt lat="41.654484473" lon="2.485430703">
        <ele>244.31</ele>
        <time>2013-07-14T09:04:47Z</time>
      </trkpt>
      <trkpt lat="41.654565778" lon="2.485240601">
        <ele>246.23</ele>
        <time>2013-07-14T09:04:57Z</time>
      </trkpt>
      <trkpt lat="41.654575249" lon="2.485221993">
        <ele>246.72</ele>
        <time>2013-07-14T09:04:58Z</time>
      </trkpt>
      <trkpt lat="41.654575249" lon="2.485115543">
        <ele>247.20</ele>
        <time>2013-07-14T09:05:03Z</time>
      </trkpt>
      <trkpt lat="41.654651022" lon="2.485057708">
        <ele>245.75</ele>
        <time>2013-07-14T09:05:09Z</time>
      </trkpt>
      <trkpt lat="41.654786557" lon="2.485090733">
        <ele>241.43</ele>
        <time>2013-07-14T09:05:15Z</time>
      </trkpt>
      <trkpt lat="41.654894600" lon="2.485001382">
        <ele>238.06</ele>
        <time>2013-07-14T09:05:19Z</time>
      </trkpt>
      <trkpt lat="41.654980179" lon="2.484936003">
        <ele>235.18</ele>
        <time>2013-07-14T09:05:22Z</time>
      </trkpt>
      <trkpt lat="41.655092832" lon="2.485038094">
        <ele>232.78</ele>
        <time>2013-07-14T09:05:26Z</time>
      </trkpt>
      <trkpt lat="41.655094508" lon="2.485073550">
        <ele>232.78</ele>
        <time>2013-07-14T09:05:27Z</time>
      </trkpt>
      <trkpt lat="41.655074392" lon="2.485160219">
        <ele>230.85</ele>
        <time>2013-07-14T09:05:29Z</time>
      </trkpt>
      <trkpt lat="41.654924607" lon="2.485457441">
        <ele>227.97</ele>
        <time>2013-07-14T09:05:36Z</time>
      </trkpt>
      <trkpt lat="41.654818995" lon="2.485627845">
        <ele>225.57</ele>
        <time>2013-07-14T09:05:41Z</time>
      </trkpt>
      <trkpt lat="41.654805584" lon="2.485671347">
        <ele>225.09</ele>
        <time>2013-07-14T09:05:42Z</time>
      </trkpt>
      <trkpt lat="41.654914716" lon="2.485929426">
        <ele>223.64</ele>
        <time>2013-07-14T09:05:48Z</time>
      </trkpt>
      <trkpt lat="41.654979425" lon="2.486022130">
        <ele>223.64</ele>
        <time>2013-07-14T09:05:50Z</time>
      </trkpt>
      <trkpt lat="41.655148236" lon="2.486328069">
        <ele>221.72</ele>
        <time>2013-07-14T09:05:56Z</time>
      </trkpt>
      <trkpt lat="41.655163743" lon="2.486431670">
        <ele>220.76</ele>
        <time>2013-07-14T09:05:58Z</time>
      </trkpt>
      <trkpt lat="41.655079086" lon="2.486668039">
        <ele>216.91</ele>
        <time>2013-07-14T09:06:03Z</time>
      </trkpt>
      <trkpt lat="41.655039858" lon="2.486742471">
        <ele>216.43</ele>
        <time>2013-07-14T09:06:05Z</time>
      </trkpt>
      <trkpt lat="41.655028375" lon="2.486882532">
        <ele>212.59</ele>
        <time>2013-07-14T09:06:09Z</time>
      </trkpt>
      <trkpt lat="41.655076571" lon="2.486927291">
        <ele>212.11</ele>
        <time>2013-07-14T09:06:12Z</time>
      </trkpt>
      <trkpt lat="41.655184698" lon="2.487024102">
        <ele>210.67</ele>
        <time>2013-07-14T09:06:17Z</time>
      </trkpt>
      <trkpt lat="41.655210430" lon="2.487077495">
        <ele>210.19</ele>
        <time>2013-07-14T09:06:20Z</time>
      </trkpt>
      <trkpt lat="41.655364154" lon="2.487150921">
        <ele>210.19</ele>
        <time>2013-07-14T09:06:28Z</time>
      </trkpt>
      <trkpt lat="41.655448392" lon="2.487209343">
        <ele>211.63</ele>
        <time>2013-07-14T09:06:33Z</time>
      </trkpt>
      <trkpt lat="41.655537157" lon="2.487288300">
        <ele>213.07</ele>
        <time>2013-07-14T09:06:40Z</time>
      </trkpt>
      <trkpt lat="41.655598764" lon="2.487385949">
        <ele>214.03</ele>
        <time>2013-07-14T09:06:45Z</time>
      </trkpt>
      <trkpt lat="41.655609911" lon="2.487471612">
        <ele>214.03</ele>
        <time>2013-07-14T09:06:49Z</time>
      </trkpt>
      <trkpt lat="41.655639919" lon="2.487763973">
        <ele>214.03</ele>
        <time>2013-07-14T09:06:56Z</time>
      </trkpt>
      <trkpt lat="41.655707561" lon="2.487961367">
        <ele>212.59</ele>
        <time>2013-07-14T09:07:03Z</time>
      </trkpt>
      <trkpt lat="41.655779561" lon="2.488068907">
        <ele>214.03</ele>
        <time>2013-07-14T09:07:08Z</time>
      </trkpt>
      <trkpt lat="41.655824907" lon="2.488195473">
        <ele>214.99</ele>
        <time>2013-07-14T09:07:15Z</time>
      </trkpt>
      <trkpt lat="41.655826416" lon="2.488212070">
        <ele>214.99</ele>
        <time>2013-07-14T09:07:16Z</time>
      </trkpt>
      <trkpt lat="41.655817447" lon="2.488287171">
        <ele>215.47</ele>
        <time>2013-07-14T09:07:20Z</time>
      </trkpt>
      <trkpt lat="41.655799091" lon="2.488346180">
        <ele>215.47</ele>
        <time>2013-07-14T09:07:23Z</time>
      </trkpt>
      <trkpt lat="41.655724408" lon="2.488459168">
        <ele>215.47</ele>
        <time>2013-07-14T09:07:30Z</time>
      </trkpt>
      <trkpt lat="41.655655509" lon="2.488575509">
        <ele>215.47</ele>
        <time>2013-07-14T09:07:38Z</time>
      </trkpt>
      <trkpt lat="41.655639416" lon="2.488626219">
        <ele>215.47</ele>
        <time>2013-07-14T09:07:50Z</time>
      </trkpt>
      <trkpt lat="41.655617455" lon="2.488681791">
        <ele>215.47</ele>
        <time>2013-07-14T09:07:59Z</time>
      </trkpt>
      <trkpt lat="41.655609073" lon="2.488721606">
        <ele>214.51</ele>
        <time>2013-07-14T09:08:03Z</time>
      </trkpt>
      <trkpt lat="41.655602787" lon="2.488737950">
        <ele>214.51</ele>
        <time>2013-07-14T09:08:19Z</time>
      </trkpt>
      <trkpt lat="41.655620473" lon="2.488759492">
        <ele>214.51</ele>
        <time>2013-07-14T09:08:36Z</time>
      </trkpt>
      <trkpt lat="41.655587280" lon="2.488768628">
        <ele>214.51</ele>
        <time>2013-07-14T09:08:42Z</time>
      </trkpt>
      <trkpt lat="41.655562218" lon="2.488768460">
        <ele>214.51</ele>
        <time>2013-07-14T09:08:58Z</time>
      </trkpt>
      <trkpt lat="41.655537073" lon="2.488769466">
        <ele>214.99</ele>
        <time>2013-07-14T09:09:28Z</time>
      </trkpt>
      <trkpt lat="41.655517124" lon="2.488741219">
        <ele>214.99</ele>
        <time>2013-07-14T09:09:55Z</time>
      </trkpt>
      <trkpt lat="41.655524248" lon="2.488759073">
        <ele>214.99</ele>
        <time>2013-07-14T09:10:15Z</time>
      </trkpt>
      <trkpt lat="41.655517124" lon="2.488779189">
        <ele>214.99</ele>
        <time>2013-07-14T09:10:34Z</time>
      </trkpt>
      <trkpt lat="41.655508658" lon="2.488806095">
        <ele>214.99</ele>
        <time>2013-07-14T09:10:56Z</time>
      </trkpt>
      <trkpt lat="41.655525170" lon="2.488777513">
        <ele>214.99</ele>
        <time>2013-07-14T09:11:17Z</time>
      </trkpt>
      <trkpt lat="41.655522991" lon="2.488733005">
        <ele>214.51</ele>
        <time>2013-07-14T09:11:36Z</time>
      </trkpt>
      <trkpt lat="41.655504802" lon="2.488718253">
        <ele>214.51</ele>
        <time>2013-07-14T09:11:54Z</time>
      </trkpt>
      <trkpt lat="41.655459289" lon="2.488779524">
        <ele>214.51</ele>
        <time>2013-07-14T09:12:20Z</time>
      </trkpt>
      <trkpt lat="41.655514777" lon="2.488776004">
        <ele>214.51</ele>
        <time>2013-07-14T09:12:47Z</time>
      </trkpt>
      <trkpt lat="41.655509832" lon="2.488824368">
        <ele>214.51</ele>
        <time>2013-07-14T09:13:09Z</time>
      </trkpt>
      <trkpt lat="41.655486530" lon="2.488838533">
        <ele>214.51</ele>
        <time>2013-07-14T09:13:35Z</time>
      </trkpt>
      <trkpt lat="41.655484434" lon="2.488793271">
        <ele>214.51</ele>
        <time>2013-07-14T09:14:01Z</time>
      </trkpt>
      <trkpt lat="41.655510418" lon="2.488772987">
        <ele>214.51</ele>
        <time>2013-07-14T09:14:26Z</time>
      </trkpt>
      <trkpt lat="41.655545371" lon="2.488815902">
        <ele>214.51</ele>
        <time>2013-07-14T09:14:51Z</time>
      </trkpt>
      <trkpt lat="41.655547299" lon="2.488809029">
        <ele>214.51</ele>
        <time>2013-07-14T09:15:11Z</time>
      </trkpt>
      <trkpt lat="41.655554675" lon="2.488779608">
        <ele>214.51</ele>
        <time>2013-07-14T09:15:29Z</time>
      </trkpt>
      <trkpt lat="41.655570684" lon="2.488790505">
        <ele>214.51</ele>
        <time>2013-07-14T09:15:40Z</time>
      </trkpt>
      <trkpt lat="41.655573953" lon="2.488801904">
        <ele>214.51</ele>
        <time>2013-07-14T09:15:46Z</time>
      </trkpt>
      <trkpt lat="41.655562051" lon="2.488832750">
        <ele>214.51</ele>
        <time>2013-07-14T09:15:54Z</time>
      </trkpt>
      <trkpt lat="41.655471610" lon="2.488922436">
        <ele>214.51</ele>
        <time>2013-07-14T09:16:00Z</time>
      </trkpt>
      <trkpt lat="41.655387623" lon="2.489085799">
        <ele>214.03</ele>
        <time>2013-07-14T09:16:05Z</time>
      </trkpt>
      <trkpt lat="41.655352419" lon="2.489281349">
        <ele>215.47</ele>
        <time>2013-07-14T09:16:13Z</time>
      </trkpt>
      <trkpt lat="41.655352755" lon="2.489306243">
        <ele>215.47</ele>
        <time>2013-07-14T09:16:14Z</time>
      </trkpt>
      <trkpt lat="41.655340266" lon="2.489391571">
        <ele>216.91</ele>
        <time>2013-07-14T09:16:20Z</time>
      </trkpt>
      <trkpt lat="41.655361220" lon="2.489523502">
        <ele>216.91</ele>
        <time>2013-07-14T09:16:26Z</time>
      </trkpt>
      <trkpt lat="41.655414445" lon="2.489545630">
        <ele>216.91</ele>
        <time>2013-07-14T09:16:30Z</time>
      </trkpt>
      <trkpt lat="41.655544197" lon="2.489536829">
        <ele>215.95</ele>
        <time>2013-07-14T09:16:35Z</time>
      </trkpt>
      <trkpt lat="41.655692641" lon="2.489632467">
        <ele>214.99</ele>
        <time>2013-07-14T09:16:39Z</time>
      </trkpt>
      <trkpt lat="41.655912666" lon="2.489789209">
        <ele>214.51</ele>
        <time>2013-07-14T09:16:46Z</time>
      </trkpt>
      <trkpt lat="41.656009477" lon="2.489953410">
        <ele>214.51</ele>
        <time>2013-07-14T09:16:52Z</time>
      </trkpt>
      <trkpt lat="41.656022972" lon="2.490036810">
        <ele>215.47</ele>
        <time>2013-07-14T09:16:55Z</time>
      </trkpt>
      <trkpt lat="41.656035125" lon="2.490294051">
        <ele>215.47</ele>
        <time>2013-07-14T09:17:03Z</time>
      </trkpt>
      <trkpt lat="41.656051554" lon="2.490485326">
        <ele>215.95</ele>
        <time>2013-07-14T09:17:09Z</time>
      </trkpt>
      <trkpt lat="41.656055074" lon="2.490700154">
        <ele>215.95</ele>
        <time>2013-07-14T09:17:17Z</time>
      </trkpt>
      <trkpt lat="41.656048620" lon="2.490898302">
        <ele>215.95</ele>
        <time>2013-07-14T09:17:24Z</time>
      </trkpt>
      <trkpt lat="41.656046609" lon="2.491150094">
        <ele>212.59</ele>
        <time>2013-07-14T09:17:31Z</time>
      </trkpt>
      <trkpt lat="41.656055996" lon="2.491393253">
        <ele>208.74</ele>
        <time>2013-07-14T09:17:36Z</time>
      </trkpt>
      <trkpt lat="41.656054655" lon="2.491544128">
        <ele>207.30</ele>
        <time>2013-07-14T09:17:39Z</time>
      </trkpt>
      <trkpt lat="41.656010986" lon="2.491651081">
        <ele>206.82</ele>
        <time>2013-07-14T09:17:43Z</time>
      </trkpt>
      <trkpt lat="41.655954743" lon="2.491759542">
        <ele>206.34</ele>
        <time>2013-07-14T09:17:50Z</time>
      </trkpt>
      <trkpt lat="41.655847371" lon="2.491872363">
        <ele>204.42</ele>
        <time>2013-07-14T09:17:55Z</time>
      </trkpt>
      <trkpt lat="41.655789033" lon="2.491941681">
        <ele>203.46</ele>
        <time>2013-07-14T09:18:01Z</time>
      </trkpt>
      <trkpt lat="41.655825075" lon="2.491956433">
        <ele>203.46</ele>
        <time>2013-07-14T09:18:15Z</time>
      </trkpt>
      <trkpt lat="41.655816777" lon="2.491984848">
        <ele>203.46</ele>
        <time>2013-07-14T09:18:28Z</time>
      </trkpt>
      <trkpt lat="41.655794397" lon="2.492008401">
        <ele>203.46</ele>
        <time>2013-07-14T09:18:46Z</time>
      </trkpt>
      <trkpt lat="41.655824572" lon="2.491994655">
        <ele>203.46</ele>
        <time>2013-07-14T09:18:53Z</time>
      </trkpt>
      <trkpt lat="41.655808311" lon="2.492004043">
        <ele>203.46</ele>
        <time>2013-07-14T09:18:55Z</time>
      </trkpt>
      <trkpt lat="41.655712590" lon="2.492113007">
        <ele>202.49</ele>
        <time>2013-07-14T09:18:59Z</time>
      </trkpt>
      <trkpt lat="41.655575462" lon="2.492233707">
        <ele>201.05</ele>
        <time>2013-07-14T09:19:02Z</time>
      </trkpt>
      <trkpt lat="41.655253848" lon="2.492448200">
        <ele>198.65</ele>
        <time>2013-07-14T09:19:07Z</time>
      </trkpt>
      <trkpt lat="41.655016221" lon="2.492726311">
        <ele>197.69</ele>
        <time>2013-07-14T09:19:12Z</time>
      </trkpt>
      <trkpt lat="41.654973557" lon="2.492868804">
        <ele>197.21</ele>
        <time>2013-07-14T09:19:14Z</time>
      </trkpt>
      <trkpt lat="41.654941036" lon="2.493001824">
        <ele>195.77</ele>
        <time>2013-07-14T09:19:17Z</time>
      </trkpt>
      <trkpt lat="41.654921925" lon="2.493013810">
        <ele>195.28</ele>
        <time>2013-07-14T09:19:23Z</time>
      </trkpt>
      <trkpt lat="41.654917985" lon="2.493017582">
        <ele>195.28</ele>
        <time>2013-07-14T09:19:27Z</time>
      </trkpt>
      <trkpt lat="41.654815391" lon="2.492963184">
        <ele>195.28</ele>
        <time>2013-07-14T09:19:35Z</time>
      </trkpt>
      <trkpt lat="41.654724112" lon="2.492903086">
        <ele>196.73</ele>
        <time>2013-07-14T09:19:41Z</time>
      </trkpt>
      <trkpt lat="41.654641550" lon="2.492883975">
        <ele>196.73</ele>
        <time>2013-07-14T09:19:45Z</time>
      </trkpt>
      <trkpt lat="41.654432338" lon="2.492844412">
        <ele>196.73</ele>
        <time>2013-07-14T09:19:52Z</time>
      </trkpt>
      <trkpt lat="41.654248607" lon="2.492818093">
        <ele>197.69</ele>
        <time>2013-07-14T09:20:00Z</time>
      </trkpt>
      <trkpt lat="41.654049201" lon="2.492801078">
        <ele>197.69</ele>
        <time>2013-07-14T09:20:09Z</time>
      </trkpt>
      <trkpt lat="41.653816939" lon="2.492816752">
        <ele>197.69</ele>
        <time>2013-07-14T09:20:18Z</time>
      </trkpt>
      <trkpt lat="41.653659862" lon="2.492840640">
        <ele>197.69</ele>
        <time>2013-07-14T09:20:25Z</time>
      </trkpt>
      <trkpt lat="41.653499935" lon="2.492889674">
        <ele>197.69</ele>
        <time>2013-07-14T09:20:32Z</time>
      </trkpt>
      <trkpt lat="41.653407650" lon="2.492933763">
        <ele>198.17</ele>
        <time>2013-07-14T09:20:36Z</time>
      </trkpt>
      <trkpt lat="41.653258452" lon="2.492994532">
        <ele>199.13</ele>
        <time>2013-07-14T09:20:43Z</time>
      </trkpt>
      <trkpt lat="41.653105231" lon="2.493077178">
        <ele>199.13</ele>
        <time>2013-07-14T09:20:50Z</time>
      </trkpt>
      <trkpt lat="41.652833825" lon="2.493215563">
        <ele>198.17</ele>
        <time>2013-07-14T09:20:57Z</time>
      </trkpt>
      <trkpt lat="41.652808931" lon="2.493222520">
        <ele>198.17</ele>
        <time>2013-07-14T09:20:58Z</time>
      </trkpt>
      <trkpt lat="41.652725196" lon="2.493266022">
        <ele>198.17</ele>
        <time>2013-07-14T09:21:02Z</time>
      </trkpt>
      <trkpt lat="41.652672557" lon="2.493290413">
        <ele>198.17</ele>
        <time>2013-07-14T09:21:07Z</time>
      </trkpt>
      <trkpt lat="41.652514056" lon="2.493333077">
        <ele>198.17</ele>
        <time>2013-07-14T09:21:14Z</time>
      </trkpt>
      <trkpt lat="41.652408946" lon="2.493359313">
        <ele>198.17</ele>
        <time>2013-07-14T09:21:19Z</time>
      </trkpt>
      <trkpt lat="41.652321691" lon="2.493264513">
        <ele>199.61</ele>
        <time>2013-07-14T09:21:25Z</time>
      </trkpt>
      <trkpt lat="41.652138714" lon="2.493272141">
        <ele>200.57</ele>
        <time>2013-07-14T09:21:33Z</time>
      </trkpt>
      <trkpt lat="41.652076269" lon="2.493218748">
        <ele>201.53</ele>
        <time>2013-07-14T09:21:37Z</time>
      </trkpt>
      <trkpt lat="41.651972836" lon="2.493197458">
        <ele>202.49</ele>
        <time>2013-07-14T09:21:44Z</time>
      </trkpt>
      <trkpt lat="41.651955737" lon="2.493202236">
        <ele>202.49</ele>
        <time>2013-07-14T09:21:45Z</time>
      </trkpt>
      <trkpt lat="41.651775442" lon="2.493347578">
        <ele>202.49</ele>
        <time>2013-07-14T09:21:54Z</time>
      </trkpt>
      <trkpt lat="41.651612749" lon="2.493483616">
        <ele>202.49</ele>
        <time>2013-07-14T09:22:01Z</time>
      </trkpt>
      <trkpt lat="41.651447542" lon="2.493652847">
        <ele>203.46</ele>
        <time>2013-07-14T09:22:09Z</time>
      </trkpt>
      <trkpt lat="41.651173705" lon="2.493841356">
        <ele>204.90</ele>
        <time>2013-07-14T09:22:17Z</time>
      </trkpt>
      <trkpt lat="41.650952339" lon="2.493824760">
        <ele>206.82</ele>
        <time>2013-07-14T09:22:25Z</time>
      </trkpt>
      <trkpt lat="41.650774140" lon="2.493900951">
        <ele>208.74</ele>
        <time>2013-07-14T09:22:31Z</time>
      </trkpt>
      <trkpt lat="41.650588900" lon="2.494003462">
        <ele>210.67</ele>
        <time>2013-07-14T09:22:38Z</time>
      </trkpt>
      <trkpt lat="41.650463507" lon="2.494166574">
        <ele>211.15</ele>
        <time>2013-07-14T09:22:45Z</time>
      </trkpt>
      <trkpt lat="41.650435595" lon="2.494200185">
        <ele>211.15</ele>
        <time>2013-07-14T09:22:46Z</time>
      </trkpt>
      <trkpt lat="41.650274998" lon="2.494292302">
        <ele>209.22</ele>
        <time>2013-07-14T09:22:50Z</time>
      </trkpt>
      <trkpt lat="41.650107360" lon="2.494408056">
        <ele>208.26</ele>
        <time>2013-07-14T09:22:54Z</time>
      </trkpt>
      <trkpt lat="41.649899824" lon="2.494523727">
        <ele>207.78</ele>
        <time>2013-07-14T09:22:58Z</time>
      </trkpt>
      <trkpt lat="41.649792871" lon="2.494557841">
        <ele>207.30</ele>
        <time>2013-07-14T09:23:00Z</time>
      </trkpt>
      <trkpt lat="41.649689606" lon="2.494707374">
        <ele>207.30</ele>
        <time>2013-07-14T09:23:04Z</time>
      </trkpt>
      <trkpt lat="41.649682816" lon="2.494749870">
        <ele>207.30</ele>
        <time>2013-07-14T09:23:05Z</time>
      </trkpt>
      <trkpt lat="41.649675608" lon="2.494817093">
        <ele>208.74</ele>
        <time>2013-07-14T09:23:07Z</time>
      </trkpt>
      <trkpt lat="41.649629591" lon="2.495130912">
        <ele>209.22</ele>
        <time>2013-07-14T09:23:15Z</time>
      </trkpt>
      <trkpt lat="41.649520207" lon="2.495457051">
        <ele>209.70</ele>
        <time>2013-07-14T09:23:23Z</time>
      </trkpt>
      <trkpt lat="41.649382744" lon="2.495752178">
        <ele>210.67</ele>
        <time>2013-07-14T09:23:32Z</time>
      </trkpt>
      <trkpt lat="41.649223656" lon="2.496003468">
        <ele>213.55</ele>
        <time>2013-07-14T09:23:42Z</time>
      </trkpt>
      <trkpt lat="41.649101867" lon="2.496138081">
        <ele>214.51</ele>
        <time>2013-07-14T09:23:49Z</time>
      </trkpt>
      <trkpt lat="41.649094490" lon="2.496154761">
        <ele>214.99</ele>
        <time>2013-07-14T09:23:50Z</time>
      </trkpt>
      <trkpt lat="41.649113015" lon="2.496314520">
        <ele>214.99</ele>
        <time>2013-07-14T09:23:55Z</time>
      </trkpt>
      <trkpt lat="41.649119469" lon="2.496482158">
        <ele>213.55</ele>
        <time>2013-07-14T09:23:58Z</time>
      </trkpt>
      <trkpt lat="41.649118295" lon="2.496608641">
        <ele>213.07</ele>
        <time>2013-07-14T09:24:00Z</time>
      </trkpt>
      <trkpt lat="41.649090467" lon="2.496919107">
        <ele>211.63</ele>
        <time>2013-07-14T09:24:04Z</time>
      </trkpt>
      <trkpt lat="41.648943784" lon="2.497316493">
        <ele>210.67</ele>
        <time>2013-07-14T09:24:09Z</time>
      </trkpt>
      <trkpt lat="41.648830796" lon="2.497512126">
        <ele>209.70</ele>
        <time>2013-07-14T09:24:12Z</time>
      </trkpt>
      <trkpt lat="41.648637593" lon="2.497953685">
        <ele>207.78</ele>
        <time>2013-07-14T09:24:18Z</time>
      </trkpt>
      <trkpt lat="41.648516558" lon="2.498042449">
        <ele>206.82</ele>
        <time>2013-07-14T09:24:23Z</time>
      </trkpt>
      <trkpt lat="41.648434499" lon="2.498047143">
        <ele>206.82</ele>
        <time>2013-07-14T09:24:29Z</time>
      </trkpt>
      <trkpt lat="41.648364008" lon="2.498099027">
        <ele>207.78</ele>
        <time>2013-07-14T09:24:35Z</time>
      </trkpt>
      <trkpt lat="41.648310866" lon="2.498155940">
        <ele>207.78</ele>
        <time>2013-07-14T09:24:39Z</time>
      </trkpt>
      <trkpt lat="41.648201399" lon="2.498262810">
        <ele>208.26</ele>
        <time>2013-07-14T09:24:45Z</time>
      </trkpt>
      <trkpt lat="41.648064271" lon="2.498427263">
        <ele>208.26</ele>
        <time>2013-07-14T09:24:52Z</time>
      </trkpt>
      <trkpt lat="41.647922952" lon="2.498645276">
        <ele>208.26</ele>
        <time>2013-07-14T09:25:00Z</time>
      </trkpt>
      <trkpt lat="41.647753889" lon="2.498776788">
        <ele>208.74</ele>
        <time>2013-07-14T09:25:07Z</time>
      </trkpt>
      <trkpt lat="41.647592118" lon="2.498905702">
        <ele>209.22</ele>
        <time>2013-07-14T09:25:13Z</time>
      </trkpt>
      <trkpt lat="41.647459349" lon="2.499063114">
        <ele>209.70</ele>
        <time>2013-07-14T09:25:20Z</time>
      </trkpt>
      <trkpt lat="41.647370082" lon="2.499283726">
        <ele>209.70</ele>
        <time>2013-07-14T09:25:27Z</time>
      </trkpt>
      <trkpt lat="41.647336386" lon="2.499533255">
        <ele>209.70</ele>
        <time>2013-07-14T09:25:33Z</time>
      </trkpt>
      <trkpt lat="41.647304116" lon="2.499750430">
        <ele>209.70</ele>
        <time>2013-07-14T09:25:39Z</time>
      </trkpt>
      <trkpt lat="41.647296740" lon="2.500078414">
        <ele>209.70</ele>
        <time>2013-07-14T09:25:46Z</time>
      </trkpt>
      <trkpt lat="41.647329429" lon="2.500406649">
        <ele>209.70</ele>
        <time>2013-07-14T09:25:53Z</time>
      </trkpt>
      <trkpt lat="41.647389695" lon="2.500763299">
        <ele>209.70</ele>
        <time>2013-07-14T09:26:01Z</time>
      </trkpt>
      <trkpt lat="41.647462953" lon="2.501103688">
        <ele>210.67</ele>
        <time>2013-07-14T09:26:09Z</time>
      </trkpt>
      <trkpt lat="41.647508551" lon="2.501366880">
        <ele>211.15</ele>
        <time>2013-07-14T09:26:16Z</time>
      </trkpt>
      <trkpt lat="41.647555992" lon="2.501641303">
        <ele>211.15</ele>
        <time>2013-07-14T09:26:23Z</time>
      </trkpt>
      <trkpt lat="41.647678871" lon="2.502047239">
        <ele>211.63</ele>
        <time>2013-07-14T09:26:31Z</time>
      </trkpt>
      <trkpt lat="41.647839217" lon="2.502385533">
        <ele>212.11</ele>
        <time>2013-07-14T09:26:39Z</time>
      </trkpt>
      <trkpt lat="41.647963436" lon="2.502537077">
        <ele>212.11</ele>
        <time>2013-07-14T09:26:45Z</time>
      </trkpt>
      <trkpt lat="41.648131494" lon="2.502721395">
        <ele>212.59</ele>
        <time>2013-07-14T09:26:53Z</time>
      </trkpt>
      <trkpt lat="41.648243392" lon="2.502841340">
        <ele>212.59</ele>
        <time>2013-07-14T09:26:58Z</time>
      </trkpt>
      <trkpt lat="41.648393512" lon="2.503039405">
        <ele>213.07</ele>
        <time>2013-07-14T09:27:06Z</time>
      </trkpt>
      <trkpt lat="41.648508679" lon="2.503195560">
        <ele>213.55</ele>
        <time>2013-07-14T09:27:12Z</time>
      </trkpt>
      <trkpt lat="41.648655614" lon="2.503403012">
        <ele>214.03</ele>
        <time>2013-07-14T09:27:20Z</time>
      </trkpt>
      <trkpt lat="41.648814200" lon="2.503613565">
        <ele>214.51</ele>
        <time>2013-07-14T09:27:27Z</time>
      </trkpt>
      <trkpt lat="41.649029447" lon="2.503829399">
        <ele>214.51</ele>
        <time>2013-07-14T09:27:35Z</time>
      </trkpt>
      <trkpt lat="41.649174705" lon="2.504049089">
        <ele>214.99</ele>
        <time>2013-07-14T09:27:42Z</time>
      </trkpt>
      <trkpt lat="41.649240671" lon="2.504235000">
        <ele>214.99</ele>
        <time>2013-07-14T09:27:48Z</time>
      </trkpt>
      <trkpt lat="41.649314180" lon="2.504477991">
        <ele>215.47</ele>
        <time>2013-07-14T09:27:55Z</time>
      </trkpt>
      <trkpt lat="41.649352066" lon="2.504665746">
        <ele>215.95</ele>
        <time>2013-07-14T09:28:01Z</time>
      </trkpt>
      <trkpt lat="41.649347456" lon="2.504868923">
        <ele>216.43</ele>
        <time>2013-07-14T09:28:07Z</time>
      </trkpt>
      <trkpt lat="41.649337147" lon="2.505133959">
        <ele>216.43</ele>
        <time>2013-07-14T09:28:14Z</time>
      </trkpt>
      <trkpt lat="41.649288783" lon="2.505349960">
        <ele>216.43</ele>
        <time>2013-07-14T09:28:21Z</time>
      </trkpt>
      <trkpt lat="41.649206640" lon="2.505548779">
        <ele>216.91</ele>
        <time>2013-07-14T09:28:28Z</time>
      </trkpt>
      <trkpt lat="41.649141010" lon="2.505769726">
        <ele>217.40</ele>
        <time>2013-07-14T09:28:36Z</time>
      </trkpt>
      <trkpt lat="41.649047552" lon="2.506006179">
        <ele>217.88</ele>
        <time>2013-07-14T09:28:43Z</time>
      </trkpt>
      <trkpt lat="41.648880501" lon="2.506116066">
        <ele>218.36</ele>
        <time>2013-07-14T09:28:50Z</time>
      </trkpt>
      <trkpt lat="41.648860132" lon="2.506126376">
        <ele>218.36</ele>
        <time>2013-07-14T09:28:51Z</time>
      </trkpt>
      <trkpt lat="41.648803136" lon="2.506275574">
        <ele>218.84</ele>
        <time>2013-07-14T09:28:56Z</time>
      </trkpt>
      <trkpt lat="41.648803974" lon="2.506360734">
        <ele>218.84</ele>
        <time>2013-07-14T09:28:58Z</time>
      </trkpt>
      <trkpt lat="41.648711857" lon="2.506516721">
        <ele>218.84</ele>
        <time>2013-07-14T09:29:02Z</time>
      </trkpt>
      <trkpt lat="41.648573807" lon="2.506805059">
        <ele>218.84</ele>
        <time>2013-07-14T09:29:09Z</time>
      </trkpt>
      <trkpt lat="41.648557797" lon="2.506850572">
        <ele>218.84</ele>
        <time>2013-07-14T09:29:10Z</time>
      </trkpt>
      <trkpt lat="41.648369875" lon="2.507093396">
        <ele>219.32</ele>
        <time>2013-07-14T09:29:17Z</time>
      </trkpt>
      <trkpt lat="41.648300054" lon="2.507402856">
        <ele>219.32</ele>
        <time>2013-07-14T09:29:24Z</time>
      </trkpt>
      <trkpt lat="41.648194609" lon="2.507732432">
        <ele>219.80</ele>
        <time>2013-07-14T09:29:31Z</time>
      </trkpt>
      <trkpt lat="41.648088578" lon="2.508039294">
        <ele>220.28</ele>
        <time>2013-07-14T09:29:38Z</time>
      </trkpt>
      <trkpt lat="41.647952372" lon="2.508428466">
        <ele>221.24</ele>
        <time>2013-07-14T09:29:47Z</time>
      </trkpt>
      <trkpt lat="41.647818430" lon="2.508741949">
        <ele>221.72</ele>
        <time>2013-07-14T09:29:55Z</time>
      </trkpt>
      <trkpt lat="41.647732180" lon="2.508947389">
        <ele>222.20</ele>
        <time>2013-07-14T09:30:01Z</time>
      </trkpt>
      <trkpt lat="41.647548951" lon="2.509263136">
        <ele>223.64</ele>
        <time>2013-07-14T09:30:10Z</time>
      </trkpt>
      <trkpt lat="41.647380307" lon="2.509563459">
        <ele>224.61</ele>
        <time>2013-07-14T09:30:19Z</time>
      </trkpt>
      <trkpt lat="41.647388522" lon="2.509672675">
        <ele>224.61</ele>
        <time>2013-07-14T09:30:23Z</time>
      </trkpt>
      <trkpt lat="41.647584407" lon="2.509861436">
        <ele>225.57</ele>
        <time>2013-07-14T09:30:33Z</time>
      </trkpt>
      <trkpt lat="41.647697395" lon="2.509975597">
        <ele>225.57</ele>
        <time>2013-07-14T09:30:39Z</time>
      </trkpt>
      <trkpt lat="41.647806611" lon="2.510076264">
        <ele>226.53</ele>
        <time>2013-07-14T09:30:47Z</time>
      </trkpt>
      <trkpt lat="41.647903087" lon="2.510192521">
        <ele>227.01</ele>
        <time>2013-07-14T09:30:53Z</time>
      </trkpt>
      <trkpt lat="41.648029067" lon="2.510330655">
        <ele>227.49</ele>
        <time>2013-07-14T09:31:00Z</time>
      </trkpt>
      <trkpt lat="41.648058990" lon="2.510339540">
        <ele>227.97</ele>
        <time>2013-07-14T09:31:04Z</time>
      </trkpt>
      <trkpt lat="41.648167033" lon="2.510441380">
        <ele>227.97</ele>
        <time>2013-07-14T09:31:10Z</time>
      </trkpt>
      <trkpt lat="41.648374904" lon="2.510611700">
        <ele>228.45</ele>
        <time>2013-07-14T09:31:19Z</time>
      </trkpt>
      <trkpt lat="41.648540531" lon="2.510751845">
        <ele>228.45</ele>
        <time>2013-07-14T09:31:25Z</time>
      </trkpt>
      <trkpt lat="41.648759801" lon="2.510800628">
        <ele>227.49</ele>
        <time>2013-07-14T09:31:31Z</time>
      </trkpt>
      <trkpt lat="41.648950908" lon="2.510656376">
        <ele>226.53</ele>
        <time>2013-07-14T09:31:36Z</time>
      </trkpt>
      <trkpt lat="41.649132209" lon="2.510490833">
        <ele>226.53</ele>
        <time>2013-07-14T09:31:42Z</time>
      </trkpt>
      <trkpt lat="41.649200773" lon="2.510492593">
        <ele>226.53</ele>
        <time>2013-07-14T09:31:44Z</time>
      </trkpt>
      <trkpt lat="41.649300685" lon="2.510518577">
        <ele>227.97</ele>
        <time>2013-07-14T09:31:47Z</time>
      </trkpt>
      <trkpt lat="41.649492631" lon="2.510622764">
        <ele>228.93</ele>
        <time>2013-07-14T09:31:54Z</time>
      </trkpt>
      <trkpt lat="41.649664125" lon="2.510726113">
        <ele>230.37</ele>
        <time>2013-07-14T09:32:01Z</time>
      </trkpt>
      <trkpt lat="41.649901249" lon="2.510810686">
        <ele>232.30</ele>
        <time>2013-07-14T09:32:10Z</time>
      </trkpt>
      <trkpt lat="41.650173661" lon="2.510890314">
        <ele>234.70</ele>
        <time>2013-07-14T09:32:21Z</time>
      </trkpt>
      <trkpt lat="41.650398044" lon="2.510982012">
        <ele>236.14</ele>
        <time>2013-07-14T09:32:29Z</time>
      </trkpt>
      <trkpt lat="41.650578004" lon="2.511141017">
        <ele>236.62</ele>
        <time>2013-07-14T09:32:37Z</time>
      </trkpt>
      <trkpt lat="41.650784785" lon="2.511255682">
        <ele>238.54</ele>
        <time>2013-07-14T09:32:46Z</time>
      </trkpt>
      <trkpt lat="41.650984945" lon="2.511188710">
        <ele>239.51</ele>
        <time>2013-07-14T09:32:54Z</time>
      </trkpt>
      <trkpt lat="41.651177310" lon="2.511053007">
        <ele>240.47</ele>
        <time>2013-07-14T09:33:02Z</time>
      </trkpt>
      <trkpt lat="41.651354587" lon="2.510961980">
        <ele>241.91</ele>
        <time>2013-07-14T09:33:09Z</time>
      </trkpt>
      <trkpt lat="41.651494313" lon="2.511017971">
        <ele>242.39</ele>
        <time>2013-07-14T09:33:15Z</time>
      </trkpt>
      <trkpt lat="41.651703861" lon="2.511103718">
        <ele>243.35</ele>
        <time>2013-07-14T09:33:23Z</time>
      </trkpt>
      <trkpt lat="41.651871247" lon="2.511109585">
        <ele>244.31</ele>
        <time>2013-07-14T09:33:29Z</time>
      </trkpt>
      <trkpt lat="41.652068474" lon="2.511181669">
        <ele>245.27</ele>
        <time>2013-07-14T09:33:36Z</time>
      </trkpt>
      <trkpt lat="41.652305346" lon="2.511249144">
        <ele>245.75</ele>
        <time>2013-07-14T09:33:44Z</time>
      </trkpt>
      <trkpt lat="41.652495699" lon="2.511257190">
        <ele>247.68</ele>
        <time>2013-07-14T09:33:51Z</time>
      </trkpt>
      <trkpt lat="41.652709689" lon="2.511341680">
        <ele>251.04</ele>
        <time>2013-07-14T09:33:59Z</time>
      </trkpt>
      <trkpt lat="41.652931390" lon="2.511453495">
        <ele>253.93</ele>
        <time>2013-07-14T09:34:08Z</time>
      </trkpt>
      <trkpt lat="41.653101962" lon="2.511460787">
        <ele>255.85</ele>
        <time>2013-07-14T09:34:15Z</time>
      </trkpt>
      <trkpt lat="41.653255854" lon="2.511380153">
        <ele>256.81</ele>
        <time>2013-07-14T09:34:21Z</time>
      </trkpt>
      <trkpt lat="41.653414020" lon="2.511288623">
        <ele>258.73</ele>
        <time>2013-07-14T09:34:29Z</time>
      </trkpt>
      <trkpt lat="41.653556597" lon="2.511106903">
        <ele>260.17</ele>
        <time>2013-07-14T09:34:38Z</time>
      </trkpt>
      <trkpt lat="41.653647205" lon="2.510965081">
        <ele>261.62</ele>
        <time>2013-07-14T09:34:45Z</time>
      </trkpt>
      <trkpt lat="41.653777125" lon="2.510839939">
        <ele>263.54</ele>
        <time>2013-07-14T09:34:53Z</time>
      </trkpt>
      <trkpt lat="41.653900590" lon="2.510689149">
        <ele>265.46</ele>
        <time>2013-07-14T09:35:01Z</time>
      </trkpt>
      <trkpt lat="41.654021541" lon="2.510525786">
        <ele>266.42</ele>
        <time>2013-07-14T09:35:09Z</time>
      </trkpt>
      <trkpt lat="41.654141570" lon="2.510309449">
        <ele>268.35</ele>
        <time>2013-07-14T09:35:18Z</time>
      </trkpt>
      <trkpt lat="41.654204602" lon="2.510116413">
        <ele>269.31</ele>
        <time>2013-07-14T09:35:26Z</time>
      </trkpt>
      <trkpt lat="41.654232765" lon="2.509939555">
        <ele>270.27</ele>
        <time>2013-07-14T09:35:33Z</time>
      </trkpt>
      <trkpt lat="41.654326810" lon="2.509803433">
        <ele>270.75</ele>
        <time>2013-07-14T09:35:40Z</time>
      </trkpt>
      <trkpt lat="41.654459411" lon="2.509853138">
        <ele>271.23</ele>
        <time>2013-07-14T09:35:47Z</time>
      </trkpt>
      <trkpt lat="41.654657057" lon="2.509875098">
        <ele>271.71</ele>
        <time>2013-07-14T09:35:56Z</time>
      </trkpt>
      <trkpt lat="41.654828048" lon="2.509734618">
        <ele>272.19</ele>
        <time>2013-07-14T09:36:04Z</time>
      </trkpt>
      <trkpt lat="41.654973976" lon="2.509642417">
        <ele>273.15</ele>
        <time>2013-07-14T09:36:11Z</time>
      </trkpt>
      <trkpt lat="41.655175058" lon="2.509657169">
        <ele>273.63</ele>
        <time>2013-07-14T09:36:19Z</time>
      </trkpt>
      <trkpt lat="41.655344708" lon="2.509533201">
        <ele>274.11</ele>
        <time>2013-07-14T09:36:26Z</time>
      </trkpt>
      <trkpt lat="41.655434143" lon="2.509255340">
        <ele>274.59</ele>
        <time>2013-07-14T09:36:34Z</time>
      </trkpt>
      <trkpt lat="41.655489212" lon="2.508990556">
        <ele>275.56</ele>
        <time>2013-07-14T09:36:42Z</time>
      </trkpt>
      <trkpt lat="41.655621814" lon="2.508934397">
        <ele>277.00</ele>
        <time>2013-07-14T09:36:49Z</time>
      </trkpt>
      <trkpt lat="41.655820130" lon="2.508900702">
        <ele>279.40</ele>
        <time>2013-07-14T09:36:58Z</time>
      </trkpt>
      <trkpt lat="41.655988271" lon="2.508866085">
        <ele>281.32</ele>
        <time>2013-07-14T09:37:06Z</time>
      </trkpt>
      <trkpt lat="41.656093296" lon="2.508886788">
        <ele>282.28</ele>
        <time>2013-07-14T09:37:11Z</time>
      </trkpt>
      <trkpt lat="41.656143503" lon="2.508980079">
        <ele>283.73</ele>
        <time>2013-07-14T09:37:15Z</time>
      </trkpt>
      <trkpt lat="41.656259844" lon="2.509193985">
        <ele>285.65</ele>
        <time>2013-07-14T09:37:24Z</time>
      </trkpt>
      <trkpt lat="41.656452209" lon="2.509225920">
        <ele>287.09</ele>
        <time>2013-07-14T09:37:32Z</time>
      </trkpt>
      <trkpt lat="41.656652369" lon="2.509246623">
        <ele>289.97</ele>
        <time>2013-07-14T09:37:41Z</time>
      </trkpt>
      <trkpt lat="41.656695787" lon="2.509233128">
        <ele>290.46</ele>
        <time>2013-07-14T09:37:43Z</time>
      </trkpt>
      <trkpt lat="41.656735014" lon="2.509143526">
        <ele>291.42</ele>
        <time>2013-07-14T09:37:47Z</time>
      </trkpt>
      <trkpt lat="41.656715736" lon="2.508884693">
        <ele>293.82</ele>
        <time>2013-07-14T09:37:56Z</time>
      </trkpt>
      <trkpt lat="41.656721687" lon="2.508680090">
        <ele>295.26</ele>
        <time>2013-07-14T09:38:04Z</time>
      </trkpt>
      <trkpt lat="41.656751108" lon="2.508435674">
        <ele>297.18</ele>
        <time>2013-07-14T09:38:13Z</time>
      </trkpt>
      <trkpt lat="41.656739876" lon="2.508249261">
        <ele>297.67</ele>
        <time>2013-07-14T09:38:21Z</time>
      </trkpt>
      <trkpt lat="41.656729482" lon="2.508070810">
        <ele>299.59</ele>
        <time>2013-07-14T09:38:29Z</time>
      </trkpt>
      <trkpt lat="41.656703247" lon="2.507913146">
        <ele>301.03</ele>
        <time>2013-07-14T09:38:36Z</time>
      </trkpt>
      <trkpt lat="41.656594282" lon="2.507729331">
        <ele>301.99</ele>
        <time>2013-07-14T09:38:44Z</time>
      </trkpt>
      <trkpt lat="41.656389345" lon="2.507621121">
        <ele>302.47</ele>
        <time>2013-07-14T09:38:53Z</time>
      </trkpt>
      <trkpt lat="41.656213408" lon="2.507647524">
        <ele>303.91</ele>
        <time>2013-07-14T09:39:01Z</time>
      </trkpt>
      <trkpt lat="41.656132355" lon="2.507793537">
        <ele>304.39</ele>
        <time>2013-07-14T09:39:08Z</time>
      </trkpt>
      <trkpt lat="41.656105533" lon="2.507865202">
        <ele>304.88</ele>
        <time>2013-07-14T09:39:11Z</time>
      </trkpt>
      <trkpt lat="41.655952145" lon="2.507950613">
        <ele>305.84</ele>
        <time>2013-07-14T09:39:18Z</time>
      </trkpt>
      <trkpt lat="41.655792050" lon="2.507905686">
        <ele>306.80</ele>
        <time>2013-07-14T09:39:25Z</time>
      </trkpt>
      <trkpt lat="41.655686606" lon="2.507752298">
        <ele>307.76</ele>
        <time>2013-07-14T09:39:32Z</time>
      </trkpt>
      <trkpt lat="41.655605637" lon="2.507471252">
        <ele>308.24</ele>
        <time>2013-07-14T09:39:40Z</time>
      </trkpt>
      <trkpt lat="41.655531289" lon="2.507351559">
        <ele>308.72</ele>
        <time>2013-07-14T09:39:44Z</time>
      </trkpt>
      <trkpt lat="41.655327190" lon="2.507319959">
        <ele>309.68</ele>
        <time>2013-07-14T09:39:51Z</time>
      </trkpt>
      <trkpt lat="41.655052180" lon="2.507454405">
        <ele>311.60</ele>
        <time>2013-07-14T09:40:01Z</time>
      </trkpt>
      <trkpt lat="41.654878423" lon="2.507485250">
        <ele>312.57</ele>
        <time>2013-07-14T09:40:08Z</time>
      </trkpt>
      <trkpt lat="41.654734589" lon="2.507455997">
        <ele>311.12</ele>
        <time>2013-07-14T09:40:12Z</time>
      </trkpt>
      <trkpt lat="41.654651692" lon="2.507438395">
        <ele>309.20</ele>
        <time>2013-07-14T09:40:14Z</time>
      </trkpt>
      <trkpt lat="41.654544991" lon="2.507396402">
        <ele>307.28</ele>
        <time>2013-07-14T09:40:18Z</time>
      </trkpt>
      <trkpt lat="41.654551277" lon="2.507291209">
        <ele>307.28</ele>
        <time>2013-07-14T09:40:22Z</time>
      </trkpt>
      <trkpt lat="41.654573070" lon="2.507234883">
        <ele>307.28</ele>
        <time>2013-07-14T09:40:24Z</time>
      </trkpt>
      <trkpt lat="41.654661834" lon="2.506944114">
        <ele>308.72</ele>
        <time>2013-07-14T09:40:33Z</time>
      </trkpt>
      <trkpt lat="41.654740289" lon="2.506677318">
        <ele>309.20</ele>
        <time>2013-07-14T09:40:41Z</time>
      </trkpt>
      <trkpt lat="41.654806506" lon="2.506527115">
        <ele>310.16</ele>
        <time>2013-07-14T09:40:46Z</time>
      </trkpt>
      <trkpt lat="41.654958135" lon="2.506517140">
        <ele>310.64</ele>
        <time>2013-07-14T09:40:52Z</time>
      </trkpt>
      <trkpt lat="41.655131389" lon="2.506595679">
        <ele>310.64</ele>
        <time>2013-07-14T09:40:57Z</time>
      </trkpt>
      <trkpt lat="41.655482255" lon="2.506684359">
        <ele>307.76</ele>
        <time>2013-07-14T09:41:03Z</time>
      </trkpt>
      <trkpt lat="41.655855753" lon="2.506677486">
        <ele>304.88</ele>
        <time>2013-07-14T09:41:07Z</time>
      </trkpt>
      <trkpt lat="41.656043759" lon="2.506644881">
        <ele>304.88</ele>
        <time>2013-07-14T09:41:09Z</time>
      </trkpt>
      <trkpt lat="41.656394122" lon="2.506449079">
        <ele>304.88</ele>
        <time>2013-07-14T09:41:14Z</time>
      </trkpt>
      <trkpt lat="41.656609202" lon="2.506243806">
        <ele>307.28</ele>
        <time>2013-07-14T09:41:20Z</time>
      </trkpt>
      <trkpt lat="41.656769296" lon="2.506024620">
        <ele>309.68</ele>
        <time>2013-07-14T09:41:28Z</time>
      </trkpt>
      <trkpt lat="41.656892259" lon="2.505794872">
        <ele>311.60</ele>
        <time>2013-07-14T09:41:36Z</time>
      </trkpt>
      <trkpt lat="41.657016646" lon="2.505505445">
        <ele>313.53</ele>
        <time>2013-07-14T09:41:45Z</time>
      </trkpt>
      <trkpt lat="41.657150589" lon="2.505260442">
        <ele>314.49</ele>
        <time>2013-07-14T09:41:53Z</time>
      </trkpt>
      <trkpt lat="41.657310767" lon="2.505033627">
        <ele>315.45</ele>
        <time>2013-07-14T09:42:01Z</time>
      </trkpt>
      <trkpt lat="41.657498019" lon="2.504880909">
        <ele>316.41</ele>
        <time>2013-07-14T09:42:09Z</time>
      </trkpt>
      <trkpt lat="41.657699185" lon="2.504878646">
        <ele>316.89</ele>
        <time>2013-07-14T09:42:16Z</time>
      </trkpt>
      <trkpt lat="41.657921724" lon="2.504903792">
        <ele>317.37</ele>
        <time>2013-07-14T09:42:23Z</time>
      </trkpt>
      <trkpt lat="41.658234453" lon="2.504932122">
        <ele>318.33</ele>
        <time>2013-07-14T09:42:33Z</time>
      </trkpt>
      <trkpt lat="41.658374012" lon="2.505028179">
        <ele>319.30</ele>
        <time>2013-07-14T09:42:39Z</time>
      </trkpt>
      <trkpt lat="41.658543578" lon="2.505219203">
        <ele>319.78</ele>
        <time>2013-07-14T09:42:47Z</time>
      </trkpt>
      <trkpt lat="41.658695961" lon="2.505338142">
        <ele>319.78</ele>
        <time>2013-07-14T09:42:52Z</time>
      </trkpt>
      <trkpt lat="41.658761675" lon="2.505508797">
        <ele>319.78</ele>
        <time>2013-07-14T09:42:56Z</time>
      </trkpt>
      <trkpt lat="41.658821186" lon="2.505653469">
        <ele>320.74</ele>
        <time>2013-07-14T09:43:01Z</time>
      </trkpt>
      <trkpt lat="41.658972312" lon="2.505877014">
        <ele>323.62</ele>
        <time>2013-07-14T09:43:09Z</time>
      </trkpt>
      <trkpt lat="41.659103908" lon="2.506059405">
        <ele>325.54</ele>
        <time>2013-07-14T09:43:16Z</time>
      </trkpt>
      <trkpt lat="41.659165766" lon="2.506262079">
        <ele>326.50</ele>
        <time>2013-07-14T09:43:22Z</time>
      </trkpt>
      <trkpt lat="41.659267439" lon="2.506424101">
        <ele>327.95</ele>
        <time>2013-07-14T09:43:28Z</time>
      </trkpt>
      <trkpt lat="41.659410853" lon="2.506635912">
        <ele>329.87</ele>
        <time>2013-07-14T09:43:36Z</time>
      </trkpt>
      <trkpt lat="41.659512945" lon="2.506796258">
        <ele>331.31</ele>
        <time>2013-07-14T09:43:42Z</time>
      </trkpt>
      <trkpt lat="41.659609588" lon="2.506975630">
        <ele>331.79</ele>
        <time>2013-07-14T09:43:49Z</time>
      </trkpt>
      <trkpt lat="41.659561979" lon="2.507111082">
        <ele>332.75</ele>
        <time>2013-07-14T09:43:56Z</time>
      </trkpt>
      <trkpt lat="41.659541527" lon="2.507176042">
        <ele>332.75</ele>
        <time>2013-07-14T09:44:04Z</time>
      </trkpt>
      <trkpt lat="41.659502970" lon="2.507352900">
        <ele>331.31</ele>
        <time>2013-07-14T09:44:09Z</time>
      </trkpt>
      <trkpt lat="41.659485871" lon="2.507389864">
        <ele>331.31</ele>
        <time>2013-07-14T09:44:10Z</time>
      </trkpt>
      <trkpt lat="41.659403896" lon="2.507579714">
        <ele>330.35</ele>
        <time>2013-07-14T09:44:16Z</time>
      </trkpt>
      <trkpt lat="41.659340864" lon="2.507758416">
        <ele>328.43</ele>
        <time>2013-07-14T09:44:21Z</time>
      </trkpt>
      <trkpt lat="41.659329968" lon="2.507861765">
        <ele>327.95</ele>
        <time>2013-07-14T09:44:23Z</time>
      </trkpt>
      <trkpt lat="41.659384869" lon="2.508077851">
        <ele>326.50</ele>
        <time>2013-07-14T09:44:28Z</time>
      </trkpt>
      <trkpt lat="41.659499617" lon="2.508265689">
        <ele>325.06</ele>
        <time>2013-07-14T09:44:33Z</time>
      </trkpt>
      <trkpt lat="41.659574216" lon="2.508496024">
        <ele>322.66</ele>
        <time>2013-07-14T09:44:38Z</time>
      </trkpt>
      <trkpt lat="41.659562566" lon="2.508580262">
        <ele>322.18</ele>
        <time>2013-07-14T09:44:40Z</time>
      </trkpt>
      <trkpt lat="41.659561895" lon="2.508873042">
        <ele>318.81</ele>
        <time>2013-07-14T09:44:46Z</time>
      </trkpt>
      <trkpt lat="41.659611851" lon="2.509109998">
        <ele>316.41</ele>
        <time>2013-07-14T09:44:51Z</time>
      </trkpt>
      <trkpt lat="41.659732718" lon="2.509313008">
        <ele>314.49</ele>
        <time>2013-07-14T09:44:56Z</time>
      </trkpt>
      <trkpt lat="41.659764821" lon="2.509336226">
        <ele>314.49</ele>
        <time>2013-07-14T09:44:58Z</time>
      </trkpt>
      <trkpt lat="41.659977554" lon="2.509458182">
        <ele>314.49</ele>
        <time>2013-07-14T09:45:06Z</time>
      </trkpt>
      <trkpt lat="41.660145778" lon="2.509500343">
        <ele>313.53</ele>
        <time>2013-07-14T09:45:10Z</time>
      </trkpt>
      <trkpt lat="41.660312578" lon="2.509533452">
        <ele>311.60</ele>
        <time>2013-07-14T09:45:13Z</time>
      </trkpt>
      <trkpt lat="41.660555402" lon="2.509731600">
        <ele>310.64</ele>
        <time>2013-07-14T09:45:19Z</time>
      </trkpt>
      <trkpt lat="41.660593372" lon="2.509766217">
        <ele>310.64</ele>
        <time>2013-07-14T09:45:20Z</time>
      </trkpt>
      <trkpt lat="41.660754388" lon="2.509943076">
        <ele>308.24</ele>
        <time>2013-07-14T09:45:25Z</time>
      </trkpt>
      <trkpt lat="41.660990255" lon="2.510190593">
        <ele>305.36</ele>
        <time>2013-07-14T09:45:32Z</time>
      </trkpt>
      <trkpt lat="41.661126712" lon="2.510375079">
        <ele>303.43</ele>
        <time>2013-07-14T09:45:38Z</time>
      </trkpt>
      <trkpt lat="41.661258225" lon="2.510432663">
        <ele>302.95</ele>
        <time>2013-07-14T09:45:43Z</time>
      </trkpt>
      <trkpt lat="41.661395604" lon="2.510514302">
        <ele>304.39</ele>
        <time>2013-07-14T09:45:49Z</time>
      </trkpt>
      <trkpt lat="41.661447991" lon="2.510569120">
        <ele>304.88</ele>
        <time>2013-07-14T09:45:52Z</time>
      </trkpt>
      <trkpt lat="41.661484284" lon="2.510647323">
        <ele>305.36</ele>
        <time>2013-07-14T09:45:56Z</time>
      </trkpt>
      <trkpt lat="41.661551340" lon="2.510916047">
        <ele>305.36</ele>
        <time>2013-07-14T09:46:03Z</time>
      </trkpt>
      <trkpt lat="41.661608085" lon="2.511193153">
        <ele>305.84</ele>
        <time>2013-07-14T09:46:11Z</time>
      </trkpt>
      <trkpt lat="41.661677655" lon="2.511437569">
        <ele>306.80</ele>
        <time>2013-07-14T09:46:18Z</time>
      </trkpt>
      <trkpt lat="41.661817298" lon="2.511769660">
        <ele>307.28</ele>
        <time>2013-07-14T09:46:27Z</time>
      </trkpt>
      <trkpt lat="41.661847221" lon="2.512016758">
        <ele>307.28</ele>
        <time>2013-07-14T09:46:33Z</time>
      </trkpt>
      <trkpt lat="41.661850993" lon="2.512238208">
        <ele>307.28</ele>
        <time>2013-07-14T09:46:38Z</time>
      </trkpt>
      <trkpt lat="41.661897596" lon="2.512564264">
        <ele>307.28</ele>
        <time>2013-07-14T09:46:45Z</time>
      </trkpt>
      <trkpt lat="41.661827356" lon="2.512851596">
        <ele>307.28</ele>
        <time>2013-07-14T09:46:52Z</time>
      </trkpt>
      <trkpt lat="41.661710596" lon="2.513122164">
        <ele>307.28</ele>
        <time>2013-07-14T09:47:00Z</time>
      </trkpt>
      <trkpt lat="41.661590399" lon="2.513346128">
        <ele>308.72</ele>
        <time>2013-07-14T09:47:08Z</time>
      </trkpt>
      <trkpt lat="41.661421001" lon="2.513407149">
        <ele>309.20</ele>
        <time>2013-07-14T09:47:14Z</time>
      </trkpt>
      <trkpt lat="41.661206341" lon="2.513492141">
        <ele>309.20</ele>
        <time>2013-07-14T09:47:22Z</time>
      </trkpt>
      <trkpt lat="41.661053538" lon="2.513622647">
        <ele>307.28</ele>
        <time>2013-07-14T09:47:28Z</time>
      </trkpt>
      <trkpt lat="41.661043899" lon="2.513827417">
        <ele>307.28</ele>
        <time>2013-07-14T09:47:33Z</time>
      </trkpt>
      <trkpt lat="41.661029063" lon="2.514082898">
        <ele>305.84</ele>
        <time>2013-07-14T09:47:38Z</time>
      </trkpt>
      <trkpt lat="41.660937701" lon="2.514299318">
        <ele>304.39</ele>
        <time>2013-07-14T09:47:42Z</time>
      </trkpt>
      <trkpt lat="41.660951195" lon="2.514462346">
        <ele>304.39</ele>
        <time>2013-07-14T09:47:46Z</time>
      </trkpt>
      <trkpt lat="41.661065106" lon="2.514803071">
        <ele>304.39</ele>
        <time>2013-07-14T09:47:54Z</time>
      </trkpt>
      <trkpt lat="41.661138699" lon="2.514998118">
        <ele>304.88</ele>
        <time>2013-07-14T09:47:59Z</time>
      </trkpt>
      <trkpt lat="41.661239701" lon="2.515135413">
        <ele>303.43</ele>
        <time>2013-07-14T09:48:02Z</time>
      </trkpt>
      <trkpt lat="41.661337517" lon="2.515332556">
        <ele>301.99</ele>
        <time>2013-07-14T09:48:06Z</time>
      </trkpt>
      <trkpt lat="41.661346654" lon="2.515542187">
        <ele>300.55</ele>
        <time>2013-07-14T09:48:09Z</time>
      </trkpt>
      <trkpt lat="41.661266020" lon="2.515986344">
        <ele>298.63</ele>
        <time>2013-07-14T09:48:16Z</time>
      </trkpt>
      <trkpt lat="41.661221512" lon="2.516187845">
        <ele>298.15</ele>
        <time>2013-07-14T09:48:19Z</time>
      </trkpt>
      <trkpt lat="41.661202485" lon="2.516446091">
        <ele>297.67</ele>
        <time>2013-07-14T09:48:23Z</time>
      </trkpt>
      <trkpt lat="41.661207346" lon="2.516592775">
        <ele>296.70</ele>
        <time>2013-07-14T09:48:25Z</time>
      </trkpt>
      <trkpt lat="41.661187481" lon="2.516737865">
        <ele>296.22</ele>
        <time>2013-07-14T09:48:27Z</time>
      </trkpt>
      <trkpt lat="41.661096705" lon="2.516924363">
        <ele>297.67</ele>
        <time>2013-07-14T09:48:32Z</time>
      </trkpt>
      <trkpt lat="41.660978353" lon="2.517018743">
        <ele>299.11</ele>
        <time>2013-07-14T09:48:38Z</time>
      </trkpt>
      <trkpt lat="41.660881207" lon="2.517141873">
        <ele>300.07</ele>
        <time>2013-07-14T09:48:43Z</time>
      </trkpt>
      <trkpt lat="41.660763357" lon="2.517326862">
        <ele>302.47</ele>
        <time>2013-07-14T09:48:51Z</time>
      </trkpt>
      <trkpt lat="41.660674425" lon="2.517462146">
        <ele>305.36</ele>
        <time>2013-07-14T09:48:58Z</time>
      </trkpt>
      <trkpt lat="41.660618769" lon="2.517583683">
        <ele>306.80</ele>
        <time>2013-07-14T09:49:04Z</time>
      </trkpt>
      <trkpt lat="41.660549702" lon="2.517734809">
        <ele>309.68</ele>
        <time>2013-07-14T09:49:11Z</time>
      </trkpt>
      <trkpt lat="41.660473595" lon="2.517891383">
        <ele>311.60</ele>
        <time>2013-07-14T09:49:20Z</time>
      </trkpt>
      <trkpt lat="41.660460016" lon="2.518132446">
        <ele>311.60</ele>
        <time>2013-07-14T09:49:28Z</time>
      </trkpt>
      <trkpt lat="41.660475020" lon="2.518367726">
        <ele>311.60</ele>
        <time>2013-07-14T09:49:33Z</time>
      </trkpt>
      <trkpt lat="41.660485581" lon="2.518597977">
        <ele>310.16</ele>
        <time>2013-07-14T09:49:37Z</time>
      </trkpt>
      <trkpt lat="41.660489436" lon="2.518693783">
        <ele>310.16</ele>
        <time>2013-07-14T09:49:39Z</time>
      </trkpt>
      <trkpt lat="41.660493041" lon="2.519052444">
        <ele>310.64</ele>
        <time>2013-07-14T09:49:48Z</time>
      </trkpt>
      <trkpt lat="41.660481390" lon="2.519316139">
        <ele>310.16</ele>
        <time>2013-07-14T09:49:55Z</time>
      </trkpt>
      <trkpt lat="41.660532436" lon="2.519625347">
        <ele>308.72</ele>
        <time>2013-07-14T09:50:02Z</time>
      </trkpt>
      <trkpt lat="41.660537549" lon="2.519649655">
        <ele>308.24</ele>
        <time>2013-07-14T09:50:03Z</time>
      </trkpt>
      <trkpt lat="41.660460603" lon="2.519883677">
        <ele>306.32</ele>
        <time>2013-07-14T09:50:10Z</time>
      </trkpt>
      <trkpt lat="41.660402600" lon="2.519996079">
        <ele>305.84</ele>
        <time>2013-07-14T09:50:12Z</time>
      </trkpt>
      <trkpt lat="41.660316769" lon="2.520287937">
        <ele>305.84</ele>
        <time>2013-07-14T09:50:18Z</time>
      </trkpt>
      <trkpt lat="41.660251390" lon="2.520599073">
        <ele>308.24</ele>
        <time>2013-07-14T09:50:27Z</time>
      </trkpt>
      <trkpt lat="41.660171343" lon="2.520734776">
        <ele>305.84</ele>
        <time>2013-07-14T09:50:32Z</time>
      </trkpt>
      <trkpt lat="41.660133289" lon="2.520773584">
        <ele>304.39</ele>
        <time>2013-07-14T09:50:34Z</time>
      </trkpt>
      <trkpt lat="41.660107054" lon="2.520939462">
        <ele>303.43</ele>
        <time>2013-07-14T09:50:41Z</time>
      </trkpt>
      <trkpt lat="41.660104539" lon="2.520986317">
        <ele>303.91</ele>
        <time>2013-07-14T09:50:50Z</time>
      </trkpt>
      <trkpt lat="41.660180563" lon="2.521005847">
        <ele>303.91</ele>
        <time>2013-07-14T09:50:54Z</time>
      </trkpt>
      <trkpt lat="41.660254156" lon="2.521011546">
        <ele>302.95</ele>
        <time>2013-07-14T09:50:56Z</time>
      </trkpt>
      <trkpt lat="41.660455741" lon="2.520967793">
        <ele>301.03</ele>
        <time>2013-07-14T09:51:00Z</time>
      </trkpt>
      <trkpt lat="41.660703007" lon="2.520909203">
        <ele>297.67</ele>
        <time>2013-07-14T09:51:06Z</time>
      </trkpt>
      <trkpt lat="41.660746761" lon="2.520902833">
        <ele>297.18</ele>
        <time>2013-07-14T09:51:10Z</time>
      </trkpt>
      <trkpt lat="41.660768805" lon="2.520889673">
        <ele>296.70</ele>
        <time>2013-07-14T09:51:17Z</time>
      </trkpt>
      <trkpt lat="41.660753466" lon="2.520904426">
        <ele>296.70</ele>
        <time>2013-07-14T09:51:23Z</time>
      </trkpt>
      <trkpt lat="41.660752125" lon="2.520928230">
        <ele>296.70</ele>
        <time>2013-07-14T09:51:31Z</time>
      </trkpt>
      <trkpt lat="41.660749192" lon="2.520980030">
        <ele>296.70</ele>
        <time>2013-07-14T09:51:39Z</time>
      </trkpt>
      <trkpt lat="41.660752963" lon="2.520990089">
        <ele>296.70</ele>
        <time>2013-07-14T09:51:40Z</time>
      </trkpt>
      <trkpt lat="41.660820941" lon="2.521049013">
        <ele>295.26</ele>
        <time>2013-07-14T09:51:45Z</time>
      </trkpt>
      <trkpt lat="41.660979191" lon="2.521182705">
        <ele>291.90</ele>
        <time>2013-07-14T09:51:51Z</time>
      </trkpt>
      <trkpt lat="41.661083378" lon="2.521236768">
        <ele>290.46</ele>
        <time>2013-07-14T09:51:54Z</time>
      </trkpt>
      <trkpt lat="41.661274569" lon="2.521241378">
        <ele>288.05</ele>
        <time>2013-07-14T09:51:59Z</time>
      </trkpt>
      <trkpt lat="41.661591238" lon="2.521420667">
        <ele>286.13</ele>
        <time>2013-07-14T09:52:06Z</time>
      </trkpt>
      <trkpt lat="41.661644211" lon="2.521498283">
        <ele>285.65</ele>
        <time>2013-07-14T09:52:08Z</time>
      </trkpt>
      <trkpt lat="41.661742112" lon="2.521652343">
        <ele>284.69</ele>
        <time>2013-07-14T09:52:11Z</time>
      </trkpt>
      <trkpt lat="41.661900446" lon="2.521882007">
        <ele>281.80</ele>
        <time>2013-07-14T09:52:17Z</time>
      </trkpt>
      <trkpt lat="41.661947468" lon="2.521975801">
        <ele>280.84</ele>
        <time>2013-07-14T09:52:21Z</time>
      </trkpt>
      <trkpt lat="41.661945205" lon="2.522132794">
        <ele>277.48</ele>
        <time>2013-07-14T09:52:26Z</time>
      </trkpt>
      <trkpt lat="41.661923831" lon="2.522189371">
        <ele>277.00</ele>
        <time>2013-07-14T09:52:29Z</time>
      </trkpt>
      <trkpt lat="41.661929531" lon="2.522270760">
        <ele>275.56</ele>
        <time>2013-07-14T09:52:32Z</time>
      </trkpt>
      <trkpt lat="41.661976302" lon="2.522466309">
        <ele>274.59</ele>
        <time>2013-07-14T09:52:38Z</time>
      </trkpt>
      <trkpt lat="41.661932465" lon="2.522512326">
        <ele>273.63</ele>
        <time>2013-07-14T09:52:43Z</time>
      </trkpt>
      <trkpt lat="41.661832133" lon="2.522615759">
        <ele>273.63</ele>
        <time>2013-07-14T09:52:49Z</time>
      </trkpt>
      <trkpt lat="41.661662232" lon="2.522856739">
        <ele>275.07</ele>
        <time>2013-07-14T09:52:58Z</time>
      </trkpt>
      <trkpt lat="41.661589226" lon="2.522927649">
        <ele>275.07</ele>
        <time>2013-07-14T09:53:02Z</time>
      </trkpt>
      <trkpt lat="41.661472215" lon="2.523004847">
        <ele>276.04</ele>
        <time>2013-07-14T09:53:09Z</time>
      </trkpt>
      <trkpt lat="41.661454445" lon="2.523008116">
        <ele>276.52</ele>
        <time>2013-07-14T09:53:10Z</time>
      </trkpt>
      <trkpt lat="41.661265014" lon="2.522991436">
        <ele>277.96</ele>
        <time>2013-07-14T09:53:19Z</time>
      </trkpt>
      <trkpt lat="41.661101818" lon="2.523056563">
        <ele>278.92</ele>
        <time>2013-07-14T09:53:26Z</time>
      </trkpt>
      <trkpt lat="41.660938874" lon="2.523101993">
        <ele>280.36</ele>
        <time>2013-07-14T09:53:33Z</time>
      </trkpt>
      <trkpt lat="41.660916662" lon="2.523109621">
        <ele>280.36</ele>
        <time>2013-07-14T09:53:34Z</time>
      </trkpt>
      <trkpt lat="41.660725806" lon="2.523141304">
        <ele>281.80</ele>
        <time>2013-07-14T09:53:43Z</time>
      </trkpt>
      <trkpt lat="41.660668809" lon="2.523133844">
        <ele>282.28</ele>
        <time>2013-07-14T09:53:49Z</time>
      </trkpt>
      <trkpt lat="41.660638215" lon="2.523113476">
        <ele>283.25</ele>
        <time>2013-07-14T09:53:56Z</time>
      </trkpt>
      <trkpt lat="41.660572417" lon="2.523086151">
        <ele>284.21</ele>
        <time>2013-07-14T09:54:05Z</time>
      </trkpt>
      <trkpt lat="41.660532771" lon="2.523048768">
        <ele>284.69</ele>
        <time>2013-07-14T09:54:12Z</time>
      </trkpt>
      <trkpt lat="41.660480216" lon="2.523025550">
        <ele>285.65</ele>
        <time>2013-07-14T09:54:20Z</time>
      </trkpt>
      <trkpt lat="41.660432356" lon="2.523024712">
        <ele>285.65</ele>
        <time>2013-07-14T09:54:27Z</time>
      </trkpt>
      <trkpt lat="41.660397655" lon="2.523019934">
        <ele>286.13</ele>
        <time>2013-07-14T09:54:34Z</time>
      </trkpt>
      <trkpt lat="41.660401175" lon="2.523007529">
        <ele>286.13</ele>
        <time>2013-07-14T09:54:43Z</time>
      </trkpt>
      <trkpt lat="41.660417603" lon="2.523002081">
        <ele>286.13</ele>
        <time>2013-07-14T09:54:50Z</time>
      </trkpt>
      <trkpt lat="41.660413664" lon="2.522994453">
        <ele>286.61</ele>
        <time>2013-07-14T09:55:07Z</time>
      </trkpt>
      <trkpt lat="41.660462363" lon="2.523025299">
        <ele>286.61</ele>
        <time>2013-07-14T09:55:28Z</time>
      </trkpt>
      <trkpt lat="41.660439983" lon="2.523012893">
        <ele>287.09</ele>
        <time>2013-07-14T09:55:55Z</time>
      </trkpt>
      <trkpt lat="41.660386842" lon="2.522989843">
        <ele>287.09</ele>
        <time>2013-07-14T09:56:15Z</time>
      </trkpt>
      <trkpt lat="41.660368486" lon="2.522991017">
        <ele>287.57</ele>
        <time>2013-07-14T09:56:43Z</time>
      </trkpt>
      <trkpt lat="41.660384830" lon="2.523002835">
        <ele>287.57</ele>
        <time>2013-07-14T09:57:03Z</time>
      </trkpt>
      <trkpt lat="41.660456328" lon="2.522998309">
        <ele>288.05</ele>
        <time>2013-07-14T09:57:21Z</time>
      </trkpt>
      <trkpt lat="41.660485497" lon="2.522990598">
        <ele>288.05</ele>
        <time>2013-07-14T09:57:46Z</time>
      </trkpt>
      <trkpt lat="41.660480216" lon="2.522959417">
        <ele>288.05</ele>
        <time>2013-07-14T09:58:08Z</time>
      </trkpt>
      <trkpt lat="41.660476193" lon="2.522998057">
        <ele>288.53</ele>
        <time>2013-07-14T09:58:33Z</time>
      </trkpt>
      <trkpt lat="41.660489017" lon="2.522976432">
        <ele>288.53</ele>
        <time>2013-07-14T09:58:59Z</time>
      </trkpt>
      <trkpt lat="41.660489939" lon="2.523022197">
        <ele>288.53</ele>
        <time>2013-07-14T09:59:22Z</time>
      </trkpt>
      <trkpt lat="41.660461608" lon="2.523033094">
        <ele>288.53</ele>
        <time>2013-07-14T09:59:40Z</time>
      </trkpt>
      <trkpt lat="41.660423303" lon="2.523047343">
        <ele>288.53</ele>
        <time>2013-07-14T09:59:56Z</time>
      </trkpt>
      <trkpt lat="41.660448114" lon="2.523025969">
        <ele>289.01</ele>
        <time>2013-07-14T10:00:14Z</time>
      </trkpt>
      <trkpt lat="41.660401846" lon="2.523043152">
        <ele>289.01</ele>
        <time>2013-07-14T10:00:36Z</time>
      </trkpt>
      <trkpt lat="41.660429506" lon="2.523031334">
        <ele>289.01</ele>
        <time>2013-07-14T10:01:00Z</time>
      </trkpt>
      <trkpt lat="41.660453227" lon="2.523052121">
        <ele>289.01</ele>
        <time>2013-07-14T10:01:16Z</time>
      </trkpt>
      <trkpt lat="41.660469236" lon="2.523042901">
        <ele>289.49</ele>
        <time>2013-07-14T10:01:36Z</time>
      </trkpt>
      <trkpt lat="41.660425902" lon="2.523059497">
        <ele>289.49</ele>
        <time>2013-07-14T10:01:56Z</time>
      </trkpt>
      <trkpt lat="41.660432439" lon="2.523098892">
        <ele>289.49</ele>
        <time>2013-07-14T10:02:15Z</time>
      </trkpt>
      <trkpt lat="41.660449203" lon="2.523094785">
        <ele>289.97</ele>
        <time>2013-07-14T10:02:38Z</time>
      </trkpt>
      <trkpt lat="41.660498154" lon="2.523028568">
        <ele>289.97</ele>
        <time>2013-07-14T10:03:03Z</time>
      </trkpt>
      <trkpt lat="41.660471918" lon="2.523064694">
        <ele>289.97</ele>
        <time>2013-07-14T10:03:28Z</time>
      </trkpt>
      <trkpt lat="41.660471499" lon="2.523039380">
        <ele>290.46</ele>
        <time>2013-07-14T10:03:55Z</time>
      </trkpt>
      <trkpt lat="41.660426404" lon="2.523009541">
        <ele>290.46</ele>
        <time>2013-07-14T10:04:16Z</time>
      </trkpt>
      <trkpt lat="41.660439899" lon="2.522993028">
        <ele>290.46</ele>
        <time>2013-07-14T10:04:34Z</time>
      </trkpt>
      <trkpt lat="41.660456160" lon="2.522986742">
        <ele>290.46</ele>
        <time>2013-07-14T10:04:57Z</time>
      </trkpt>
      <trkpt lat="41.660456579" lon="2.522986407">
        <ele>290.46</ele>
        <time>2013-07-14T10:05:17Z</time>
      </trkpt>
      <trkpt lat="41.660436044" lon="2.523004679">
        <ele>290.46</ele>
        <time>2013-07-14T10:05:41Z</time>
      </trkpt>
      <trkpt lat="41.660481138" lon="2.522962770">
        <ele>290.46</ele>
        <time>2013-07-14T10:05:58Z</time>
      </trkpt>
      <trkpt lat="41.660514498" lon="2.522963189">
        <ele>290.46</ele>
        <time>2013-07-14T10:06:24Z</time>
      </trkpt>
      <trkpt lat="41.660449958" lon="2.523052875">
        <ele>290.94</ele>
        <time>2013-07-14T10:06:44Z</time>
      </trkpt>
      <trkpt lat="41.660447695" lon="2.523025634">
        <ele>290.94</ele>
        <time>2013-07-14T10:07:04Z</time>
      </trkpt>
      <trkpt lat="41.660445515" lon="2.523012642">
        <ele>290.94</ele>
        <time>2013-07-14T10:07:21Z</time>
      </trkpt>
      <trkpt lat="41.660417352" lon="2.523038877">
        <ele>291.42</ele>
        <time>2013-07-14T10:07:41Z</time>
      </trkpt>
      <trkpt lat="41.660429422" lon="2.523046253">
        <ele>291.42</ele>
        <time>2013-07-14T10:07:53Z</time>
      </trkpt>
      <trkpt lat="41.660418442" lon="2.523062263">
        <ele>291.42</ele>
        <time>2013-07-14T10:08:12Z</time>
      </trkpt>
      <trkpt lat="41.660418190" lon="2.523056060">
        <ele>291.42</ele>
        <time>2013-07-14T10:08:30Z</time>
      </trkpt>
      <trkpt lat="41.660432942" lon="2.523090761">
        <ele>291.90</ele>
        <time>2013-07-14T10:08:53Z</time>
      </trkpt>
      <trkpt lat="41.660462279" lon="2.523047594">
        <ele>291.90</ele>
        <time>2013-07-14T10:09:12Z</time>
      </trkpt>
      <trkpt lat="41.660437804" lon="2.523087409">
        <ele>291.90</ele>
        <time>2013-07-14T10:09:28Z</time>
      </trkpt>
      <trkpt lat="41.660415340" lon="2.523077350">
        <ele>291.90</ele>
        <time>2013-07-14T10:09:49Z</time>
      </trkpt>
      <trkpt lat="41.660443420" lon="2.523021443">
        <ele>292.38</ele>
        <time>2013-07-14T10:10:13Z</time>
      </trkpt>
      <trkpt lat="41.660461022" lon="2.523018342">
        <ele>292.38</ele>
        <time>2013-07-14T10:10:32Z</time>
      </trkpt>
      <trkpt lat="41.660463704" lon="2.523030412">
        <ele>292.38</ele>
        <time>2013-07-14T10:10:55Z</time>
      </trkpt>
      <trkpt lat="41.660475020" lon="2.523017336">
        <ele>292.86</ele>
        <time>2013-07-14T10:11:16Z</time>
      </trkpt>
      <trkpt lat="41.660465632" lon="2.523020353">
        <ele>292.86</ele>
        <time>2013-07-14T10:11:34Z</time>
      </trkpt>
      <trkpt lat="41.660452472" lon="2.523023287">
        <ele>292.86</ele>
        <time>2013-07-14T10:11:51Z</time>
      </trkpt>
      <trkpt lat="41.660404528" lon="2.523008032">
        <ele>292.86</ele>
        <time>2013-07-14T10:12:08Z</time>
      </trkpt>
      <trkpt lat="41.660386507" lon="2.522986239">
        <ele>292.86</ele>
        <time>2013-07-14T10:12:30Z</time>
      </trkpt>
      <trkpt lat="41.660393380" lon="2.522990598">
        <ele>292.86</ele>
        <time>2013-07-14T10:12:46Z</time>
      </trkpt>
      <trkpt lat="41.660394050" lon="2.523023706">
        <ele>293.34</ele>
        <time>2013-07-14T10:12:57Z</time>
      </trkpt>
      <trkpt lat="41.660413496" lon="2.523004595">
        <ele>293.34</ele>
        <time>2013-07-14T10:13:07Z</time>
      </trkpt>
      <trkpt lat="41.660540482" lon="2.523083888">
        <ele>291.42</ele>
        <time>2013-07-14T10:13:13Z</time>
      </trkpt>
      <trkpt lat="41.660629330" lon="2.523149686">
        <ele>289.49</ele>
        <time>2013-07-14T10:13:18Z</time>
      </trkpt>
      <trkpt lat="41.660644837" lon="2.523153458">
        <ele>289.49</ele>
        <time>2013-07-14T10:13:19Z</time>
      </trkpt>
      <trkpt lat="41.660796466" lon="2.523140801">
        <ele>288.05</ele>
        <time>2013-07-14T10:13:27Z</time>
      </trkpt>
      <trkpt lat="41.660948010" lon="2.523101155">
        <ele>287.09</ele>
        <time>2013-07-14T10:13:33Z</time>
      </trkpt>
      <trkpt lat="41.661095448" lon="2.523054719">
        <ele>285.65</ele>
        <time>2013-07-14T10:13:38Z</time>
      </trkpt>
      <trkpt lat="41.661161665" lon="2.523056479">
        <ele>285.17</ele>
        <time>2013-07-14T10:13:40Z</time>
      </trkpt>
      <trkpt lat="41.661395101" lon="2.523086487">
        <ele>284.21</ele>
        <time>2013-07-14T10:13:46Z</time>
      </trkpt>
      <trkpt lat="41.661567433" lon="2.523002248">
        <ele>282.77</ele>
        <time>2013-07-14T10:13:51Z</time>
      </trkpt>
      <trkpt lat="41.661610181" lon="2.522974253">
        <ele>282.77</ele>
        <time>2013-07-14T10:13:52Z</time>
      </trkpt>
      <trkpt lat="41.661787793" lon="2.522725059">
        <ele>281.80</ele>
        <time>2013-07-14T10:13:58Z</time>
      </trkpt>
      <trkpt lat="41.661819812" lon="2.522692202">
        <ele>281.32</ele>
        <time>2013-07-14T10:13:59Z</time>
      </trkpt>
      <trkpt lat="41.661968591" lon="2.522716342">
        <ele>280.84</ele>
        <time>2013-07-14T10:14:04Z</time>
      </trkpt>
      <trkpt lat="41.661986780" lon="2.522795048">
        <ele>279.88</ele>
        <time>2013-07-14T10:14:06Z</time>
      </trkpt>
      <trkpt lat="41.662175372" lon="2.522954639">
        <ele>278.44</ele>
        <time>2013-07-14T10:14:11Z</time>
      </trkpt>
      <trkpt lat="41.662452227" lon="2.522932511">
        <ele>277.00</ele>
        <time>2013-07-14T10:14:16Z</time>
      </trkpt>
      <trkpt lat="41.662538979" lon="2.522945838">
        <ele>276.52</ele>
        <time>2013-07-14T10:14:20Z</time>
      </trkpt>
      <trkpt lat="41.662552810" lon="2.522976600">
        <ele>276.04</ele>
        <time>2013-07-14T10:14:22Z</time>
      </trkpt>
      <trkpt lat="41.662526574" lon="2.523284551">
        <ele>277.96</ele>
        <time>2013-07-14T10:14:33Z</time>
      </trkpt>
      <trkpt lat="41.662522467" lon="2.523311708">
        <ele>277.96</ele>
        <time>2013-07-14T10:14:34Z</time>
      </trkpt>
      <trkpt lat="41.662488436" lon="2.523549168">
        <ele>279.40</ele>
        <time>2013-07-14T10:14:43Z</time>
      </trkpt>
      <trkpt lat="41.662432948" lon="2.523718482">
        <ele>279.88</ele>
        <time>2013-07-14T10:14:50Z</time>
      </trkpt>
      <trkpt lat="41.662372766" lon="2.523891233">
        <ele>281.32</ele>
        <time>2013-07-14T10:14:57Z</time>
      </trkpt>
      <trkpt lat="41.662274027" lon="2.524072282">
        <ele>282.77</ele>
        <time>2013-07-14T10:15:05Z</time>
      </trkpt>
      <trkpt lat="41.662183000" lon="2.524244698">
        <ele>284.21</ele>
        <time>2013-07-14T10:15:13Z</time>
      </trkpt>
      <trkpt lat="41.662050817" lon="2.524446115">
        <ele>285.17</ele>
        <time>2013-07-14T10:15:23Z</time>
      </trkpt>
      <trkpt lat="41.661907906" lon="2.524634792">
        <ele>286.13</ele>
        <time>2013-07-14T10:15:32Z</time>
      </trkpt>
      <trkpt lat="41.661844120" lon="2.524729423">
        <ele>286.61</ele>
        <time>2013-07-14T10:15:38Z</time>
      </trkpt>
      <trkpt lat="41.661827104" lon="2.524787678">
        <ele>287.09</ele>
        <time>2013-07-14T10:15:41Z</time>
      </trkpt>
      <trkpt lat="41.661817381" lon="2.524871916">
        <ele>287.09</ele>
        <time>2013-07-14T10:15:44Z</time>
      </trkpt>
      <trkpt lat="41.661872702" lon="2.524999069">
        <ele>287.09</ele>
        <time>2013-07-14T10:15:52Z</time>
      </trkpt>
      <trkpt lat="41.661872199" lon="2.525016420">
        <ele>287.09</ele>
        <time>2013-07-14T10:15:57Z</time>
      </trkpt>
      <trkpt lat="41.661956269" lon="2.525057742">
        <ele>285.65</ele>
        <time>2013-07-14T10:16:03Z</time>
      </trkpt>
      <trkpt lat="41.662074203" lon="2.525143657">
        <ele>284.69</ele>
        <time>2013-07-14T10:16:09Z</time>
      </trkpt>
      <trkpt lat="41.662200937" lon="2.525222698">
        <ele>284.21</ele>
        <time>2013-07-14T10:16:16Z</time>
      </trkpt>
      <trkpt lat="41.662299760" lon="2.525298555">
        <ele>283.73</ele>
        <time>2013-07-14T10:16:20Z</time>
      </trkpt>
      <trkpt lat="41.662340077" lon="2.525484800">
        <ele>282.77</ele>
        <time>2013-07-14T10:16:24Z</time>
      </trkpt>
      <trkpt lat="41.662292048" lon="2.525940608">
        <ele>281.32</ele>
        <time>2013-07-14T10:16:32Z</time>
      </trkpt>
      <trkpt lat="41.662347621" lon="2.526101541">
        <ele>280.84</ele>
        <time>2013-07-14T10:16:36Z</time>
      </trkpt>
      <trkpt lat="41.662565969" lon="2.526262893">
        <ele>280.36</ele>
        <time>2013-07-14T10:16:43Z</time>
      </trkpt>
      <trkpt lat="41.662824802" lon="2.526316788">
        <ele>279.88</ele>
        <time>2013-07-14T10:16:51Z</time>
      </trkpt>
      <trkpt lat="41.663020101" lon="2.526269598">
        <ele>279.88</ele>
        <time>2013-07-14T10:16:57Z</time>
      </trkpt>
      <trkpt lat="41.663194277" lon="2.526218133">
        <ele>279.88</ele>
        <time>2013-07-14T10:17:04Z</time>
      </trkpt>
      <trkpt lat="41.663241886" lon="2.526225593">
        <ele>281.32</ele>
        <time>2013-07-14T10:17:06Z</time>
      </trkpt>
      <trkpt lat="41.663399130" lon="2.526319806">
        <ele>282.28</ele>
        <time>2013-07-14T10:17:13Z</time>
      </trkpt>
      <trkpt lat="41.663506335" lon="2.526312178">
        <ele>282.77</ele>
        <time>2013-07-14T10:17:19Z</time>
      </trkpt>
      <trkpt lat="41.663663579" lon="2.526279824">
        <ele>284.21</ele>
        <time>2013-07-14T10:17:27Z</time>
      </trkpt>
      <trkpt lat="41.663671710" lon="2.526355596">
        <ele>284.69</ele>
        <time>2013-07-14T10:17:34Z</time>
      </trkpt>
      <trkpt lat="41.663667686" lon="2.526362302">
        <ele>284.69</ele>
        <time>2013-07-14T10:17:35Z</time>
      </trkpt>
      <trkpt lat="41.663568696" lon="2.526438745">
        <ele>284.69</ele>
        <time>2013-07-14T10:17:43Z</time>
      </trkpt>
      <trkpt lat="41.663460486" lon="2.526650723">
        <ele>285.65</ele>
        <time>2013-07-14T10:17:52Z</time>
      </trkpt>
      <trkpt lat="41.663416062" lon="2.526895642">
        <ele>286.13</ele>
        <time>2013-07-14T10:18:01Z</time>
      </trkpt>
      <trkpt lat="41.663385803" lon="2.527071746">
        <ele>288.53</ele>
        <time>2013-07-14T10:18:10Z</time>
      </trkpt>
      <trkpt lat="41.663327046" lon="2.527214239">
        <ele>290.46</ele>
        <time>2013-07-14T10:18:18Z</time>
      </trkpt>
      <trkpt lat="41.663315563" lon="2.527245000">
        <ele>290.94</ele>
        <time>2013-07-14T10:18:20Z</time>
      </trkpt>
      <trkpt lat="41.663306259" lon="2.527339632">
        <ele>291.90</ele>
        <time>2013-07-14T10:18:25Z</time>
      </trkpt>
      <trkpt lat="41.663340457" lon="2.527507940">
        <ele>293.82</ele>
        <time>2013-07-14T10:18:33Z</time>
      </trkpt>
      <trkpt lat="41.663346408" lon="2.527523195">
        <ele>293.82</ele>
        <time>2013-07-14T10:18:34Z</time>
      </trkpt>
      <trkpt lat="41.663410194" lon="2.527612211">
        <ele>295.74</ele>
        <time>2013-07-14T10:18:42Z</time>
      </trkpt>
      <trkpt lat="41.663494265" lon="2.527689492">
        <ele>296.22</ele>
        <time>2013-07-14T10:18:49Z</time>
      </trkpt>
      <trkpt lat="41.663611779" lon="2.527736515">
        <ele>297.18</ele>
        <time>2013-07-14T10:18:57Z</time>
      </trkpt>
      <trkpt lat="41.663785620" lon="2.527789069">
        <ele>298.15</ele>
        <time>2013-07-14T10:19:06Z</time>
      </trkpt>
      <trkpt lat="41.663930878" lon="2.527940195">
        <ele>298.15</ele>
        <time>2013-07-14T10:19:14Z</time>
      </trkpt>
      <trkpt lat="41.664040513" lon="2.528107498">
        <ele>298.63</ele>
        <time>2013-07-14T10:19:22Z</time>
      </trkpt>
      <trkpt lat="41.664174456" lon="2.528297935">
        <ele>298.63</ele>
        <time>2013-07-14T10:19:28Z</time>
      </trkpt>
      <trkpt lat="41.664286858" lon="2.528404804">
        <ele>298.63</ele>
        <time>2013-07-14T10:19:34Z</time>
      </trkpt>
      <trkpt lat="41.664469164" lon="2.528539501">
        <ele>298.63</ele>
        <time>2013-07-14T10:19:41Z</time>
      </trkpt>
      <trkpt lat="41.664604448" lon="2.528737314">
        <ele>298.63</ele>
        <time>2013-07-14T10:19:48Z</time>
      </trkpt>
      <trkpt lat="41.664619032" lon="2.528766064">
        <ele>298.63</ele>
        <time>2013-07-14T10:19:49Z</time>
      </trkpt>
      <trkpt lat="41.664675946" lon="2.528858349">
        <ele>298.63</ele>
        <time>2013-07-14T10:19:53Z</time>
      </trkpt>
      <trkpt lat="41.664784743" lon="2.529051552">
        <ele>299.59</ele>
        <time>2013-07-14T10:20:02Z</time>
      </trkpt>
      <trkpt lat="41.664895216" lon="2.529204605">
        <ele>301.51</ele>
        <time>2013-07-14T10:20:09Z</time>
      </trkpt>
      <trkpt lat="41.664947771" lon="2.529357491">
        <ele>301.99</ele>
        <time>2013-07-14T10:20:14Z</time>
      </trkpt>
      <trkpt lat="41.664977359" lon="2.529509371">
        <ele>303.91</ele>
        <time>2013-07-14T10:20:21Z</time>
      </trkpt>
      <trkpt lat="41.665023208" lon="2.529664436">
        <ele>306.32</ele>
        <time>2013-07-14T10:20:29Z</time>
      </trkpt>
      <trkpt lat="41.665036032" lon="2.529732581">
        <ele>307.28</ele>
        <time>2013-07-14T10:20:32Z</time>
      </trkpt>
      <trkpt lat="41.665083809" lon="2.529828470">
        <ele>307.76</ele>
        <time>2013-07-14T10:20:36Z</time>
      </trkpt>
      <trkpt lat="41.665161258" lon="2.529960653">
        <ele>309.68</ele>
        <time>2013-07-14T10:20:46Z</time>
      </trkpt>
      <trkpt lat="41.665212387" lon="2.530060062">
        <ele>311.60</ele>
        <time>2013-07-14T10:20:55Z</time>
      </trkpt>
      <trkpt lat="41.665219261" lon="2.530136254">
        <ele>313.05</ele>
        <time>2013-07-14T10:21:01Z</time>
      </trkpt>
      <trkpt lat="41.665195791" lon="2.530270029">
        <ele>314.49</ele>
        <time>2013-07-14T10:21:10Z</time>
      </trkpt>
      <trkpt lat="41.665163772" lon="2.530491395">
        <ele>314.97</ele>
        <time>2013-07-14T10:21:19Z</time>
      </trkpt>
      <trkpt lat="41.665168634" lon="2.530710833">
        <ele>316.41</ele>
        <time>2013-07-14T10:21:28Z</time>
      </trkpt>
      <trkpt lat="41.665171568" lon="2.530730028">
        <ele>316.41</ele>
        <time>2013-07-14T10:21:29Z</time>
      </trkpt>
      <trkpt lat="41.665254465" lon="2.530893307">
        <ele>317.37</ele>
        <time>2013-07-14T10:21:38Z</time>
      </trkpt>
      <trkpt lat="41.665298302" lon="2.531014258">
        <ele>318.81</ele>
        <time>2013-07-14T10:21:45Z</time>
      </trkpt>
      <trkpt lat="41.665276006" lon="2.531041499">
        <ele>319.30</ele>
        <time>2013-07-14T10:21:49Z</time>
      </trkpt>
      <trkpt lat="41.665191433" lon="2.531113332">
        <ele>321.70</ele>
        <time>2013-07-14T10:21:57Z</time>
      </trkpt>
      <trkpt lat="41.665142231" lon="2.531249873">
        <ele>322.66</ele>
        <time>2013-07-14T10:22:06Z</time>
      </trkpt>
      <trkpt lat="41.665152708" lon="2.531268314">
        <ele>323.14</ele>
        <time>2013-07-14T10:22:08Z</time>
      </trkpt>
      <trkpt lat="41.665203503" lon="2.531306870">
        <ele>324.58</ele>
        <time>2013-07-14T10:22:15Z</time>
      </trkpt>
      <trkpt lat="41.665282376" lon="2.531374009">
        <ele>326.50</ele>
        <time>2013-07-14T10:22:25Z</time>
      </trkpt>
      <trkpt lat="41.665301319" lon="2.531476436">
        <ele>328.43</ele>
        <time>2013-07-14T10:22:33Z</time>
      </trkpt>
      <trkpt lat="41.665282628" lon="2.531622784">
        <ele>329.87</ele>
        <time>2013-07-14T10:22:42Z</time>
      </trkpt>
      <trkpt lat="41.665265110" lon="2.531732252">
        <ele>331.31</ele>
        <time>2013-07-14T10:22:50Z</time>
      </trkpt>
      <trkpt lat="41.665215740" lon="2.531882540">
        <ele>333.71</ele>
        <time>2013-07-14T10:23:00Z</time>
      </trkpt>
      <trkpt lat="41.665142315" lon="2.531994522">
        <ele>334.20</ele>
        <time>2013-07-14T10:23:07Z</time>
      </trkpt>
      <trkpt lat="41.665086072" lon="2.532104492">
        <ele>334.68</ele>
        <time>2013-07-14T10:23:14Z</time>
      </trkpt>
      <trkpt lat="41.665013569" lon="2.532282356">
        <ele>334.68</ele>
        <time>2013-07-14T10:23:23Z</time>
      </trkpt>
      <trkpt lat="41.665060843" lon="2.532509674">
        <ele>334.68</ele>
        <time>2013-07-14T10:23:32Z</time>
      </trkpt>
      <trkpt lat="41.665109877" lon="2.532652836">
        <ele>334.68</ele>
        <time>2013-07-14T10:23:38Z</time>
      </trkpt>
      <trkpt lat="41.665184476" lon="2.532828940">
        <ele>335.64</ele>
        <time>2013-07-14T10:23:46Z</time>
      </trkpt>
      <trkpt lat="41.665233007" lon="2.532920554">
        <ele>336.60</ele>
        <time>2013-07-14T10:23:51Z</time>
      </trkpt>
      <trkpt lat="41.665266618" lon="2.533049300">
        <ele>337.56</ele>
        <time>2013-07-14T10:23:57Z</time>
      </trkpt>
      <trkpt lat="41.665285310" lon="2.533252478">
        <ele>338.04</ele>
        <time>2013-07-14T10:24:06Z</time>
      </trkpt>
      <trkpt lat="41.665298218" lon="2.533463618">
        <ele>338.52</ele>
        <time>2013-07-14T10:24:14Z</time>
      </trkpt>
      <trkpt lat="41.665360077" lon="2.533709208">
        <ele>339.00</ele>
        <time>2013-07-14T10:24:23Z</time>
      </trkpt>
      <trkpt lat="41.665378098" lon="2.533789339">
        <ele>339.96</ele>
        <time>2013-07-14T10:24:26Z</time>
      </trkpt>
      <trkpt lat="41.665437106" lon="2.533997126">
        <ele>340.44</ele>
        <time>2013-07-14T10:24:35Z</time>
      </trkpt>
      <trkpt lat="41.665514890" lon="2.534178846">
        <ele>341.41</ele>
        <time>2013-07-14T10:24:43Z</time>
      </trkpt>
      <trkpt lat="41.665578425" lon="2.534298707">
        <ele>341.89</ele>
        <time>2013-07-14T10:24:49Z</time>
      </trkpt>
      <trkpt lat="41.665626956" lon="2.534476068">
        <ele>342.85</ele>
        <time>2013-07-14T10:24:57Z</time>
      </trkpt>
      <trkpt lat="41.665688144" lon="2.534611268">
        <ele>343.81</ele>
        <time>2013-07-14T10:25:04Z</time>
      </trkpt>
      <trkpt lat="41.665697867" lon="2.534656195">
        <ele>343.81</ele>
        <time>2013-07-14T10:25:07Z</time>
      </trkpt>
      <trkpt lat="41.665738268" lon="2.534787791">
        <ele>345.25</ele>
        <time>2013-07-14T10:25:14Z</time>
      </trkpt>
      <trkpt lat="41.665785207" lon="2.534931457">
        <ele>346.69</ele>
        <time>2013-07-14T10:25:21Z</time>
      </trkpt>
      <trkpt lat="41.665840108" lon="2.535020556">
        <ele>347.17</ele>
        <time>2013-07-14T10:25:25Z</time>
      </trkpt>
      <trkpt lat="41.665971620" lon="2.535138322">
        <ele>348.13</ele>
        <time>2013-07-14T10:25:34Z</time>
      </trkpt>
      <trkpt lat="41.666027863" lon="2.535179896">
        <ele>348.62</ele>
        <time>2013-07-14T10:25:38Z</time>
      </trkpt>
      <trkpt lat="41.666105982" lon="2.535388271">
        <ele>348.62</ele>
        <time>2013-07-14T10:25:47Z</time>
      </trkpt>
      <trkpt lat="41.666121740" lon="2.535447028">
        <ele>349.10</ele>
        <time>2013-07-14T10:25:50Z</time>
      </trkpt>
      <trkpt lat="41.666130960" lon="2.535594633">
        <ele>350.54</ele>
        <time>2013-07-14T10:25:57Z</time>
      </trkpt>
      <trkpt lat="41.666110005" lon="2.535716087">
        <ele>351.02</ele>
        <time>2013-07-14T10:26:04Z</time>
      </trkpt>
      <trkpt lat="41.666077316" lon="2.535847431">
        <ele>352.46</ele>
        <time>2013-07-14T10:26:11Z</time>
      </trkpt>
      <trkpt lat="41.666139510" lon="2.535932759">
        <ele>354.38</ele>
        <time>2013-07-14T10:26:18Z</time>
      </trkpt>
      <trkpt lat="41.666181671" lon="2.535941979">
        <ele>355.34</ele>
        <time>2013-07-14T10:26:24Z</time>
      </trkpt>
      <trkpt lat="41.666210588" lon="2.535980033">
        <ele>356.31</ele>
        <time>2013-07-14T10:26:28Z</time>
      </trkpt>
      <trkpt lat="41.666202123" lon="2.536167620">
        <ele>359.19</ele>
        <time>2013-07-14T10:26:39Z</time>
      </trkpt>
      <trkpt lat="41.666205643" lon="2.536186312">
        <ele>359.19</ele>
        <time>2013-07-14T10:26:40Z</time>
      </trkpt>
      <trkpt lat="41.666258030" lon="2.536366020">
        <ele>362.07</ele>
        <time>2013-07-14T10:26:50Z</time>
      </trkpt>
      <trkpt lat="41.666277727" lon="2.536388902">
        <ele>362.55</ele>
        <time>2013-07-14T10:26:52Z</time>
      </trkpt>
      <trkpt lat="41.666347465" lon="2.536493844">
        <ele>364.48</ele>
        <time>2013-07-14T10:27:01Z</time>
      </trkpt>
      <trkpt lat="41.666390129" lon="2.536576992">
        <ele>366.40</ele>
        <time>2013-07-14T10:27:11Z</time>
      </trkpt>
      <trkpt lat="41.666422567" lon="2.536632899">
        <ele>366.88</ele>
        <time>2013-07-14T10:27:20Z</time>
      </trkpt>
      <trkpt lat="41.666419801" lon="2.536657291">
        <ele>366.88</ele>
        <time>2013-07-14T10:27:27Z</time>
      </trkpt>
      <trkpt lat="41.666424327" lon="2.536713701">
        <ele>367.84</ele>
        <time>2013-07-14T10:27:37Z</time>
      </trkpt>
      <trkpt lat="41.666437319" lon="2.536746977">
        <ele>368.32</ele>
        <time>2013-07-14T10:27:45Z</time>
      </trkpt>
      <trkpt lat="41.666428685" lon="2.536785366">
        <ele>369.28</ele>
        <time>2013-07-14T10:27:54Z</time>
      </trkpt>
      <trkpt lat="41.666466739" lon="2.536846303">
        <ele>370.73</ele>
        <time>2013-07-14T10:28:01Z</time>
      </trkpt>
      <trkpt lat="41.666519545" lon="2.536915789">
        <ele>372.65</ele>
        <time>2013-07-14T10:28:08Z</time>
      </trkpt>
      <trkpt lat="41.666551229" lon="2.537027938">
        <ele>374.09</ele>
        <time>2013-07-14T10:28:17Z</time>
      </trkpt>
      <trkpt lat="41.666564221" lon="2.537103124">
        <ele>374.57</ele>
        <time>2013-07-14T10:28:22Z</time>
      </trkpt>
      <trkpt lat="41.666546451" lon="2.537218711">
        <ele>376.97</ele>
        <time>2013-07-14T10:28:30Z</time>
      </trkpt>
      <trkpt lat="41.666537650" lon="2.537225751">
        <ele>376.97</ele>
        <time>2013-07-14T10:28:31Z</time>
      </trkpt>
      <trkpt lat="41.666506134" lon="2.537226338">
        <ele>377.45</ele>
        <time>2013-07-14T10:28:38Z</time>
      </trkpt>
      <trkpt lat="41.666481491" lon="2.537271517">
        <ele>378.42</ele>
        <time>2013-07-14T10:28:47Z</time>
      </trkpt>
      <trkpt lat="41.666481156" lon="2.537292890">
        <ele>378.42</ele>
        <time>2013-07-14T10:28:52Z</time>
      </trkpt>
      <trkpt lat="41.666448550" lon="2.537439741">
        <ele>380.82</ele>
        <time>2013-07-14T10:29:02Z</time>
      </trkpt>
      <trkpt lat="41.666439163" lon="2.537568990">
        <ele>383.22</ele>
        <time>2013-07-14T10:29:11Z</time>
      </trkpt>
      <trkpt lat="41.666431619" lon="2.537689271">
        <ele>384.66</ele>
        <time>2013-07-14T10:29:20Z</time>
      </trkpt>
      <trkpt lat="41.666384261" lon="2.537771162">
        <ele>385.63</ele>
        <time>2013-07-14T10:29:27Z</time>
      </trkpt>
      <trkpt lat="41.666346459" lon="2.537866380">
        <ele>386.59</ele>
        <time>2013-07-14T10:29:34Z</time>
      </trkpt>
      <trkpt lat="41.666342855" lon="2.537892448">
        <ele>387.07</ele>
        <time>2013-07-14T10:29:36Z</time>
      </trkpt>
      <trkpt lat="41.666333718" lon="2.538027816">
        <ele>387.55</ele>
        <time>2013-07-14T10:29:44Z</time>
      </trkpt>
      <trkpt lat="41.666329276" lon="2.538147342">
        <ele>389.47</ele>
        <time>2013-07-14T10:29:52Z</time>
      </trkpt>
      <trkpt lat="41.666307651" lon="2.538260665">
        <ele>389.95</ele>
        <time>2013-07-14T10:29:58Z</time>
      </trkpt>
      <trkpt lat="41.666310081" lon="2.538326798">
        <ele>390.91</ele>
        <time>2013-07-14T10:30:02Z</time>
      </trkpt>
      <trkpt lat="41.666292815" lon="2.538437188">
        <ele>391.87</ele>
        <time>2013-07-14T10:30:11Z</time>
      </trkpt>
      <trkpt lat="41.666284936" lon="2.538514301">
        <ele>392.84</ele>
        <time>2013-07-14T10:30:18Z</time>
      </trkpt>
      <trkpt lat="41.666264400" lon="2.538602311">
        <ele>393.80</ele>
        <time>2013-07-14T10:30:25Z</time>
      </trkpt>
      <trkpt lat="41.666265909" lon="2.538705995">
        <ele>395.24</ele>
        <time>2013-07-14T10:30:33Z</time>
      </trkpt>
      <trkpt lat="41.666262305" lon="2.538876064">
        <ele>397.64</ele>
        <time>2013-07-14T10:30:43Z</time>
      </trkpt>
      <trkpt lat="41.666276135" lon="2.539038673">
        <ele>399.57</ele>
        <time>2013-07-14T10:30:52Z</time>
      </trkpt>
      <trkpt lat="41.666273033" lon="2.539166916">
        <ele>402.45</ele>
        <time>2013-07-14T10:31:02Z</time>
      </trkpt>
      <trkpt lat="41.666285606" lon="2.539235061">
        <ele>403.89</ele>
        <time>2013-07-14T10:31:08Z</time>
      </trkpt>
      <trkpt lat="41.666290635" lon="2.539322987">
        <ele>403.89</ele>
        <time>2013-07-14T10:31:15Z</time>
      </trkpt>
      <trkpt lat="41.666304382" lon="2.539350899">
        <ele>404.37</ele>
        <time>2013-07-14T10:31:22Z</time>
      </trkpt>
      <trkpt lat="41.666316871" lon="2.539365316">
        <ele>404.37</ele>
        <time>2013-07-14T10:31:35Z</time>
      </trkpt>
      <trkpt lat="41.666304298" lon="2.539384678">
        <ele>403.89</ele>
        <time>2013-07-14T10:31:44Z</time>
      </trkpt>
      <trkpt lat="41.666306477" lon="2.539554328">
        <ele>403.89</ele>
        <time>2013-07-14T10:31:50Z</time>
      </trkpt>
      <trkpt lat="41.666283595" lon="2.539695563">
        <ele>402.93</ele>
        <time>2013-07-14T10:31:53Z</time>
      </trkpt>
      <trkpt lat="41.666165997" lon="2.539811066">
        <ele>401.01</ele>
        <time>2013-07-14T10:31:58Z</time>
      </trkpt>
      <trkpt lat="41.665970698" lon="2.539883485">
        <ele>400.05</ele>
        <time>2013-07-14T10:32:04Z</time>
      </trkpt>
      <trkpt lat="41.665864164" lon="2.539924137">
        <ele>398.60</ele>
        <time>2013-07-14T10:32:07Z</time>
      </trkpt>
      <trkpt lat="41.665700382" lon="2.540032851">
        <ele>397.64</ele>
        <time>2013-07-14T10:32:12Z</time>
      </trkpt>
      <trkpt lat="41.665529307" lon="2.540302161">
        <ele>395.72</ele>
        <time>2013-07-14T10:32:19Z</time>
      </trkpt>
      <trkpt lat="41.665473484" lon="2.540633498">
        <ele>395.24</ele>
        <time>2013-07-14T10:32:26Z</time>
      </trkpt>
      <trkpt lat="41.665527044" lon="2.540789317">
        <ele>395.24</ele>
        <time>2013-07-14T10:32:34Z</time>
      </trkpt>
      <trkpt lat="41.665539365" lon="2.540858049">
        <ele>396.20</ele>
        <time>2013-07-14T10:32:40Z</time>
      </trkpt>
      <trkpt lat="41.665571552" lon="2.540954106">
        <ele>396.68</ele>
        <time>2013-07-14T10:32:47Z</time>
      </trkpt>
      <trkpt lat="41.665573983" lon="2.541060807">
        <ele>398.12</ele>
        <time>2013-07-14T10:32:55Z</time>
      </trkpt>
      <trkpt lat="41.665599547" lon="2.541203132">
        <ele>399.57</ele>
        <time>2013-07-14T10:33:03Z</time>
      </trkpt>
      <trkpt lat="41.665676829" lon="2.541244706">
        <ele>400.53</ele>
        <time>2013-07-14T10:33:10Z</time>
      </trkpt>
      <trkpt lat="41.665714799" lon="2.541244539">
        <ele>401.49</ele>
        <time>2013-07-14T10:33:13Z</time>
      </trkpt>
      <trkpt lat="41.665846478" lon="2.541287203">
        <ele>402.45</ele>
        <time>2013-07-14T10:33:22Z</time>
      </trkpt>
      <trkpt lat="41.665890567" lon="2.541317880">
        <ele>402.93</ele>
        <time>2013-07-14T10:33:25Z</time>
      </trkpt>
      <trkpt lat="41.665946139" lon="2.541354425">
        <ele>403.41</ele>
        <time>2013-07-14T10:33:29Z</time>
      </trkpt>
      <trkpt lat="41.666044375" lon="2.541439921">
        <ele>403.89</ele>
        <time>2013-07-14T10:33:36Z</time>
      </trkpt>
      <trkpt lat="41.666161219" lon="2.541493565">
        <ele>404.37</ele>
        <time>2013-07-14T10:33:45Z</time>
      </trkpt>
      <trkpt lat="41.666244619" lon="2.541510916">
        <ele>404.85</ele>
        <time>2013-07-14T10:33:51Z</time>
      </trkpt>
      <trkpt lat="41.666361211" lon="2.541493481">
        <ele>405.81</ele>
        <time>2013-07-14T10:33:59Z</time>
      </trkpt>
      <trkpt lat="41.666454837" lon="2.541459618">
        <ele>406.77</ele>
        <time>2013-07-14T10:34:06Z</time>
      </trkpt>
      <trkpt lat="41.666538404" lon="2.541488201">
        <ele>407.74</ele>
        <time>2013-07-14T10:34:11Z</time>
      </trkpt>
      <trkpt lat="41.666565394" lon="2.541556345">
        <ele>409.18</ele>
        <time>2013-07-14T10:34:16Z</time>
      </trkpt>
      <trkpt lat="41.666508733" lon="2.541670926">
        <ele>410.62</ele>
        <time>2013-07-14T10:34:24Z</time>
      </trkpt>
      <trkpt lat="41.666446874" lon="2.541738568">
        <ele>411.58</ele>
        <time>2013-07-14T10:34:31Z</time>
      </trkpt>
      <trkpt lat="41.666369928" lon="2.541805036">
        <ele>412.06</ele>
        <time>2013-07-14T10:34:38Z</time>
      </trkpt>
      <trkpt lat="41.666335898" lon="2.541832529">
        <ele>412.54</ele>
        <time>2013-07-14T10:34:42Z</time>
      </trkpt>
      <trkpt lat="41.666226681" lon="2.541860525">
        <ele>413.98</ele>
        <time>2013-07-14T10:34:50Z</time>
      </trkpt>
      <trkpt lat="41.666135486" lon="2.541862955">
        <ele>414.47</ele>
        <time>2013-07-14T10:34:56Z</time>
      </trkpt>
      <trkpt lat="41.666028030" lon="2.541880474">
        <ele>415.43</ele>
        <time>2013-07-14T10:35:04Z</time>
      </trkpt>
      <trkpt lat="41.666002801" lon="2.541888939">
        <ele>415.91</ele>
        <time>2013-07-14T10:35:06Z</time>
      </trkpt>
      <trkpt lat="41.665958461" lon="2.541917773">
        <ele>417.35</ele>
        <time>2013-07-14T10:35:10Z</time>
      </trkpt>
      <trkpt lat="41.665850418" lon="2.541991869">
        <ele>418.79</ele>
        <time>2013-07-14T10:35:19Z</time>
      </trkpt>
      <trkpt lat="41.665752601" lon="2.542049201">
        <ele>419.27</ele>
        <time>2013-07-14T10:35:25Z</time>
      </trkpt>
      <trkpt lat="41.665603822" lon="2.542031013">
        <ele>419.27</ele>
        <time>2013-07-14T10:35:33Z</time>
      </trkpt>
      <trkpt lat="41.665586975" lon="2.542023217">
        <ele>419.27</ele>
        <time>2013-07-14T10:35:34Z</time>
      </trkpt>
      <trkpt lat="41.665466527" lon="2.541904446">
        <ele>419.75</ele>
        <time>2013-07-14T10:35:42Z</time>
      </trkpt>
      <trkpt lat="41.665359490" lon="2.541859938">
        <ele>420.23</ele>
        <time>2013-07-14T10:35:49Z</time>
      </trkpt>
      <trkpt lat="41.665242395" lon="2.541900506">
        <ele>421.19</ele>
        <time>2013-07-14T10:35:57Z</time>
      </trkpt>
      <trkpt lat="41.665157151" lon="2.542013243">
        <ele>422.16</ele>
        <time>2013-07-14T10:36:04Z</time>
      </trkpt>
      <trkpt lat="41.665113649" lon="2.542198064">
        <ele>422.16</ele>
        <time>2013-07-14T10:36:12Z</time>
      </trkpt>
      <trkpt lat="41.665026309" lon="2.542354470">
        <ele>423.60</ele>
        <time>2013-07-14T10:36:21Z</time>
      </trkpt>
      <trkpt lat="41.664938634" lon="2.542362098">
        <ele>423.60</ele>
        <time>2013-07-14T10:36:25Z</time>
      </trkpt>
      <trkpt lat="41.664822377" lon="2.542276099">
        <ele>425.04</ele>
        <time>2013-07-14T10:36:33Z</time>
      </trkpt>
      <trkpt lat="41.664691871" lon="2.542204267">
        <ele>426.00</ele>
        <time>2013-07-14T10:36:41Z</time>
      </trkpt>
      <trkpt lat="41.664631186" lon="2.542303424">
        <ele>427.92</ele>
        <time>2013-07-14T10:36:49Z</time>
      </trkpt>
      <trkpt lat="41.664641161" lon="2.542335108">
        <ele>428.40</ele>
        <time>2013-07-14T10:36:51Z</time>
      </trkpt>
      <trkpt lat="41.664733948" lon="2.542447258">
        <ele>430.33</ele>
        <time>2013-07-14T10:37:00Z</time>
      </trkpt>
      <trkpt lat="41.664803770" lon="2.542529903">
        <ele>430.81</ele>
        <time>2013-07-14T10:37:08Z</time>
      </trkpt>
      <trkpt lat="41.664879291" lon="2.542589331">
        <ele>432.25</ele>
        <time>2013-07-14T10:37:15Z</time>
      </trkpt>
      <trkpt lat="41.664995715" lon="2.542618584">
        <ele>433.21</ele>
        <time>2013-07-14T10:37:23Z</time>
      </trkpt>
      <trkpt lat="41.665050114" lon="2.542608777">
        <ele>434.65</ele>
        <time>2013-07-14T10:37:27Z</time>
      </trkpt>
      <trkpt lat="41.665087748" lon="2.542574914">
        <ele>434.65</ele>
        <time>2013-07-14T10:37:30Z</time>
      </trkpt>
      <trkpt lat="41.665183637" lon="2.542527473">
        <ele>435.61</ele>
        <time>2013-07-14T10:37:37Z</time>
      </trkpt>
      <trkpt lat="41.665294279" lon="2.542506099">
        <ele>436.58</ele>
        <time>2013-07-14T10:37:45Z</time>
      </trkpt>
      <trkpt lat="41.665427299" lon="2.542545242">
        <ele>437.54</ele>
        <time>2013-07-14T10:37:53Z</time>
      </trkpt>
      <trkpt lat="41.665529140" lon="2.542615483">
        <ele>439.46</ele>
        <time>2013-07-14T10:38:01Z</time>
      </trkpt>
      <trkpt lat="41.665547580" lon="2.542753784">
        <ele>440.90</ele>
        <time>2013-07-14T10:38:09Z</time>
      </trkpt>
      <trkpt lat="41.665470131" lon="2.542877920">
        <ele>441.86</ele>
        <time>2013-07-14T10:38:18Z</time>
      </trkpt>
      <trkpt lat="41.665402824" lon="2.543025106">
        <ele>443.31</ele>
        <time>2013-07-14T10:38:27Z</time>
      </trkpt>
      <trkpt lat="41.665339792" lon="2.543155277">
        <ele>443.79</ele>
        <time>2013-07-14T10:38:35Z</time>
      </trkpt>
      <trkpt lat="41.665315066" lon="2.543212861">
        <ele>443.79</ele>
        <time>2013-07-14T10:38:38Z</time>
      </trkpt>
      <trkpt lat="41.665308695" lon="2.543382175">
        <ele>444.75</ele>
        <time>2013-07-14T10:38:45Z</time>
      </trkpt>
      <trkpt lat="41.665309534" lon="2.543498935">
        <ele>445.23</ele>
        <time>2013-07-14T10:38:51Z</time>
      </trkpt>
      <trkpt lat="41.665295201" lon="2.543558279">
        <ele>446.19</ele>
        <time>2013-07-14T10:38:55Z</time>
      </trkpt>
      <trkpt lat="41.665309785" lon="2.543633046">
        <ele>446.67</ele>
        <time>2013-07-14T10:38:59Z</time>
      </trkpt>
      <trkpt lat="41.665386982" lon="2.543751147">
        <ele>448.11</ele>
        <time>2013-07-14T10:39:08Z</time>
      </trkpt>
      <trkpt lat="41.665404082" lon="2.543773359">
        <ele>449.07</ele>
        <time>2013-07-14T10:39:10Z</time>
      </trkpt>
      <trkpt lat="41.665453870" lon="2.543870337">
        <ele>450.52</ele>
        <time>2013-07-14T10:39:17Z</time>
      </trkpt>
      <trkpt lat="41.665448589" lon="2.543874277">
        <ele>450.52</ele>
        <time>2013-07-14T10:39:18Z</time>
      </trkpt>
      <trkpt lat="41.665314395" lon="2.543805461">
        <ele>450.52</ele>
        <time>2013-07-14T10:39:25Z</time>
      </trkpt>
      <trkpt lat="41.665219596" lon="2.543695072">
        <ele>451.00</ele>
        <time>2013-07-14T10:39:31Z</time>
      </trkpt>
      <trkpt lat="41.665178944" lon="2.543565739">
        <ele>451.96</ele>
        <time>2013-07-14T10:39:38Z</time>
      </trkpt>
      <trkpt lat="41.665086575" lon="2.543445794">
        <ele>452.92</ele>
        <time>2013-07-14T10:39:47Z</time>
      </trkpt>
      <trkpt lat="41.664933019" lon="2.543446465">
        <ele>454.36</ele>
        <time>2013-07-14T10:39:56Z</time>
      </trkpt>
      <trkpt lat="41.664837549" lon="2.543413356">
        <ele>454.84</ele>
        <time>2013-07-14T10:40:02Z</time>
      </trkpt>
      <trkpt lat="41.664731601" lon="2.543331130">
        <ele>455.32</ele>
        <time>2013-07-14T10:40:09Z</time>
      </trkpt>
      <trkpt lat="41.664620206" lon="2.543215124">
        <ele>456.76</ele>
        <time>2013-07-14T10:40:18Z</time>
      </trkpt>
      <trkpt lat="41.664500512" lon="2.543177992">
        <ele>457.24</ele>
        <time>2013-07-14T10:40:24Z</time>
      </trkpt>
      <trkpt lat="41.664283505" lon="2.543277821">
        <ele>455.80</ele>
        <time>2013-07-14T10:40:29Z</time>
      </trkpt>
      <trkpt lat="41.664223574" lon="2.543398772">
        <ele>455.80</ele>
        <time>2013-07-14T10:40:31Z</time>
      </trkpt>
      <trkpt lat="41.664086027" lon="2.543731114">
        <ele>455.80</ele>
        <time>2013-07-14T10:40:39Z</time>
      </trkpt>
      <trkpt lat="41.663907912" lon="2.543840163">
        <ele>455.80</ele>
        <time>2013-07-14T10:40:45Z</time>
      </trkpt>
      <trkpt lat="41.663726108" lon="2.543908894">
        <ele>454.84</ele>
        <time>2013-07-14T10:40:50Z</time>
      </trkpt>
      <trkpt lat="41.663555956" lon="2.544054153">
        <ele>454.36</ele>
        <time>2013-07-14T10:40:55Z</time>
      </trkpt>
      <trkpt lat="41.663449338" lon="2.544121292">
        <ele>453.88</ele>
        <time>2013-07-14T10:40:59Z</time>
      </trkpt>
      <trkpt lat="41.663340541" lon="2.544087513">
        <ele>455.32</ele>
        <time>2013-07-14T10:41:04Z</time>
      </trkpt>
      <trkpt lat="41.663281281" lon="2.544011908">
        <ele>456.76</ele>
        <time>2013-07-14T10:41:10Z</time>
      </trkpt>
      <trkpt lat="41.663159324" lon="2.543992546">
        <ele>458.69</ele>
        <time>2013-07-14T10:41:19Z</time>
      </trkpt>
      <trkpt lat="41.663079947" lon="2.544037975">
        <ele>460.13</ele>
        <time>2013-07-14T10:41:25Z</time>
      </trkpt>
      <trkpt lat="41.663006522" lon="2.544136379">
        <ele>462.05</ele>
        <time>2013-07-14T10:41:34Z</time>
      </trkpt>
      <trkpt lat="41.662931420" lon="2.544280799">
        <ele>463.49</ele>
        <time>2013-07-14T10:41:44Z</time>
      </trkpt>
      <trkpt lat="41.662837040" lon="2.544268394">
        <ele>464.45</ele>
        <time>2013-07-14T10:41:51Z</time>
      </trkpt>
      <trkpt lat="41.662816672" lon="2.544248613">
        <ele>464.45</ele>
        <time>2013-07-14T10:41:53Z</time>
      </trkpt>
      <trkpt lat="41.662786665" lon="2.544196813">
        <ele>465.42</ele>
        <time>2013-07-14T10:41:57Z</time>
      </trkpt>
      <trkpt lat="41.662721370" lon="2.544084327">
        <ele>467.34</ele>
        <time>2013-07-14T10:42:06Z</time>
      </trkpt>
      <trkpt lat="41.662693206" lon="2.543965975">
        <ele>468.30</ele>
        <time>2013-07-14T10:42:15Z</time>
      </trkpt>
      <trkpt lat="41.662601592" lon="2.543831697">
        <ele>469.74</ele>
        <time>2013-07-14T10:42:25Z</time>
      </trkpt>
      <trkpt lat="41.662495226" lon="2.543744525">
        <ele>470.70</ele>
        <time>2013-07-14T10:42:33Z</time>
      </trkpt>
      <trkpt lat="41.662395816" lon="2.543684175">
        <ele>472.14</ele>
        <time>2013-07-14T10:42:41Z</time>
      </trkpt>
      <trkpt lat="41.662381902" lon="2.543675626">
        <ele>472.14</ele>
        <time>2013-07-14T10:42:42Z</time>
      </trkpt>
      <trkpt lat="41.662338903" lon="2.543597758">
        <ele>472.63</ele>
        <time>2013-07-14T10:42:47Z</time>
      </trkpt>
      <trkpt lat="41.662329516" lon="2.543418134">
        <ele>474.55</ele>
        <time>2013-07-14T10:42:56Z</time>
      </trkpt>
      <trkpt lat="41.662243517" lon="2.543283856">
        <ele>475.51</ele>
        <time>2013-07-14T10:43:03Z</time>
      </trkpt>
      <trkpt lat="41.662046962" lon="2.543190314">
        <ele>475.51</ele>
        <time>2013-07-14T10:43:09Z</time>
      </trkpt>
      <trkpt lat="41.661921820" lon="2.543062741">
        <ele>475.51</ele>
        <time>2013-07-14T10:43:16Z</time>
      </trkpt>
      <trkpt lat="41.661809670" lon="2.542966265">
        <ele>476.47</ele>
        <time>2013-07-14T10:43:23Z</time>
      </trkpt>
      <trkpt lat="41.661752170" lon="2.542885548">
        <ele>477.43</ele>
        <time>2013-07-14T10:43:28Z</time>
      </trkpt>
      <trkpt lat="41.661657287" lon="2.542679353">
        <ele>477.91</ele>
        <time>2013-07-14T10:43:35Z</time>
      </trkpt>
      <trkpt lat="41.661546897" lon="2.542559240">
        <ele>475.99</ele>
        <time>2013-07-14T10:43:38Z</time>
      </trkpt>
      <trkpt lat="41.661436340" lon="2.542625541">
        <ele>475.51</ele>
        <time>2013-07-14T10:43:41Z</time>
      </trkpt>
      <trkpt lat="41.661377164" lon="2.542784127">
        <ele>477.43</ele>
        <time>2013-07-14T10:43:47Z</time>
      </trkpt>
      <trkpt lat="41.661321759" lon="2.542827964">
        <ele>478.39</ele>
        <time>2013-07-14T10:43:51Z</time>
      </trkpt>
      <trkpt lat="41.661294099" lon="2.542838190">
        <ele>478.87</ele>
        <time>2013-07-14T10:43:53Z</time>
      </trkpt>
      <trkpt lat="41.661167029" lon="2.542928631">
        <ele>480.32</ele>
        <time>2013-07-14T10:44:01Z</time>
      </trkpt>
      <trkpt lat="41.661071643" lon="2.542988729">
        <ele>482.24</ele>
        <time>2013-07-14T10:44:06Z</time>
      </trkpt>
      <trkpt lat="41.660941305" lon="2.543111272">
        <ele>483.68</ele>
        <time>2013-07-14T10:44:14Z</time>
      </trkpt>
      <trkpt lat="41.660871400" lon="2.543227110">
        <ele>485.12</ele>
        <time>2013-07-14T10:44:20Z</time>
      </trkpt>
      <trkpt lat="41.660918506" lon="2.543447973">
        <ele>487.05</ele>
        <time>2013-07-14T10:44:30Z</time>
      </trkpt>
      <trkpt lat="41.661006013" lon="2.543541012">
        <ele>487.53</ele>
        <time>2013-07-14T10:44:37Z</time>
      </trkpt>
      <trkpt lat="41.661138782" lon="2.543812670">
        <ele>488.01</ele>
        <time>2013-07-14T10:44:47Z</time>
      </trkpt>
      <trkpt lat="41.661154792" lon="2.543859022">
        <ele>488.01</ele>
        <time>2013-07-14T10:44:48Z</time>
      </trkpt>
      <trkpt lat="41.661263002" lon="2.544151299">
        <ele>486.56</ele>
        <time>2013-07-14T10:44:53Z</time>
      </trkpt>
      <trkpt lat="41.661150769" lon="2.544478193">
        <ele>483.20</ele>
        <time>2013-07-14T10:44:57Z</time>
      </trkpt>
      <trkpt lat="41.661112379" lon="2.544559330">
        <ele>483.20</ele>
        <time>2013-07-14T10:44:58Z</time>
      </trkpt>
      <trkpt lat="41.660960080" lon="2.544640383">
        <ele>482.24</ele>
        <time>2013-07-14T10:45:01Z</time>
      </trkpt>
      <trkpt lat="41.660909454" lon="2.544618171">
        <ele>482.24</ele>
        <time>2013-07-14T10:45:02Z</time>
      </trkpt>
      <trkpt lat="41.660816414" lon="2.544558659">
        <ele>482.24</ele>
        <time>2013-07-14T10:45:04Z</time>
      </trkpt>
      <trkpt lat="41.660607202" lon="2.544560587">
        <ele>482.24</ele>
        <time>2013-07-14T10:45:09Z</time>
      </trkpt>
      <trkpt lat="41.660387848" lon="2.544735769">
        <ele>482.24</ele>
        <time>2013-07-14T10:45:17Z</time>
      </trkpt>
      <trkpt lat="41.660284834" lon="2.544830401">
        <ele>483.68</ele>
        <time>2013-07-14T10:45:22Z</time>
      </trkpt>
      <trkpt lat="41.660097163" lon="2.544953531">
        <ele>485.60</ele>
        <time>2013-07-14T10:45:31Z</time>
      </trkpt>
      <trkpt lat="41.659899183" lon="2.544956967">
        <ele>486.56</ele>
        <time>2013-07-14T10:45:40Z</time>
      </trkpt>
      <trkpt lat="41.659696173" lon="2.544981023">
        <ele>488.97</ele>
        <time>2013-07-14T10:45:51Z</time>
      </trkpt>
      <trkpt lat="41.659500539" lon="2.545082864">
        <ele>488.97</ele>
        <time>2013-07-14T10:45:58Z</time>
      </trkpt>
      <trkpt lat="41.659297781" lon="2.545156205">
        <ele>487.05</ele>
        <time>2013-07-14T10:46:02Z</time>
      </trkpt>
      <trkpt lat="41.659167275" lon="2.545204317">
        <ele>486.56</ele>
        <time>2013-07-14T10:46:04Z</time>
      </trkpt>
      <trkpt lat="41.658891343" lon="2.545508329">
        <ele>485.60</ele>
        <time>2013-07-14T10:46:09Z</time>
      </trkpt>
      <trkpt lat="41.658801656" lon="2.545647552">
        <ele>485.60</ele>
        <time>2013-07-14T10:46:11Z</time>
      </trkpt>
      <trkpt lat="41.658608789" lon="2.545736820">
        <ele>484.64</ele>
        <time>2013-07-14T10:46:15Z</time>
      </trkpt>
      <trkpt lat="41.658448527" lon="2.545689043">
        <ele>486.08</ele>
        <time>2013-07-14T10:46:20Z</time>
      </trkpt>
      <trkpt lat="41.658253396" lon="2.545596507">
        <ele>488.49</ele>
        <time>2013-07-14T10:46:28Z</time>
      </trkpt>
      <trkpt lat="41.658113502" lon="2.545494583">
        <ele>488.97</ele>
        <time>2013-07-14T10:46:34Z</time>
      </trkpt>
      <trkpt lat="41.658051392" lon="2.545435406">
        <ele>488.97</ele>
        <time>2013-07-14T10:46:36Z</time>
      </trkpt>
      <trkpt lat="41.657863554" lon="2.545310684">
        <ele>487.53</ele>
        <time>2013-07-14T10:46:40Z</time>
      </trkpt>
      <trkpt lat="41.657679571" lon="2.545395425">
        <ele>486.56</ele>
        <time>2013-07-14T10:46:43Z</time>
      </trkpt>
      <trkpt lat="41.657414619" lon="2.545572618">
        <ele>486.56</ele>
        <time>2013-07-14T10:46:50Z</time>
      </trkpt>
      <trkpt lat="41.657363741" lon="2.545593573">
        <ele>488.49</ele>
        <time>2013-07-14T10:46:52Z</time>
      </trkpt>
      <trkpt lat="41.657140950" lon="2.545652581">
        <ele>488.97</ele>
        <time>2013-07-14T10:46:59Z</time>
      </trkpt>
      <trkpt lat="41.656911118" lon="2.545679571">
        <ele>489.45</ele>
        <time>2013-07-14T10:47:06Z</time>
      </trkpt>
      <trkpt lat="41.656606184" lon="2.545618216">
        <ele>489.45</ele>
        <time>2013-07-14T10:47:13Z</time>
      </trkpt>
      <trkpt lat="41.656334192" lon="2.545592651">
        <ele>488.01</ele>
        <time>2013-07-14T10:47:20Z</time>
      </trkpt>
      <trkpt lat="41.656080472" lon="2.545637075">
        <ele>488.01</ele>
        <time>2013-07-14T10:47:27Z</time>
      </trkpt>
      <trkpt lat="41.656003274" lon="2.545629196">
        <ele>487.53</ele>
        <time>2013-07-14T10:47:29Z</time>
      </trkpt>
      <trkpt lat="41.655853825" lon="2.545577480">
        <ele>486.08</ele>
        <time>2013-07-14T10:47:32Z</time>
      </trkpt>
      <trkpt lat="41.655657353" lon="2.545378829">
        <ele>482.24</ele>
        <time>2013-07-14T10:47:36Z</time>
      </trkpt>
      <trkpt lat="41.655490302" lon="2.545085797">
        <ele>478.39</ele>
        <time>2013-07-14T10:47:40Z</time>
      </trkpt>
      <trkpt lat="41.655293076" lon="2.545043552">
        <ele>477.43</ele>
        <time>2013-07-14T10:47:44Z</time>
      </trkpt>
      <trkpt lat="41.655234821" lon="2.545070207">
        <ele>476.47</ele>
        <time>2013-07-14T10:47:45Z</time>
      </trkpt>
      <trkpt lat="41.655108674" lon="2.545140615">
        <ele>475.03</ele>
        <time>2013-07-14T10:47:47Z</time>
      </trkpt>
      <trkpt lat="41.654863754" lon="2.545156960">
        <ele>470.70</ele>
        <time>2013-07-14T10:47:51Z</time>
      </trkpt>
      <trkpt lat="41.654596288" lon="2.545078253">
        <ele>466.38</ele>
        <time>2013-07-14T10:47:55Z</time>
      </trkpt>
      <trkpt lat="41.654413311" lon="2.544987058">
        <ele>462.53</ele>
        <time>2013-07-14T10:47:58Z</time>
      </trkpt>
      <trkpt lat="41.654331001" lon="2.544946574">
        <ele>461.09</ele>
        <time>2013-07-14T10:48:00Z</time>
      </trkpt>
      <trkpt lat="41.654250618" lon="2.544912208">
        <ele>459.17</ele>
        <time>2013-07-14T10:48:02Z</time>
      </trkpt>
      <trkpt lat="41.654017098" lon="2.544764351">
        <ele>453.88</ele>
        <time>2013-07-14T10:48:07Z</time>
      </trkpt>
      <trkpt lat="41.653865470" lon="2.544698386">
        <ele>450.52</ele>
        <time>2013-07-14T10:48:10Z</time>
      </trkpt>
      <trkpt lat="41.653773101" lon="2.544668630">
        <ele>448.11</ele>
        <time>2013-07-14T10:48:12Z</time>
      </trkpt>
      <trkpt lat="41.653573277" lon="2.544521947">
        <ele>444.75</ele>
        <time>2013-07-14T10:48:17Z</time>
      </trkpt>
      <trkpt lat="41.653536815" lon="2.544496717">
        <ele>444.27</ele>
        <time>2013-07-14T10:48:18Z</time>
      </trkpt>
      <trkpt lat="41.653362472" lon="2.544356655">
        <ele>441.86</ele>
        <time>2013-07-14T10:48:24Z</time>
      </trkpt>
      <trkpt lat="41.653126521" lon="2.544379370">
        <ele>438.02</ele>
        <time>2013-07-14T10:48:29Z</time>
      </trkpt>
      <trkpt lat="41.652852014" lon="2.544433434">
        <ele>435.13</ele>
        <time>2013-07-14T10:48:34Z</time>
      </trkpt>
      <trkpt lat="41.652747492" lon="2.544422956">
        <ele>434.65</ele>
        <time>2013-07-14T10:48:36Z</time>
      </trkpt>
      <trkpt lat="41.652502489" lon="2.544422789">
        <ele>433.21</ele>
        <time>2013-07-14T10:48:40Z</time>
      </trkpt>
      <trkpt lat="41.652257150" lon="2.544479786">
        <ele>431.77</ele>
        <time>2013-07-14T10:48:44Z</time>
      </trkpt>
      <trkpt lat="41.652011058" lon="2.544586655">
        <ele>428.89</ele>
        <time>2013-07-14T10:48:49Z</time>
      </trkpt>
      <trkpt lat="41.651777454" lon="2.544789162">
        <ele>425.04</ele>
        <time>2013-07-14T10:48:54Z</time>
      </trkpt>
      <trkpt lat="41.651683996" lon="2.544879351">
        <ele>423.12</ele>
        <time>2013-07-14T10:48:56Z</time>
      </trkpt>
      <trkpt lat="41.651498756" lon="2.544925870">
        <ele>420.71</ele>
        <time>2013-07-14T10:49:00Z</time>
      </trkpt>
      <trkpt lat="41.651220896" lon="2.544934588">
        <ele>418.31</ele>
        <time>2013-07-14T10:49:05Z</time>
      </trkpt>
      <trkpt lat="41.650901042" lon="2.544999883">
        <ele>416.39</ele>
        <time>2013-07-14T10:49:10Z</time>
      </trkpt>
      <trkpt lat="41.650849074" lon="2.544951100">
        <ele>415.43</ele>
        <time>2013-07-14T10:49:11Z</time>
      </trkpt>
      <trkpt lat="41.650427381" lon="2.544642395">
        <ele>411.10</ele>
        <time>2013-07-14T10:49:17Z</time>
      </trkpt>
      <trkpt lat="41.650016165" lon="2.544667624">
        <ele>408.70</ele>
        <time>2013-07-14T10:49:22Z</time>
      </trkpt>
      <trkpt lat="41.649940811" lon="2.544697715">
        <ele>407.74</ele>
        <time>2013-07-14T10:49:23Z</time>
      </trkpt>
      <trkpt lat="41.649692455" lon="2.544652537">
        <ele>404.85</ele>
        <time>2013-07-14T10:49:27Z</time>
      </trkpt>
      <trkpt lat="41.649645517" lon="2.544593025">
        <ele>404.37</ele>
        <time>2013-07-14T10:49:28Z</time>
      </trkpt>
      <trkpt lat="41.649522470" lon="2.544404600">
        <ele>403.41</ele>
        <time>2013-07-14T10:49:31Z</time>
      </trkpt>
      <trkpt lat="41.649428509" lon="2.544047866">
        <ele>401.97</ele>
        <time>2013-07-14T10:49:37Z</time>
      </trkpt>
      <trkpt lat="41.649426079" lon="2.543975446">
        <ele>401.49</ele>
        <time>2013-07-14T10:49:38Z</time>
      </trkpt>
      <trkpt lat="41.649424905" lon="2.543814179">
        <ele>400.53</ele>
        <time>2013-07-14T10:49:40Z</time>
      </trkpt>
      <trkpt lat="41.649290962" lon="2.543143543">
        <ele>397.64</ele>
        <time>2013-07-14T10:49:47Z</time>
      </trkpt>
      <trkpt lat="41.649099352" lon="2.542625290">
        <ele>396.68</ele>
        <time>2013-07-14T10:49:52Z</time>
      </trkpt>
      <trkpt lat="41.649030285" lon="2.542166799">
        <ele>395.24</ele>
        <time>2013-07-14T10:49:56Z</time>
      </trkpt>
      <trkpt lat="41.648902545" lon="2.541580904">
        <ele>392.84</ele>
        <time>2013-07-14T10:50:02Z</time>
      </trkpt>
      <trkpt lat="41.648779331" lon="2.541482249">
        <ele>391.87</ele>
        <time>2013-07-14T10:50:04Z</time>
      </trkpt>
      <trkpt lat="41.648467692" lon="2.541387534">
        <ele>390.91</ele>
        <time>2013-07-14T10:50:08Z</time>
      </trkpt>
      <trkpt lat="41.648215899" lon="2.541315114">
        <ele>388.51</ele>
        <time>2013-07-14T10:50:11Z</time>
      </trkpt>
      <trkpt lat="41.648049770" lon="2.541272115">
        <ele>388.03</ele>
        <time>2013-07-14T10:50:13Z</time>
      </trkpt>
      <trkpt lat="41.647770401" lon="2.541123755">
        <ele>383.70</ele>
        <time>2013-07-14T10:50:17Z</time>
      </trkpt>
      <trkpt lat="41.647708459" lon="2.541064914">
        <ele>382.74</ele>
        <time>2013-07-14T10:50:18Z</time>
      </trkpt>
      <trkpt lat="41.647588346" lon="2.540940611">
        <ele>380.82</ele>
        <time>2013-07-14T10:50:20Z</time>
      </trkpt>
      <trkpt lat="41.647193475" lon="2.540768530">
        <ele>376.01</ele>
        <time>2013-07-14T10:50:25Z</time>
      </trkpt>
      <trkpt lat="41.646944700" lon="2.540775403">
        <ele>374.57</ele>
        <time>2013-07-14T10:50:28Z</time>
      </trkpt>
      <trkpt lat="41.646784187" lon="2.540805662">
        <ele>373.61</ele>
        <time>2013-07-14T10:50:30Z</time>
      </trkpt>
      <trkpt lat="41.646645717" lon="2.540832065">
        <ele>371.21</ele>
        <time>2013-07-14T10:50:32Z</time>
      </trkpt>
      <trkpt lat="41.646343801" lon="2.540750509">
        <ele>366.40</ele>
        <time>2013-07-14T10:50:36Z</time>
      </trkpt>
      <trkpt lat="41.646110030" lon="2.540641461">
        <ele>362.07</ele>
        <time>2013-07-14T10:50:39Z</time>
      </trkpt>
      <trkpt lat="41.645889335" lon="2.540400649">
        <ele>358.23</ele>
        <time>2013-07-14T10:50:43Z</time>
      </trkpt>
      <trkpt lat="41.645831667" lon="2.540345328">
        <ele>358.23</ele>
        <time>2013-07-14T10:50:44Z</time>
      </trkpt>
      <trkpt lat="41.645766540" lon="2.540302999">
        <ele>357.27</ele>
        <time>2013-07-14T10:50:45Z</time>
      </trkpt>
      <trkpt lat="41.645574007" lon="2.540213565">
        <ele>355.83</ele>
        <time>2013-07-14T10:50:48Z</time>
      </trkpt>
      <trkpt lat="41.645295225" lon="2.540151036">
        <ele>355.83</ele>
        <time>2013-07-14T10:50:53Z</time>
      </trkpt>
      <trkpt lat="41.645143261" lon="2.540095547">
        <ele>358.23</ele>
        <time>2013-07-14T10:50:58Z</time>
      </trkpt>
      <trkpt lat="41.644935223" lon="2.539994713">
        <ele>359.19</ele>
        <time>2013-07-14T10:51:06Z</time>
      </trkpt>
      <trkpt lat="41.644873196" lon="2.539960599">
        <ele>360.63</ele>
        <time>2013-07-14T10:51:09Z</time>
      </trkpt>
      <trkpt lat="41.644704469" lon="2.539878121">
        <ele>362.55</ele>
        <time>2013-07-14T10:51:17Z</time>
      </trkpt>
      <trkpt lat="41.644579662" lon="2.539933609">
        <ele>363.52</ele>
        <time>2013-07-14T10:51:24Z</time>
      </trkpt>
      <trkpt lat="41.644511350" lon="2.540094793">
        <ele>365.44</ele>
        <time>2013-07-14T10:51:33Z</time>
      </trkpt>
      <trkpt lat="41.644489054" lon="2.540259749">
        <ele>366.88</ele>
        <time>2013-07-14T10:51:41Z</time>
      </trkpt>
      <trkpt lat="41.644406660" lon="2.540418167">
        <ele>368.32</ele>
        <time>2013-07-14T10:51:51Z</time>
      </trkpt>
      <trkpt lat="41.644353854" lon="2.540448509">
        <ele>369.28</ele>
        <time>2013-07-14T10:51:55Z</time>
      </trkpt>
      <trkpt lat="41.644270118" lon="2.540395536">
        <ele>371.21</ele>
        <time>2013-07-14T10:52:04Z</time>
      </trkpt>
      <trkpt lat="41.644262491" lon="2.540380029">
        <ele>371.69</ele>
        <time>2013-07-14T10:52:05Z</time>
      </trkpt>
      <trkpt lat="41.644256959" lon="2.540298976">
        <ele>373.13</ele>
        <time>2013-07-14T10:52:11Z</time>
      </trkpt>
      <trkpt lat="41.644203566" lon="2.540171739">
        <ele>373.61</ele>
        <time>2013-07-14T10:52:18Z</time>
      </trkpt>
      <trkpt lat="41.644076413" lon="2.539992534">
        <ele>376.01</ele>
        <time>2013-07-14T10:52:31Z</time>
      </trkpt>
      <trkpt lat="41.644001059" lon="2.539867560">
        <ele>377.94</ele>
        <time>2013-07-14T10:52:40Z</time>
      </trkpt>
      <trkpt lat="41.643895280" lon="2.539744010">
        <ele>379.86</ele>
        <time>2013-07-14T10:52:50Z</time>
      </trkpt>
      <trkpt lat="41.643882539" lon="2.539728839">
        <ele>379.86</ele>
        <time>2013-07-14T10:52:51Z</time>
      </trkpt>
      <trkpt lat="41.643817496" lon="2.539670920">
        <ele>380.82</ele>
        <time>2013-07-14T10:52:56Z</time>
      </trkpt>
      <trkpt lat="41.643787069" lon="2.539643176">
        <ele>381.30</ele>
        <time>2013-07-14T10:52:59Z</time>
      </trkpt>
      <trkpt lat="41.643678943" lon="2.539588945">
        <ele>382.26</ele>
        <time>2013-07-14T10:53:07Z</time>
      </trkpt>
      <trkpt lat="41.643523207" lon="2.539527254">
        <ele>384.18</ele>
        <time>2013-07-14T10:53:17Z</time>
      </trkpt>
      <trkpt lat="41.643509628" lon="2.539519291">
        <ele>384.18</ele>
        <time>2013-07-14T10:53:18Z</time>
      </trkpt>
      <trkpt lat="41.643449027" lon="2.539494900">
        <ele>384.66</ele>
        <time>2013-07-14T10:53:22Z</time>
      </trkpt>
      <trkpt lat="41.643329753" lon="2.539365651">
        <ele>386.11</ele>
        <time>2013-07-14T10:53:32Z</time>
      </trkpt>
      <trkpt lat="41.643237803" lon="2.539223662">
        <ele>388.03</ele>
        <time>2013-07-14T10:53:40Z</time>
      </trkpt>
      <trkpt lat="41.643145854" lon="2.539136741">
        <ele>389.95</ele>
        <time>2013-07-14T10:53:48Z</time>
      </trkpt>
      <trkpt lat="41.643065890" lon="2.539090138">
        <ele>390.43</ele>
        <time>2013-07-14T10:53:53Z</time>
      </trkpt>
      <trkpt lat="41.642941838" lon="2.539025597">
        <ele>391.87</ele>
        <time>2013-07-14T10:54:01Z</time>
      </trkpt>
      <trkpt lat="41.642803285" lon="2.538921662">
        <ele>392.84</ele>
        <time>2013-07-14T10:54:10Z</time>
      </trkpt>
      <trkpt lat="41.642657859" lon="2.538814960">
        <ele>393.32</ele>
        <time>2013-07-14T10:54:18Z</time>
      </trkpt>
      <trkpt lat="41.642514277" lon="2.538655201">
        <ele>394.28</ele>
        <time>2013-07-14T10:54:27Z</time>
      </trkpt>
      <trkpt lat="41.642413862" lon="2.538585296">
        <ele>394.28</ele>
        <time>2013-07-14T10:54:31Z</time>
      </trkpt>
      <trkpt lat="41.642080346" lon="2.538525701">
        <ele>392.84</ele>
        <time>2013-07-14T10:54:38Z</time>
      </trkpt>
      <trkpt lat="41.641975321" lon="2.538487060">
        <ele>392.36</ele>
        <time>2013-07-14T10:54:40Z</time>
      </trkpt>
      <trkpt lat="41.641847162" lon="2.538400894">
        <ele>392.36</ele>
        <time>2013-07-14T10:54:43Z</time>
      </trkpt>
      <trkpt lat="41.641682038" lon="2.538163686">
        <ele>392.36</ele>
        <time>2013-07-14T10:54:50Z</time>
      </trkpt>
      <trkpt lat="41.641614648" lon="2.537956569">
        <ele>392.36</ele>
        <time>2013-07-14T10:54:55Z</time>
      </trkpt>
      <trkpt lat="41.641567290" lon="2.537490284">
        <ele>391.39</ele>
        <time>2013-07-14T10:55:02Z</time>
      </trkpt>
      <trkpt lat="41.641608780" lon="2.537082840">
        <ele>391.39</ele>
        <time>2013-07-14T10:55:08Z</time>
      </trkpt>
      <trkpt lat="41.641599896" lon="2.537032632">
        <ele>391.39</ele>
        <time>2013-07-14T10:55:09Z</time>
      </trkpt>
      <trkpt lat="41.641549772" lon="2.536888380">
        <ele>391.39</ele>
        <time>2013-07-14T10:55:12Z</time>
      </trkpt>
      <trkpt lat="41.641359167" lon="2.536487976">
        <ele>388.99</ele>
        <time>2013-07-14T10:55:18Z</time>
      </trkpt>
      <trkpt lat="41.641338296" lon="2.536401559">
        <ele>388.51</ele>
        <time>2013-07-14T10:55:19Z</time>
      </trkpt>
      <trkpt lat="41.641164456" lon="2.535828823">
        <ele>386.59</ele>
        <time>2013-07-14T10:55:25Z</time>
      </trkpt>
      <trkpt lat="41.641030932" lon="2.535528500">
        <ele>385.15</ele>
        <time>2013-07-14T10:55:28Z</time>
      </trkpt>
      <trkpt lat="41.640922973" lon="2.535385672">
        <ele>383.70</ele>
        <time>2013-07-14T10:55:30Z</time>
      </trkpt>
      <trkpt lat="41.640760783" lon="2.535235552">
        <ele>383.70</ele>
        <time>2013-07-14T10:55:34Z</time>
      </trkpt>
      <trkpt lat="41.640664308" lon="2.535218034">
        <ele>383.22</ele>
        <time>2013-07-14T10:55:36Z</time>
      </trkpt>
      <trkpt lat="41.640457275" lon="2.535225075">
        <ele>382.74</ele>
        <time>2013-07-14T10:55:40Z</time>
      </trkpt>
      <trkpt lat="41.640254516" lon="2.535255920">
        <ele>382.74</ele>
        <time>2013-07-14T10:55:44Z</time>
      </trkpt>
      <trkpt lat="41.640047483" lon="2.535152739">
        <ele>381.78</ele>
        <time>2013-07-14T10:55:49Z</time>
      </trkpt>
      <trkpt lat="41.639853275" lon="2.535044780">
        <ele>380.34</ele>
        <time>2013-07-14T10:55:54Z</time>
      </trkpt>
      <trkpt lat="41.639664263" lon="2.534994573">
        <ele>378.42</ele>
        <time>2013-07-14T10:55:58Z</time>
      </trkpt>
      <trkpt lat="41.639338123" lon="2.534953166">
        <ele>375.53</ele>
        <time>2013-07-14T10:56:05Z</time>
      </trkpt>
      <trkpt lat="41.639148859" lon="2.534927433">
        <ele>374.09</ele>
        <time>2013-07-14T10:56:10Z</time>
      </trkpt>
      <trkpt lat="41.639111057" lon="2.534935480">
        <ele>374.09</ele>
        <time>2013-07-14T10:56:11Z</time>
      </trkpt>
      <trkpt lat="41.638953393" lon="2.534877813">
        <ele>373.13</ele>
        <time>2013-07-14T10:56:15Z</time>
      </trkpt>
      <trkpt lat="41.638590625" lon="2.534675473">
        <ele>373.13</ele>
        <time>2013-07-14T10:56:25Z</time>
      </trkpt>
      <trkpt lat="41.638317291" lon="2.534624847">
        <ele>373.13</ele>
        <time>2013-07-14T10:56:33Z</time>
      </trkpt>
      <trkpt lat="41.638153508" lon="2.534742864">
        <ele>373.13</ele>
        <time>2013-07-14T10:56:39Z</time>
      </trkpt>
      <trkpt lat="41.637965921" lon="2.534899773">
        <ele>374.57</ele>
        <time>2013-07-14T10:56:47Z</time>
      </trkpt>
      <trkpt lat="41.637897274" lon="2.534938749">
        <ele>375.53</ele>
        <time>2013-07-14T10:56:50Z</time>
      </trkpt>
      <trkpt lat="41.637776323" lon="2.534852248">
        <ele>376.01</ele>
        <time>2013-07-14T10:56:56Z</time>
      </trkpt>
      <trkpt lat="41.637643805" lon="2.534682514">
        <ele>376.97</ele>
        <time>2013-07-14T10:57:03Z</time>
      </trkpt>
      <trkpt lat="41.637495026" lon="2.534596013">
        <ele>377.94</ele>
        <time>2013-07-14T10:57:10Z</time>
      </trkpt>
      <trkpt lat="41.637289250" lon="2.534533065">
        <ele>378.42</ele>
        <time>2013-07-14T10:57:18Z</time>
      </trkpt>
      <trkpt lat="41.637048606" lon="2.534359895">
        <ele>378.90</ele>
        <time>2013-07-14T10:57:28Z</time>
      </trkpt>
      <trkpt lat="41.636873676" lon="2.534264257">
        <ele>379.86</ele>
        <time>2013-07-14T10:57:36Z</time>
      </trkpt>
      <trkpt lat="41.636711486" lon="2.534209607">
        <ele>381.30</ele>
        <time>2013-07-14T10:57:43Z</time>
      </trkpt>
      <trkpt lat="41.636572179" lon="2.534130482">
        <ele>381.78</ele>
        <time>2013-07-14T10:57:49Z</time>
      </trkpt>
      <trkpt lat="41.636562707" lon="2.533966951">
        <ele>381.78</ele>
        <time>2013-07-14T10:57:54Z</time>
      </trkpt>
      <trkpt lat="41.636652896" lon="2.533665957">
        <ele>381.78</ele>
        <time>2013-07-14T10:58:03Z</time>
      </trkpt>
      <trkpt lat="41.636698075" lon="2.533431683">
        <ele>381.78</ele>
        <time>2013-07-14T10:58:10Z</time>
      </trkpt>
      <trkpt lat="41.636657339" lon="2.533187015">
        <ele>381.78</ele>
        <time>2013-07-14T10:58:17Z</time>
      </trkpt>
      <trkpt lat="41.636543680" lon="2.533028094">
        <ele>381.78</ele>
        <time>2013-07-14T10:58:23Z</time>
      </trkpt>
      <trkpt lat="41.636442259" lon="2.532924745">
        <ele>381.78</ele>
        <time>2013-07-14T10:58:29Z</time>
      </trkpt>
      <trkpt lat="41.636432955" lon="2.532739841">
        <ele>381.78</ele>
        <time>2013-07-14T10:58:34Z</time>
      </trkpt>
      <trkpt lat="41.636501268" lon="2.532435326">
        <ele>382.74</ele>
        <time>2013-07-14T10:58:43Z</time>
      </trkpt>
      <trkpt lat="41.636485510" lon="2.532173392">
        <ele>382.74</ele>
        <time>2013-07-14T10:58:50Z</time>
      </trkpt>
      <trkpt lat="41.636360368" lon="2.531890838">
        <ele>382.26</ele>
        <time>2013-07-14T10:58:58Z</time>
      </trkpt>
      <trkpt lat="41.636328098" lon="2.531667125">
        <ele>382.74</ele>
        <time>2013-07-14T10:59:04Z</time>
      </trkpt>
      <trkpt lat="41.636326421" lon="2.531434192">
        <ele>382.74</ele>
        <time>2013-07-14T10:59:11Z</time>
      </trkpt>
      <trkpt lat="41.636309154" lon="2.531217352">
        <ele>382.74</ele>
        <time>2013-07-14T10:59:16Z</time>
      </trkpt>
      <trkpt lat="41.636263389" lon="2.531010235">
        <ele>382.74</ele>
        <time>2013-07-14T10:59:22Z</time>
      </trkpt>
      <trkpt lat="41.636150569" lon="2.530909820">
        <ele>382.74</ele>
        <time>2013-07-14T10:59:28Z</time>
      </trkpt>
      <trkpt lat="41.635953678" lon="2.530942677">
        <ele>382.74</ele>
        <time>2013-07-14T10:59:35Z</time>
      </trkpt>
      <trkpt lat="41.635873631" lon="2.530958016">
        <ele>382.74</ele>
        <time>2013-07-14T10:59:37Z</time>
      </trkpt>
      <trkpt lat="41.635789225" lon="2.530993471">
        <ele>381.30</ele>
        <time>2013-07-14T10:59:39Z</time>
      </trkpt>
      <trkpt lat="41.635747651" lon="2.531029681">
        <ele>380.34</ele>
        <time>2013-07-14T10:59:40Z</time>
      </trkpt>
      <trkpt lat="41.635671124" lon="2.531189608">
        <ele>379.38</ele>
        <time>2013-07-14T10:59:43Z</time>
      </trkpt>
      <trkpt lat="41.635596944" lon="2.531487417">
        <ele>376.01</ele>
        <time>2013-07-14T10:59:48Z</time>
      </trkpt>
      <trkpt lat="41.635573894" lon="2.531615911">
        <ele>375.53</ele>
        <time>2013-07-14T10:59:50Z</time>
      </trkpt>
      <trkpt lat="41.635536343" lon="2.531821435">
        <ele>374.09</ele>
        <time>2013-07-14T10:59:53Z</time>
      </trkpt>
      <trkpt lat="41.635514634" lon="2.532003490">
        <ele>374.09</ele>
        <time>2013-07-14T10:59:56Z</time>
      </trkpt>
      <trkpt lat="41.635391839" lon="2.532150341">
        <ele>374.09</ele>
        <time>2013-07-14T11:00:01Z</time>
      </trkpt>
      <trkpt lat="41.635259992" lon="2.532085130">
        <ele>374.09</ele>
        <time>2013-07-14T11:00:06Z</time>
      </trkpt>
      <trkpt lat="41.635129485" lon="2.531933418">
        <ele>374.09</ele>
        <time>2013-07-14T11:00:11Z</time>
      </trkpt>
      <trkpt lat="41.634953968" lon="2.531783968">
        <ele>371.69</ele>
        <time>2013-07-14T11:00:16Z</time>
      </trkpt>
      <trkpt lat="41.634752803" lon="2.531939201">
        <ele>368.80</ele>
        <time>2013-07-14T11:00:22Z</time>
      </trkpt>
      <trkpt lat="41.634659596" lon="2.532092339">
        <ele>367.36</ele>
        <time>2013-07-14T11:00:25Z</time>
      </trkpt>
      <trkpt lat="41.634610227" lon="2.532204405">
        <ele>367.36</ele>
        <time>2013-07-14T11:00:27Z</time>
      </trkpt>
      <trkpt lat="41.634584829" lon="2.532520486">
        <ele>366.88</ele>
        <time>2013-07-14T11:00:33Z</time>
      </trkpt>
      <trkpt lat="41.634602348" lon="2.532779236">
        <ele>368.80</ele>
        <time>2013-07-14T11:00:40Z</time>
      </trkpt>
      <trkpt lat="41.634641491" lon="2.533011414">
        <ele>370.73</ele>
        <time>2013-07-14T11:00:48Z</time>
      </trkpt>
      <trkpt lat="41.634676024" lon="2.533199001">
        <ele>372.17</ele>
        <time>2013-07-14T11:00:55Z</time>
      </trkpt>
      <trkpt lat="41.634644676" lon="2.533380134">
        <ele>373.13</ele>
        <time>2013-07-14T11:01:03Z</time>
      </trkpt>
      <trkpt lat="41.634539735" lon="2.533426989">
        <ele>374.09</ele>
        <time>2013-07-14T11:01:10Z</time>
      </trkpt>
      <trkpt lat="41.634446779" lon="2.533398993">
        <ele>374.57</ele>
        <time>2013-07-14T11:01:16Z</time>
      </trkpt>
      <trkpt lat="41.634343850" lon="2.533463869">
        <ele>376.49</ele>
        <time>2013-07-14T11:01:24Z</time>
      </trkpt>
      <trkpt lat="41.634160035" lon="2.533511227">
        <ele>377.45</ele>
        <time>2013-07-14T11:01:35Z</time>
      </trkpt>
      <trkpt lat="41.634059536" lon="2.533540396">
        <ele>378.42</ele>
        <time>2013-07-14T11:01:42Z</time>
      </trkpt>
      <trkpt lat="41.633901872" lon="2.533489099">
        <ele>376.49</ele>
        <time>2013-07-14T11:01:47Z</time>
      </trkpt>
      <trkpt lat="41.633741023" lon="2.533354486">
        <ele>376.49</ele>
        <time>2013-07-14T11:01:52Z</time>
      </trkpt>
      <trkpt lat="41.633572295" lon="2.533173017">
        <ele>380.34</ele>
        <time>2013-07-14T11:02:00Z</time>
      </trkpt>
      <trkpt lat="41.633413878" lon="2.532998422">
        <ele>383.22</ele>
        <time>2013-07-14T11:02:08Z</time>
      </trkpt>
      <trkpt lat="41.633303907" lon="2.532865653">
        <ele>385.63</ele>
        <time>2013-07-14T11:02:15Z</time>
      </trkpt>
      <trkpt lat="41.633223105" lon="2.532740008">
        <ele>386.11</ele>
        <time>2013-07-14T11:02:22Z</time>
      </trkpt>
      <trkpt lat="41.633204917" lon="2.532564072">
        <ele>384.18</ele>
        <time>2013-07-14T11:02:26Z</time>
      </trkpt>
      <trkpt lat="41.633200558" lon="2.532174481">
        <ele>380.34</ele>
        <time>2013-07-14T11:02:31Z</time>
      </trkpt>
      <trkpt lat="41.633082289" lon="2.531786567">
        <ele>377.94</ele>
        <time>2013-07-14T11:02:35Z</time>
      </trkpt>
      <trkpt lat="41.632719604" lon="2.531217352">
        <ele>376.01</ele>
        <time>2013-07-14T11:02:41Z</time>
      </trkpt>
      <trkpt lat="41.632528749" lon="2.531008642">
        <ele>376.01</ele>
        <time>2013-07-14T11:02:45Z</time>
      </trkpt>
      <trkpt lat="41.632424645" lon="2.530902695">
        <ele>376.01</ele>
        <time>2013-07-14T11:02:48Z</time>
      </trkpt>
      <trkpt lat="41.632265138" lon="2.530756598">
        <ele>376.01</ele>
        <time>2013-07-14T11:02:53Z</time>
      </trkpt>
      <trkpt lat="41.632089704" lon="2.530587871">
        <ele>378.42</ele>
        <time>2013-07-14T11:03:00Z</time>
      </trkpt>
      <trkpt lat="41.632035893" lon="2.530547721">
        <ele>379.38</ele>
        <time>2013-07-14T11:03:03Z</time>
      </trkpt>
      <trkpt lat="41.631931789" lon="2.530603880">
        <ele>380.34</ele>
        <time>2013-07-14T11:03:09Z</time>
      </trkpt>
      <trkpt lat="41.631880073" lon="2.530674540">
        <ele>380.82</ele>
        <time>2013-07-14T11:03:12Z</time>
      </trkpt>
      <trkpt lat="41.631712770" lon="2.530949634">
        <ele>381.78</ele>
        <time>2013-07-14T11:03:22Z</time>
      </trkpt>
      <trkpt lat="41.631528704" lon="2.531248532">
        <ele>382.74</ele>
        <time>2013-07-14T11:03:33Z</time>
      </trkpt>
      <trkpt lat="41.631382356" lon="2.531432431">
        <ele>383.70</ele>
        <time>2013-07-14T11:03:41Z</time>
      </trkpt>
      <trkpt lat="41.631204408" lon="2.531461265">
        <ele>383.70</ele>
        <time>2013-07-14T11:03:48Z</time>
      </trkpt>
      <trkpt lat="41.630972481" lon="2.531413153">
        <ele>383.70</ele>
        <time>2013-07-14T11:03:56Z</time>
      </trkpt>
      <trkpt lat="41.630733680" lon="2.531500995">
        <ele>384.66</ele>
        <time>2013-07-14T11:04:04Z</time>
      </trkpt>
      <trkpt lat="41.630470237" lon="2.531608032">
        <ele>384.66</ele>
        <time>2013-07-14T11:04:13Z</time>
      </trkpt>
      <trkpt lat="41.630217439" lon="2.531578696">
        <ele>385.63</ele>
        <time>2013-07-14T11:04:22Z</time>
      </trkpt>
      <trkpt lat="41.629959444" lon="2.531502336">
        <ele>386.59</ele>
        <time>2013-07-14T11:04:32Z</time>
      </trkpt>
      <trkpt lat="41.629781664" lon="2.531411225">
        <ele>388.51</ele>
        <time>2013-07-14T11:04:40Z</time>
      </trkpt>
      <trkpt lat="41.629602207" lon="2.531288011">
        <ele>389.47</ele>
        <time>2013-07-14T11:04:48Z</time>
      </trkpt>
      <trkpt lat="41.629458122" lon="2.531167060">
        <ele>390.43</ele>
        <time>2013-07-14T11:04:55Z</time>
      </trkpt>
      <trkpt lat="41.629392659" lon="2.530902527">
        <ele>390.91</ele>
        <time>2013-07-14T11:05:02Z</time>
      </trkpt>
      <trkpt lat="41.629367681" lon="2.530476475">
        <ele>388.99</ele>
        <time>2013-07-14T11:05:08Z</time>
      </trkpt>
      <trkpt lat="41.629246731" lon="2.529940536">
        <ele>385.63</ele>
        <time>2013-07-14T11:05:14Z</time>
      </trkpt>
      <trkpt lat="41.629179424" lon="2.529746579">
        <ele>384.18</ele>
        <time>2013-07-14T11:05:16Z</time>
      </trkpt>
      <trkpt lat="41.628876837" lon="2.529159594">
        <ele>383.22</ele>
        <time>2013-07-14T11:05:23Z</time>
      </trkpt>
      <trkpt lat="41.628769549" lon="2.528961865">
        <ele>383.22</ele>
        <time>2013-07-14T11:05:26Z</time>
      </trkpt>
      <trkpt lat="41.628601911" lon="2.528614855">
        <ele>383.22</ele>
        <time>2013-07-14T11:05:32Z</time>
      </trkpt>
      <trkpt lat="41.628484145" lon="2.528427016">
        <ele>382.74</ele>
        <time>2013-07-14T11:05:36Z</time>
      </trkpt>
      <trkpt lat="41.628210476" lon="2.528126776">
        <ele>380.34</ele>
        <time>2013-07-14T11:05:43Z</time>
      </trkpt>
      <trkpt lat="41.627850138" lon="2.527815556">
        <ele>377.45</ele>
        <time>2013-07-14T11:05:50Z</time>
      </trkpt>
      <trkpt lat="41.627669759" lon="2.527712878">
        <ele>376.01</ele>
        <time>2013-07-14T11:05:53Z</time>
      </trkpt>
      <trkpt lat="41.627316294" lon="2.527492685">
        <ele>372.65</ele>
        <time>2013-07-14T11:05:59Z</time>
      </trkpt>
      <trkpt lat="41.627262566" lon="2.527462594">
        <ele>371.69</ele>
        <time>2013-07-14T11:06:00Z</time>
      </trkpt>
      <trkpt lat="41.626929889" lon="2.527336950">
        <ele>367.84</ele>
        <time>2013-07-14T11:06:06Z</time>
      </trkpt>
      <trkpt lat="41.626723861" lon="2.527292274">
        <ele>364.96</ele>
        <time>2013-07-14T11:06:10Z</time>
      </trkpt>
      <trkpt lat="41.626585225" lon="2.527275175">
        <ele>362.55</ele>
        <time>2013-07-14T11:06:14Z</time>
      </trkpt>
      <trkpt lat="41.626550440" lon="2.527246425">
        <ele>362.07</ele>
        <time>2013-07-14T11:06:19Z</time>
      </trkpt>
      <trkpt lat="41.626503250" lon="2.527180543">
        <ele>361.59</ele>
        <time>2013-07-14T11:06:25Z</time>
      </trkpt>
      <trkpt lat="41.626392106" lon="2.527031178">
        <ele>360.15</ele>
        <time>2013-07-14T11:06:31Z</time>
      </trkpt>
      <trkpt lat="41.626318848" lon="2.526966218">
        <ele>359.19</ele>
        <time>2013-07-14T11:06:35Z</time>
      </trkpt>
      <trkpt lat="41.626309963" lon="2.526899414">
        <ele>359.19</ele>
        <time>2013-07-14T11:06:38Z</time>
      </trkpt>
      <trkpt lat="41.626223797" lon="2.526667068">
        <ele>359.19</ele>
        <time>2013-07-14T11:06:46Z</time>
      </trkpt>
      <trkpt lat="41.626083400" lon="2.526452575">
        <ele>358.71</ele>
        <time>2013-07-14T11:06:52Z</time>
      </trkpt>
      <trkpt lat="41.625822555" lon="2.526212685">
        <ele>358.71</ele>
        <time>2013-07-14T11:07:00Z</time>
      </trkpt>
      <trkpt lat="41.625599262" lon="2.526048483">
        <ele>358.23</ele>
        <time>2013-07-14T11:07:08Z</time>
      </trkpt>
      <trkpt lat="41.625419721" lon="2.525778335">
        <ele>358.23</ele>
        <time>2013-07-14T11:07:17Z</time>
      </trkpt>
      <trkpt lat="41.625257112" lon="2.525519418">
        <ele>358.23</ele>
        <time>2013-07-14T11:07:24Z</time>
      </trkpt>
      <trkpt lat="41.625054186" lon="2.525288664">
        <ele>357.75</ele>
        <time>2013-07-14T11:07:31Z</time>
      </trkpt>
      <trkpt lat="41.624871042" lon="2.525016923">
        <ele>356.79</ele>
        <time>2013-07-14T11:07:39Z</time>
      </trkpt>
      <trkpt lat="41.624760317" lon="2.524689525">
        <ele>355.83</ele>
        <time>2013-07-14T11:07:46Z</time>
      </trkpt>
      <trkpt lat="41.624634672" lon="2.524360703">
        <ele>354.86</ele>
        <time>2013-07-14T11:07:53Z</time>
      </trkpt>
      <trkpt lat="41.624464184" lon="2.523948901">
        <ele>351.50</ele>
        <time>2013-07-14T11:08:01Z</time>
      </trkpt>
      <trkpt lat="41.624284979" lon="2.523531985">
        <ele>349.10</ele>
        <time>2013-07-14T11:08:09Z</time>
      </trkpt>
      <trkpt lat="41.624234017" lon="2.523348505">
        <ele>348.62</ele>
        <time>2013-07-14T11:08:12Z</time>
      </trkpt>
      <trkpt lat="41.624175260" lon="2.523128480">
        <ele>348.62</ele>
        <time>2013-07-14T11:08:16Z</time>
      </trkpt>
      <trkpt lat="41.624013825" lon="2.522743248">
        <ele>347.65</ele>
        <time>2013-07-14T11:08:24Z</time>
      </trkpt>
      <trkpt lat="41.623857921" lon="2.522525150">
        <ele>346.21</ele>
        <time>2013-07-14T11:08:29Z</time>
      </trkpt>
      <trkpt lat="41.623613337" lon="2.522326248">
        <ele>345.73</ele>
        <time>2013-07-14T11:08:36Z</time>
      </trkpt>
      <trkpt lat="41.623600010" lon="2.522311999">
        <ele>345.73</ele>
        <time>2013-07-14T11:08:37Z</time>
      </trkpt>
      <trkpt lat="41.623569165" lon="2.522288026">
        <ele>345.25</ele>
        <time>2013-07-14T11:08:40Z</time>
      </trkpt>
      <trkpt lat="41.623454752" lon="2.522368660">
        <ele>341.41</ele>
        <time>2013-07-14T11:08:47Z</time>
      </trkpt>
      <trkpt lat="41.623335309" lon="2.522463795">
        <ele>338.04</ele>
        <time>2013-07-14T11:08:51Z</time>
      </trkpt>
      <trkpt lat="41.623305302" lon="2.522487516">
        <ele>337.08</ele>
        <time>2013-07-14T11:08:52Z</time>
      </trkpt>
      <trkpt lat="41.623104807" lon="2.522476535">
        <ele>335.64</ele>
        <time>2013-07-14T11:08:57Z</time>
      </trkpt>
      <trkpt lat="41.623053678" lon="2.522459269">
        <ele>335.16</ele>
        <time>2013-07-14T11:08:58Z</time>
      </trkpt>
      <trkpt lat="41.622686634" lon="2.522412162">
        <ele>334.20</ele>
        <time>2013-07-14T11:09:06Z</time>
      </trkpt>
      <trkpt lat="41.622407684" lon="2.522385424">
        <ele>333.71</ele>
        <time>2013-07-14T11:09:14Z</time>
      </trkpt>
      <trkpt lat="41.622292685" lon="2.522414006">
        <ele>331.79</ele>
        <time>2013-07-14T11:09:18Z</time>
      </trkpt>
      <trkpt lat="41.622109791" lon="2.522425071">
        <ele>327.47</ele>
        <time>2013-07-14T11:09:25Z</time>
      </trkpt>
      <trkpt lat="41.621969059" lon="2.522263132">
        <ele>325.06</ele>
        <time>2013-07-14T11:09:29Z</time>
      </trkpt>
      <trkpt lat="41.621893119" lon="2.522089627">
        <ele>322.18</ele>
        <time>2013-07-14T11:09:32Z</time>
      </trkpt>
      <trkpt lat="41.621822460" lon="2.521945709">
        <ele>320.74</ele>
        <time>2013-07-14T11:09:35Z</time>
      </trkpt>
      <trkpt lat="41.621727158" lon="2.521782681">
        <ele>318.81</ele>
        <time>2013-07-14T11:09:39Z</time>
      </trkpt>
      <trkpt lat="41.621557508" lon="2.521534074">
        <ele>316.41</ele>
        <time>2013-07-14T11:09:45Z</time>
      </trkpt>
      <trkpt lat="41.621306554" lon="2.521233583">
        <ele>311.60</ele>
        <time>2013-07-14T11:09:53Z</time>
      </trkpt>
      <trkpt lat="41.621274199" lon="2.521208018">
        <ele>311.12</ele>
        <time>2013-07-14T11:09:54Z</time>
      </trkpt>
      <trkpt lat="41.621087954" lon="2.521144316">
        <ele>308.24</ele>
        <time>2013-07-14T11:10:00Z</time>
      </trkpt>
      <trkpt lat="41.621120392" lon="2.521078434">
        <ele>307.76</ele>
        <time>2013-07-14T11:10:03Z</time>
      </trkpt>
      <trkpt lat="41.621232374" lon="2.521046750">
        <ele>306.80</ele>
        <time>2013-07-14T11:10:07Z</time>
      </trkpt>
      <trkpt lat="41.621269422" lon="2.521033172">
        <ele>306.80</ele>
        <time>2013-07-14T11:10:08Z</time>
      </trkpt>
      <trkpt lat="41.621515431" lon="2.521047589">
        <ele>304.88</ele>
        <time>2013-07-14T11:10:15Z</time>
      </trkpt>
      <trkpt lat="41.621705532" lon="2.521063598">
        <ele>303.91</ele>
        <time>2013-07-14T11:10:20Z</time>
      </trkpt>
      <trkpt lat="41.621892868" lon="2.520898642">
        <ele>302.47</ele>
        <time>2013-07-14T11:10:26Z</time>
      </trkpt>
      <trkpt lat="41.622125382" lon="2.520706529">
        <ele>299.59</ele>
        <time>2013-07-14T11:10:33Z</time>
      </trkpt>
      <trkpt lat="41.622328978" lon="2.520542663">
        <ele>296.70</ele>
        <time>2013-07-14T11:10:39Z</time>
      </trkpt>
      <trkpt lat="41.622423694" lon="2.520496981">
        <ele>294.78</ele>
        <time>2013-07-14T11:10:42Z</time>
      </trkpt>
      <trkpt lat="41.622419000" lon="2.520360440">
        <ele>293.82</ele>
        <time>2013-07-14T11:10:46Z</time>
      </trkpt>
      <trkpt lat="41.622296876" lon="2.520353064">
        <ele>292.38</ele>
        <time>2013-07-14T11:10:50Z</time>
      </trkpt>
      <trkpt lat="41.622079114" lon="2.520424310">
        <ele>289.49</ele>
        <time>2013-07-14T11:10:57Z</time>
      </trkpt>
      <trkpt lat="41.621856406" lon="2.520423221">
        <ele>285.65</ele>
        <time>2013-07-14T11:11:03Z</time>
      </trkpt>
      <trkpt lat="41.621652223" lon="2.520395057">
        <ele>282.28</ele>
        <time>2013-07-14T11:11:08Z</time>
      </trkpt>
      <trkpt lat="41.621491207" lon="2.520345520">
        <ele>280.36</ele>
        <time>2013-07-14T11:11:11Z</time>
      </trkpt>
      <trkpt lat="41.621089546" lon="2.520269916">
        <ele>276.04</ele>
        <time>2013-07-14T11:11:16Z</time>
      </trkpt>
      <trkpt lat="41.620738764" lon="2.520195820">
        <ele>272.67</ele>
        <time>2013-07-14T11:11:20Z</time>
      </trkpt>
      <trkpt lat="41.620458640" lon="2.520158352">
        <ele>269.31</ele>
        <time>2013-07-14T11:11:23Z</time>
      </trkpt>
      <trkpt lat="41.620198801" lon="2.520114012">
        <ele>265.94</ele>
        <time>2013-07-14T11:11:26Z</time>
      </trkpt>
      <trkpt lat="41.619832177" lon="2.520239322">
        <ele>260.65</ele>
        <time>2013-07-14T11:11:31Z</time>
      </trkpt>
      <trkpt lat="41.619619528" lon="2.520328924">
        <ele>257.29</ele>
        <time>2013-07-14T11:11:34Z</time>
      </trkpt>
      <trkpt lat="41.619343009" lon="2.520303862">
        <ele>253.44</ele>
        <time>2013-07-14T11:11:38Z</time>
      </trkpt>
      <trkpt lat="41.619018546" lon="2.520412659">
        <ele>249.60</ele>
        <time>2013-07-14T11:11:42Z</time>
      </trkpt>
      <trkpt lat="41.618852919" lon="2.520502597">
        <ele>247.20</ele>
        <time>2013-07-14T11:11:44Z</time>
      </trkpt>
      <trkpt lat="41.618601881" lon="2.520570742">
        <ele>244.31</ele>
        <time>2013-07-14T11:11:47Z</time>
      </trkpt>
      <trkpt lat="41.618520744" lon="2.520584572">
        <ele>242.87</ele>
        <time>2013-07-14T11:11:48Z</time>
      </trkpt>
      <trkpt lat="41.618298959" lon="2.520756234">
        <ele>239.99</ele>
        <time>2013-07-14T11:11:52Z</time>
      </trkpt>
      <trkpt lat="41.618278004" lon="2.520842735">
        <ele>239.02</ele>
        <time>2013-07-14T11:11:53Z</time>
      </trkpt>
      <trkpt lat="41.618056303" lon="2.521382613">
        <ele>233.26</ele>
        <time>2013-07-14T11:11:59Z</time>
      </trkpt>
      <trkpt lat="41.617999809" lon="2.521523345">
        <ele>230.37</ele>
        <time>2013-07-14T11:12:01Z</time>
      </trkpt>
      <trkpt lat="41.617873075" lon="2.521594340">
        <ele>227.01</ele>
        <time>2013-07-14T11:12:05Z</time>
      </trkpt>
      <trkpt lat="41.617855892" lon="2.521554778">
        <ele>226.05</ele>
        <time>2013-07-14T11:12:06Z</time>
      </trkpt>
      <trkpt lat="41.617812641" lon="2.521381356">
        <ele>225.09</ele>
        <time>2013-07-14T11:12:09Z</time>
      </trkpt>
      <trkpt lat="41.617776934" lon="2.521237522">
        <ele>224.12</ele>
        <time>2013-07-14T11:12:11Z</time>
      </trkpt>
      <trkpt lat="41.617713399" lon="2.521002997">
        <ele>223.64</ele>
        <time>2013-07-14T11:12:14Z</time>
      </trkpt>
      <trkpt lat="41.617661851" lon="2.520738967">
        <ele>222.68</ele>
        <time>2013-07-14T11:12:17Z</time>
      </trkpt>
      <trkpt lat="41.617665287" lon="2.520584991">
        <ele>222.20</ele>
        <time>2013-07-14T11:12:19Z</time>
      </trkpt>
      <trkpt lat="41.617690768" lon="2.520418275">
        <ele>221.24</ele>
        <time>2013-07-14T11:12:22Z</time>
      </trkpt>
      <trkpt lat="41.617739467" lon="2.520152737">
        <ele>218.84</ele>
        <time>2013-07-14T11:12:27Z</time>
      </trkpt>
      <trkpt lat="41.617889084" lon="2.519976130">
        <ele>215.95</ele>
        <time>2013-07-14T11:12:32Z</time>
      </trkpt>
      <trkpt lat="41.617874248" lon="2.519820394">
        <ele>214.99</ele>
        <time>2013-07-14T11:12:37Z</time>
      </trkpt>
      <trkpt lat="41.617865531" lon="2.519803463">
        <ele>214.51</ele>
        <time>2013-07-14T11:12:38Z</time>
      </trkpt>
      <trkpt lat="41.617840553" lon="2.519766582">
        <ele>214.03</ele>
        <time>2013-07-14T11:12:46Z</time>
      </trkpt>
      <trkpt lat="41.617819430" lon="2.519746382">
        <ele>213.55</ele>
        <time>2013-07-14T11:12:50Z</time>
      </trkpt>
      <trkpt lat="41.617816581" lon="2.519684188">
        <ele>213.55</ele>
        <time>2013-07-14T11:12:55Z</time>
      </trkpt>
      <trkpt lat="41.617814653" lon="2.519638172">
        <ele>213.07</ele>
        <time>2013-07-14T11:12:58Z</time>
      </trkpt>
      <trkpt lat="41.617742317" lon="2.519633142">
        <ele>212.11</ele>
        <time>2013-07-14T11:13:05Z</time>
      </trkpt>
      <trkpt lat="41.617528495" lon="2.519647811">
        <ele>211.63</ele>
        <time>2013-07-14T11:13:13Z</time>
      </trkpt>
      <trkpt lat="41.617271338" lon="2.519673711">
        <ele>210.67</ele>
        <time>2013-07-14T11:13:20Z</time>
      </trkpt>
      <trkpt lat="41.617090708" lon="2.519689972">
        <ele>209.22</ele>
        <time>2013-07-14T11:13:27Z</time>
      </trkpt>
      <trkpt lat="41.617081991" lon="2.519688798">
        <ele>209.22</ele>
        <time>2013-07-14T11:13:37Z</time>
      </trkpt>
      <trkpt lat="41.617059192" lon="2.519695671">
        <ele>208.74</ele>
        <time>2013-07-14T11:13:47Z</time>
      </trkpt>
      <trkpt lat="41.617045781" lon="2.519682763">
        <ele>208.74</ele>
        <time>2013-07-14T11:13:58Z</time>
      </trkpt>
      <trkpt lat="41.617038656" lon="2.519684272">
        <ele>208.74</ele>
        <time>2013-07-14T11:13:59Z</time>
      </trkpt>
      <trkpt lat="41.616908904" lon="2.519710675">
        <ele>208.74</ele>
        <time>2013-07-14T11:14:06Z</time>
      </trkpt>
      <trkpt lat="41.616767334" lon="2.519760380">
        <ele>207.78</ele>
        <time>2013-07-14T11:14:10Z</time>
      </trkpt>
      <trkpt lat="41.616577903" lon="2.519851826">
        <ele>206.82</ele>
        <time>2013-07-14T11:14:14Z</time>
      </trkpt>
      <trkpt lat="41.616347317" lon="2.520048298">
        <ele>206.34</ele>
        <time>2013-07-14T11:14:20Z</time>
      </trkpt>
      <trkpt lat="41.616218152" lon="2.520275029">
        <ele>206.34</ele>
        <time>2013-07-14T11:14:27Z</time>
      </trkpt>
      <trkpt lat="41.616035091" lon="2.520745086">
        <ele>205.38</ele>
        <time>2013-07-14T11:14:35Z</time>
      </trkpt>
      <trkpt lat="41.615953703" lon="2.521118919">
        <ele>204.42</ele>
        <time>2013-07-14T11:14:42Z</time>
      </trkpt>
      <trkpt lat="41.615913050" lon="2.521386217">
        <ele>203.94</ele>
        <time>2013-07-14T11:14:48Z</time>
      </trkpt>
      <trkpt lat="41.615854293" lon="2.521748819">
        <ele>203.46</ele>
        <time>2013-07-14T11:14:55Z</time>
      </trkpt>
      <trkpt lat="41.615788495" lon="2.522144109">
        <ele>202.98</ele>
        <time>2013-07-14T11:15:02Z</time>
      </trkpt>
      <trkpt lat="41.615697216" lon="2.522688430">
        <ele>200.57</ele>
        <time>2013-07-14T11:15:09Z</time>
      </trkpt>
      <trkpt lat="41.615588252" lon="2.523460487">
        <ele>198.65</ele>
        <time>2013-07-14T11:15:18Z</time>
      </trkpt>
      <trkpt lat="41.615543744" lon="2.524085861">
        <ele>196.25</ele>
        <time>2013-07-14T11:15:25Z</time>
      </trkpt>
      <trkpt lat="41.615519855" lon="2.524395237">
        <ele>194.80</ele>
        <time>2013-07-14T11:15:28Z</time>
      </trkpt>
      <trkpt lat="41.615465205" lon="2.525278103">
        <ele>191.92</ele>
        <time>2013-07-14T11:15:36Z</time>
      </trkpt>
      <trkpt lat="41.615509378" lon="2.525955947">
        <ele>189.52</ele>
        <time>2013-07-14T11:15:42Z</time>
      </trkpt>
      <trkpt lat="41.615569560" lon="2.526516277">
        <ele>188.56</ele>
        <time>2013-07-14T11:15:47Z</time>
      </trkpt>
      <trkpt lat="41.615516000" lon="2.527202336">
        <ele>185.19</ele>
        <time>2013-07-14T11:15:53Z</time>
      </trkpt>
      <trkpt lat="41.615328245" lon="2.528139852">
        <ele>181.83</ele>
        <time>2013-07-14T11:16:01Z</time>
      </trkpt>
      <trkpt lat="41.615163960" lon="2.529035375">
        <ele>179.90</ele>
        <time>2013-07-14T11:16:09Z</time>
      </trkpt>
      <trkpt lat="41.615131354" lon="2.529926119">
        <ele>177.02</ele>
        <time>2013-07-14T11:16:17Z</time>
      </trkpt>
      <trkpt lat="41.615128756" lon="2.530037515">
        <ele>177.02</ele>
        <time>2013-07-14T11:16:18Z</time>
      </trkpt>
      <trkpt lat="41.615091121" lon="2.530817954">
        <ele>175.10</ele>
        <time>2013-07-14T11:16:25Z</time>
      </trkpt>
      <trkpt lat="41.615080560" lon="2.530928260">
        <ele>175.10</ele>
        <time>2013-07-14T11:16:26Z</time>
      </trkpt>
      <trkpt lat="41.615085757" lon="2.531476939">
        <ele>172.69</ele>
        <time>2013-07-14T11:16:32Z</time>
      </trkpt>
      <trkpt lat="41.615131857" lon="2.531618258">
        <ele>172.21</ele>
        <time>2013-07-14T11:16:34Z</time>
      </trkpt>
      <trkpt lat="41.615169659" lon="2.531977674">
        <ele>171.25</ele>
        <time>2013-07-14T11:16:38Z</time>
      </trkpt>
      <trkpt lat="41.615049379" lon="2.532545297">
        <ele>168.85</ele>
        <time>2013-07-14T11:16:45Z</time>
      </trkpt>
      <trkpt lat="41.614903366" lon="2.533085091">
        <ele>166.93</ele>
        <time>2013-07-14T11:16:52Z</time>
      </trkpt>
      <trkpt lat="41.614733549" lon="2.533659754">
        <ele>165.48</ele>
        <time>2013-07-14T11:16:59Z</time>
      </trkpt>
      <trkpt lat="41.614553757" lon="2.534228969">
        <ele>163.56</ele>
        <time>2013-07-14T11:17:06Z</time>
      </trkpt>
      <trkpt lat="41.614453007" lon="2.534539519">
        <ele>162.12</ele>
        <time>2013-07-14T11:17:10Z</time>
      </trkpt>
      <trkpt lat="41.614238514" lon="2.535190961">
        <ele>160.68</ele>
        <time>2013-07-14T11:17:19Z</time>
      </trkpt>
      <trkpt lat="41.614142122" lon="2.535489775">
        <ele>159.24</ele>
        <time>2013-07-14T11:17:23Z</time>
      </trkpt>
      <trkpt lat="41.613919415" lon="2.536149347">
        <ele>157.79</ele>
        <time>2013-07-14T11:17:32Z</time>
      </trkpt>
      <trkpt lat="41.613718333" lon="2.536587972">
        <ele>155.87</ele>
        <time>2013-07-14T11:17:40Z</time>
      </trkpt>
      <trkpt lat="41.613704084" lon="2.536614375">
        <ele>155.39</ele>
        <time>2013-07-14T11:17:44Z</time>
      </trkpt>
      <trkpt lat="41.613669299" lon="2.536696350">
        <ele>155.39</ele>
        <time>2013-07-14T11:17:49Z</time>
      </trkpt>
      <trkpt lat="41.613534350" lon="2.536940599">
        <ele>154.91</ele>
        <time>2013-07-14T11:17:56Z</time>
      </trkpt>
      <trkpt lat="41.613381883" lon="2.537157942">
        <ele>153.95</ele>
        <time>2013-07-14T11:18:02Z</time>
      </trkpt>
      <trkpt lat="41.613220029" lon="2.537339997">
        <ele>152.99</ele>
        <time>2013-07-14T11:18:09Z</time>
      </trkpt>
      <trkpt lat="41.613035459" lon="2.537541749">
        <ele>152.51</ele>
        <time>2013-07-14T11:18:16Z</time>
      </trkpt>
      <trkpt lat="41.612845441" lon="2.537764792">
        <ele>151.54</ele>
        <time>2013-07-14T11:18:23Z</time>
      </trkpt>
      <trkpt lat="41.612678977" lon="2.537953133">
        <ele>150.58</ele>
        <time>2013-07-14T11:18:29Z</time>
      </trkpt>
      <trkpt lat="41.612363482" lon="2.538315315">
        <ele>149.14</ele>
        <time>2013-07-14T11:18:38Z</time>
      </trkpt>
      <trkpt lat="41.612146223" lon="2.538746145">
        <ele>148.18</ele>
        <time>2013-07-14T11:18:46Z</time>
      </trkpt>
      <trkpt lat="41.612034492" lon="2.538901713">
        <ele>146.74</ele>
        <time>2013-07-14T11:18:51Z</time>
      </trkpt>
      <trkpt lat="41.611963330" lon="2.538994501">
        <ele>146.26</ele>
        <time>2013-07-14T11:18:55Z</time>
      </trkpt>
      <trkpt lat="41.611937598" lon="2.539027106">
        <ele>145.78</ele>
        <time>2013-07-14T11:18:59Z</time>
      </trkpt>
      <trkpt lat="41.611883283" lon="2.538833903">
        <ele>147.70</ele>
        <time>2013-07-14T11:19:07Z</time>
      </trkpt>
      <trkpt lat="41.611694019" lon="2.538783528">
        <ele>148.66</ele>
        <time>2013-07-14T11:19:13Z</time>
      </trkpt>
      <trkpt lat="41.611654289" lon="2.538777074">
        <ele>148.66</ele>
        <time>2013-07-14T11:19:14Z</time>
      </trkpt>
      <trkpt lat="41.611468295" lon="2.538798532">
        <ele>147.22</ele>
        <time>2013-07-14T11:19:19Z</time>
      </trkpt>
      <trkpt lat="41.611195212" lon="2.538823426">
        <ele>145.78</ele>
        <time>2013-07-14T11:19:26Z</time>
      </trkpt>
      <trkpt lat="41.610953897" lon="2.538925769">
        <ele>145.30</ele>
        <time>2013-07-14T11:19:32Z</time>
      </trkpt>
      <trkpt lat="41.610867312" lon="2.538964829">
        <ele>144.34</ele>
        <time>2013-07-14T11:19:34Z</time>
      </trkpt>
      <trkpt lat="41.610536227" lon="2.539121067">
        <ele>143.37</ele>
        <time>2013-07-14T11:19:42Z</time>
      </trkpt>
      <trkpt lat="41.610237161" lon="2.539285939">
        <ele>142.41</ele>
        <time>2013-07-14T11:19:50Z</time>
      </trkpt>
      <trkpt lat="41.609883947" lon="2.539495906">
        <ele>140.01</ele>
        <time>2013-07-14T11:19:58Z</time>
      </trkpt>
      <trkpt lat="41.609646823" lon="2.539634626">
        <ele>139.05</ele>
        <time>2013-07-14T11:20:03Z</time>
      </trkpt>
      <trkpt lat="41.609269722" lon="2.539852137">
        <ele>137.13</ele>
        <time>2013-07-14T11:20:11Z</time>
      </trkpt>
      <trkpt lat="41.609145753" lon="2.540043747">
        <ele>136.64</ele>
        <time>2013-07-14T11:20:16Z</time>
      </trkpt>
      <trkpt lat="41.609128067" lon="2.540122872">
        <ele>136.16</ele>
        <time>2013-07-14T11:20:21Z</time>
      </trkpt>
      <trkpt lat="41.609081129" lon="2.540184982">
        <ele>135.68</ele>
        <time>2013-07-14T11:20:25Z</time>
      </trkpt>
      <trkpt lat="41.608925896" lon="2.540320350">
        <ele>135.20</ele>
        <time>2013-07-14T11:20:33Z</time>
      </trkpt>
      <trkpt lat="41.608869821" lon="2.540456891">
        <ele>135.20</ele>
        <time>2013-07-14T11:20:38Z</time>
      </trkpt>
      <trkpt lat="41.608798240" lon="2.540380532">
        <ele>134.72</ele>
        <time>2013-07-14T11:20:44Z</time>
      </trkpt>
      <trkpt lat="41.608741829" lon="2.540334515">
        <ele>133.76</ele>
        <time>2013-07-14T11:20:46Z</time>
      </trkpt>
      <trkpt lat="41.608365398" lon="2.540402074">
        <ele>133.28</ele>
        <time>2013-07-14T11:20:55Z</time>
      </trkpt>
      <trkpt lat="41.608221397" lon="2.540448090">
        <ele>133.28</ele>
        <time>2013-07-14T11:21:00Z</time>
      </trkpt>
      <trkpt lat="41.607955942" lon="2.540476421">
        <ele>132.32</ele>
        <time>2013-07-14T11:21:07Z</time>
      </trkpt>
      <trkpt lat="41.607672215" lon="2.540507769">
        <ele>131.84</ele>
        <time>2013-07-14T11:21:14Z</time>
      </trkpt>
      <trkpt lat="41.607528297" lon="2.540476589">
        <ele>130.40</ele>
        <time>2013-07-14T11:21:18Z</time>
      </trkpt>
      <trkpt lat="41.607136192" lon="2.540358236">
        <ele>129.43</ele>
        <time>2013-07-14T11:21:25Z</time>
      </trkpt>
      <trkpt lat="41.606873922" lon="2.540291432">
        <ele>127.99</ele>
        <time>2013-07-14T11:21:31Z</time>
      </trkpt>
      <trkpt lat="41.606651634" lon="2.540239046">
        <ele>128.47</ele>
        <time>2013-07-14T11:21:36Z</time>
      </trkpt>
      <trkpt lat="41.606490534" lon="2.540215576">
        <ele>127.99</ele>
        <time>2013-07-14T11:21:40Z</time>
      </trkpt>
      <trkpt lat="41.606332870" lon="2.540261509">
        <ele>127.03</ele>
        <time>2013-07-14T11:21:46Z</time>
      </trkpt>
      <trkpt lat="41.606213177" lon="2.540238459">
        <ele>126.55</ele>
        <time>2013-07-14T11:21:50Z</time>
      </trkpt>
      <trkpt lat="41.606108571" lon="2.540286068">
        <ele>126.55</ele>
        <time>2013-07-14T11:21:56Z</time>
      </trkpt>
      <trkpt lat="41.606067080" lon="2.540308280">
        <ele>126.55</ele>
        <time>2013-07-14T11:22:02Z</time>
      </trkpt>
      <trkpt lat="41.606050233" lon="2.540294785">
        <ele>126.55</ele>
        <time>2013-07-14T11:22:10Z</time>
      </trkpt>
      <trkpt lat="41.606040258" lon="2.540285816">
        <ele>126.55</ele>
        <time>2013-07-14T11:22:27Z</time>
      </trkpt>
      <trkpt lat="41.606030451" lon="2.540283721">
        <ele>126.07</ele>
        <time>2013-07-14T11:22:40Z</time>
      </trkpt>
      <trkpt lat="41.606028523" lon="2.540277854">
        <ele>126.07</ele>
        <time>2013-07-14T11:22:50Z</time>
      </trkpt>
      <trkpt lat="41.606015448" lon="2.540269136">
        <ele>126.07</ele>
        <time>2013-07-14T11:23:08Z</time>
      </trkpt>
      <trkpt lat="41.606010083" lon="2.540271986">
        <ele>126.07</ele>
        <time>2013-07-14T11:23:23Z</time>
      </trkpt>
      <trkpt lat="41.606001031" lon="2.540276513">
        <ele>126.07</ele>
        <time>2013-07-14T11:23:31Z</time>
      </trkpt>
      <trkpt lat="41.605994744" lon="2.540309453">
        <ele>126.07</ele>
        <time>2013-07-14T11:23:37Z</time>
      </trkpt>
      <trkpt lat="41.605929366" lon="2.540386818">
        <ele>127.03</ele>
        <time>2013-07-14T11:23:43Z</time>
      </trkpt>
      <trkpt lat="41.605909920" lon="2.540391177">
        <ele>127.03</ele>
        <time>2013-07-14T11:23:44Z</time>
      </trkpt>
      <trkpt lat="41.605885025" lon="2.540403415">
        <ele>127.03</ele>
        <time>2013-07-14T11:23:46Z</time>
      </trkpt>
      <trkpt lat="41.605900197" lon="2.540453454">
        <ele>127.51</ele>
        <time>2013-07-14T11:23:50Z</time>
      </trkpt>
      <trkpt lat="41.605985021" lon="2.540482875">
        <ele>127.51</ele>
        <time>2013-07-14T11:23:57Z</time>
      </trkpt>
      <trkpt lat="41.606035229" lon="2.540516486">
        <ele>127.99</ele>
        <time>2013-07-14T11:24:01Z</time>
      </trkpt>
      <trkpt lat="41.606136482" lon="2.540569711">
        <ele>128.47</ele>
        <time>2013-07-14T11:24:08Z</time>
      </trkpt>
      <trkpt lat="41.606234634" lon="2.540588068">
        <ele>128.47</ele>
        <time>2013-07-14T11:24:16Z</time>
      </trkpt>
      <trkpt lat="41.606264139" lon="2.540603742">
        <ele>127.99</ele>
        <time>2013-07-14T11:24:24Z</time>
      </trkpt>
      <trkpt lat="41.606271012" lon="2.540592594">
        <ele>127.99</ele>
        <time>2013-07-14T11:24:38Z</time>
      </trkpt>
      <trkpt lat="41.606287273" lon="2.540602066">
        <ele>127.99</ele>
        <time>2013-07-14T11:24:43Z</time>
      </trkpt>
      <trkpt lat="41.606361788" lon="2.540675491">
        <ele>128.47</ele>
        <time>2013-07-14T11:24:49Z</time>
      </trkpt>
      <trkpt lat="41.606532946" lon="2.540820163">
        <ele>128.95</ele>
        <time>2013-07-14T11:24:57Z</time>
      </trkpt>
      <trkpt lat="41.606605450" lon="2.541126773">
        <ele>130.40</ele>
        <time>2013-07-14T11:25:06Z</time>
      </trkpt>
      <trkpt lat="41.606671415" lon="2.541384181">
        <ele>131.84</ele>
        <time>2013-07-14T11:25:14Z</time>
      </trkpt>
      <trkpt lat="41.606741991" lon="2.541612001">
        <ele>133.28</ele>
        <time>2013-07-14T11:25:21Z</time>
      </trkpt>
      <trkpt lat="41.606796390" lon="2.541886676">
        <ele>134.72</ele>
        <time>2013-07-14T11:25:30Z</time>
      </trkpt>
      <trkpt lat="41.606885070" lon="2.542075604">
        <ele>136.16</ele>
        <time>2013-07-14T11:25:37Z</time>
      </trkpt>
      <trkpt lat="41.606958915" lon="2.542223042">
        <ele>137.13</ele>
        <time>2013-07-14T11:25:43Z</time>
      </trkpt>
      <trkpt lat="41.607038291" lon="2.542340975">
        <ele>137.61</ele>
        <time>2013-07-14T11:25:49Z</time>
      </trkpt>
      <trkpt lat="41.607066622" lon="2.542336868">
        <ele>138.57</ele>
        <time>2013-07-14T11:25:57Z</time>
      </trkpt>
      <trkpt lat="41.607084979" lon="2.542326223">
        <ele>138.09</ele>
        <time>2013-07-14T11:26:06Z</time>
      </trkpt>
      <trkpt lat="41.607128900" lon="2.542328486">
        <ele>138.09</ele>
        <time>2013-07-14T11:26:18Z</time>
      </trkpt>
      <trkpt lat="41.607141808" lon="2.542345921">
        <ele>138.09</ele>
        <time>2013-07-14T11:26:31Z</time>
      </trkpt>
    </trkseg>
  </trk>
</gpx>
